<?xml version="1.0" encoding="UTF-8" standalone="no" ?>
<gpx xmlns="http://www.topografix.com/GPX/1/1" xmlns:xsi="http://www.w3.org/2001/XMLSchema-instance" xsi:schemaLocation="http://www.topografix.com/GPX/1/1 http://www.topografix.com/GPX/1/1/gpx.xsd" version="1.1" creator="VisuGPX - https://www.visugpx.com">
  <metadata>
    <name>Menétrux-enJoux - Cascades du Hérisson - Pic de l'Aigle - La Chaux-du-Dombief</name>
    <desc><![CDATA[Randonnée effectuée le 21mars 2019.
L'indice IBP d'effort est de 73, (suivant l'échelle de la FFRP) un score compris entre 51 et 75 correspond au niveau 3 qualifié de "PEU DIFFICILE". La randonnée pédestre nécessite un certain engagement physique qui reste toutefois mesuré. Ce niveau correspond à des randonnées pédestres modérées.
]]></desc>
  </metadata>
  <trk>
    <name><![CDATA[20190322075959-qHWCm]]></name>
    <trkseg>
      <trkpt lat="46.62638" lon="5.82831">
        <ele>653</ele>
        <time>2019-03-22T07:31:35Z</time>
      </trkpt>
      <trkpt lat="46.6264" lon="5.82835">
        <ele>653</ele>
        <time>2019-03-22T07:32:35Z</time>
      </trkpt>
      <trkpt lat="46.62635" lon="5.82854">
        <ele>654</ele>
        <time>2019-03-22T07:33:35Z</time>
      </trkpt>
      <trkpt lat="46.6262" lon="5.82863">
        <ele>656</ele>
        <time>2019-03-22T07:34:35Z</time>
      </trkpt>
      <trkpt lat="46.62599" lon="5.82882">
        <ele>658</ele>
        <time>2019-03-22T07:35:35Z</time>
      </trkpt>
      <trkpt lat="46.62592" lon="5.82891">
        <ele>659</ele>
        <time>2019-03-22T07:36:35Z</time>
      </trkpt>
      <trkpt lat="46.62555" lon="5.82909">
        <ele>662</ele>
        <time>2019-03-22T07:37:35Z</time>
      </trkpt>
      <trkpt lat="46.62537" lon="5.82913">
        <ele>663</ele>
        <time>2019-03-22T07:38:35Z</time>
      </trkpt>
      <trkpt lat="46.62521" lon="5.82929">
        <ele>665</ele>
        <time>2019-03-22T07:39:35Z</time>
      </trkpt>
      <trkpt lat="46.62513" lon="5.82934">
        <ele>665</ele>
        <time>2019-03-22T07:40:35Z</time>
      </trkpt>
      <trkpt lat="46.625" lon="5.8294">
        <ele>666</ele>
        <time>2019-03-22T07:41:35Z</time>
      </trkpt>
      <trkpt lat="46.62491" lon="5.82939">
        <ele>667</ele>
        <time>2019-03-22T07:42:35Z</time>
      </trkpt>
      <trkpt lat="46.6248" lon="5.82942">
        <ele>667</ele>
        <time>2019-03-22T07:43:35Z</time>
      </trkpt>
      <trkpt lat="46.6247" lon="5.8294">
        <ele>668</ele>
        <time>2019-03-22T07:44:35Z</time>
      </trkpt>
      <trkpt lat="46.62462" lon="5.82934">
        <ele>668</ele>
        <time>2019-03-22T07:45:35Z</time>
      </trkpt>
      <trkpt lat="46.62453" lon="5.82929">
        <ele>668</ele>
        <time>2019-03-22T07:46:35Z</time>
      </trkpt>
      <trkpt lat="46.62446" lon="5.82925">
        <ele>668</ele>
        <time>2019-03-22T07:47:35Z</time>
      </trkpt>
      <trkpt lat="46.62441" lon="5.82922">
        <ele>668</ele>
        <time>2019-03-22T07:48:35Z</time>
      </trkpt>
      <trkpt lat="46.62436" lon="5.82922">
        <ele>668</ele>
        <time>2019-03-22T07:49:35Z</time>
      </trkpt>
      <trkpt lat="46.62414" lon="5.8291">
        <ele>668</ele>
        <time>2019-03-22T07:50:35Z</time>
      </trkpt>
      <trkpt lat="46.62404" lon="5.82908">
        <ele>669</ele>
        <time>2019-03-22T07:51:35Z</time>
      </trkpt>
      <trkpt lat="46.62398" lon="5.82907">
        <ele>669</ele>
        <time>2019-03-22T07:52:35Z</time>
      </trkpt>
      <trkpt lat="46.62375" lon="5.82894">
        <ele>671</ele>
        <time>2019-03-22T07:53:35Z</time>
      </trkpt>
      <trkpt lat="46.6237" lon="5.82891">
        <ele>671</ele>
        <time>2019-03-22T07:54:35Z</time>
      </trkpt>
      <trkpt lat="46.6236" lon="5.82888">
        <ele>671</ele>
        <time>2019-03-22T07:55:35Z</time>
      </trkpt>
      <trkpt lat="46.62355" lon="5.82888">
        <ele>672</ele>
        <time>2019-03-22T07:56:35Z</time>
      </trkpt>
      <trkpt lat="46.6235" lon="5.82887">
        <ele>672</ele>
        <time>2019-03-22T07:57:35Z</time>
      </trkpt>
      <trkpt lat="46.62344" lon="5.82888">
        <ele>673</ele>
        <time>2019-03-22T07:58:35Z</time>
      </trkpt>
      <trkpt lat="46.62339" lon="5.82888">
        <ele>673</ele>
        <time>2019-03-22T07:59:35Z</time>
      </trkpt>
      <trkpt lat="46.62333" lon="5.82889">
        <ele>674</ele>
        <time>2019-03-22T08:00:35Z</time>
      </trkpt>
      <trkpt lat="46.62315" lon="5.82898">
        <ele>674</ele>
        <time>2019-03-22T08:01:35Z</time>
      </trkpt>
      <trkpt lat="46.62285" lon="5.82914">
        <ele>675</ele>
        <time>2019-03-22T08:02:35Z</time>
      </trkpt>
      <trkpt lat="46.62258" lon="5.82932">
        <ele>676</ele>
        <time>2019-03-22T08:03:35Z</time>
      </trkpt>
      <trkpt lat="46.6225" lon="5.82939">
        <ele>677</ele>
        <time>2019-03-22T08:04:35Z</time>
      </trkpt>
      <trkpt lat="46.62246" lon="5.82944">
        <ele>678</ele>
        <time>2019-03-22T08:05:35Z</time>
      </trkpt>
      <trkpt lat="46.62239" lon="5.82953">
        <ele>679</ele>
        <time>2019-03-22T08:06:35Z</time>
      </trkpt>
      <trkpt lat="46.62231" lon="5.82965">
        <ele>680</ele>
        <time>2019-03-22T08:07:35Z</time>
      </trkpt>
      <trkpt lat="46.6222" lon="5.82967">
        <ele>679</ele>
        <time>2019-03-22T08:08:35Z</time>
      </trkpt>
      <trkpt lat="46.62211" lon="5.82963">
        <ele>678</ele>
        <time>2019-03-22T08:09:35Z</time>
      </trkpt>
      <trkpt lat="46.62189" lon="5.82929">
        <ele>674</ele>
        <time>2019-03-22T08:10:35Z</time>
      </trkpt>
      <trkpt lat="46.6218" lon="5.82924">
        <ele>674</ele>
        <time>2019-03-22T08:11:35Z</time>
      </trkpt>
      <trkpt lat="46.62176" lon="5.82925">
        <ele>674</ele>
        <time>2019-03-22T08:12:35Z</time>
      </trkpt>
      <trkpt lat="46.62163" lon="5.82937">
        <ele>674</ele>
        <time>2019-03-22T08:13:35Z</time>
      </trkpt>
      <trkpt lat="46.62155" lon="5.82945">
        <ele>675</ele>
        <time>2019-03-22T08:14:35Z</time>
      </trkpt>
      <trkpt lat="46.62152" lon="5.8295">
        <ele>676</ele>
        <time>2019-03-22T08:15:35Z</time>
      </trkpt>
      <trkpt lat="46.62148" lon="5.82955">
        <ele>676</ele>
        <time>2019-03-22T08:16:35Z</time>
      </trkpt>
      <trkpt lat="46.62144" lon="5.82959">
        <ele>677</ele>
        <time>2019-03-22T08:17:35Z</time>
      </trkpt>
      <trkpt lat="46.6214" lon="5.82961">
        <ele>677</ele>
        <time>2019-03-22T08:18:35Z</time>
      </trkpt>
      <trkpt lat="46.62134" lon="5.82965">
        <ele>678</ele>
        <time>2019-03-22T08:19:35Z</time>
      </trkpt>
      <trkpt lat="46.62094" lon="5.82965">
        <ele>680</ele>
        <time>2019-03-22T08:20:35Z</time>
      </trkpt>
      <trkpt lat="46.62085" lon="5.82968">
        <ele>681</ele>
        <time>2019-03-22T08:21:35Z</time>
      </trkpt>
      <trkpt lat="46.62066" lon="5.82973">
        <ele>681</ele>
        <time>2019-03-22T08:22:35Z</time>
      </trkpt>
      <trkpt lat="46.62057" lon="5.82976">
        <ele>681</ele>
        <time>2019-03-22T08:23:35Z</time>
      </trkpt>
      <trkpt lat="46.62028" lon="5.82972">
        <ele>681</ele>
        <time>2019-03-22T08:24:35Z</time>
      </trkpt>
      <trkpt lat="46.62018" lon="5.82975">
        <ele>681</ele>
        <time>2019-03-22T08:25:35Z</time>
      </trkpt>
      <trkpt lat="46.62" lon="5.82973">
        <ele>681</ele>
        <time>2019-03-22T08:26:35Z</time>
      </trkpt>
      <trkpt lat="46.61993" lon="5.82983">
        <ele>681</ele>
        <time>2019-03-22T08:27:35Z</time>
      </trkpt>
      <trkpt lat="46.61976" lon="5.82996">
        <ele>681</ele>
        <time>2019-03-22T08:28:35Z</time>
      </trkpt>
      <trkpt lat="46.61967" lon="5.83001">
        <ele>680</ele>
        <time>2019-03-22T08:29:35Z</time>
      </trkpt>
      <trkpt lat="46.61955" lon="5.83003">
        <ele>679</ele>
        <time>2019-03-22T08:30:35Z</time>
      </trkpt>
      <trkpt lat="46.61946" lon="5.8301">
        <ele>679</ele>
        <time>2019-03-22T08:31:35Z</time>
      </trkpt>
      <trkpt lat="46.6192" lon="5.83026">
        <ele>678</ele>
        <time>2019-03-22T08:32:35Z</time>
      </trkpt>
      <trkpt lat="46.61911" lon="5.83029">
        <ele>676</ele>
        <time>2019-03-22T08:33:35Z</time>
      </trkpt>
      <trkpt lat="46.61895" lon="5.83043">
        <ele>671</ele>
        <time>2019-03-22T08:34:35Z</time>
      </trkpt>
      <trkpt lat="46.61871" lon="5.83065">
        <ele>665</ele>
        <time>2019-03-22T08:35:35Z</time>
      </trkpt>
      <trkpt lat="46.6186" lon="5.83091">
        <ele>665</ele>
        <time>2019-03-22T08:36:35Z</time>
      </trkpt>
      <trkpt lat="46.61852" lon="5.83107">
        <ele>665</ele>
        <time>2019-03-22T08:37:35Z</time>
      </trkpt>
      <trkpt lat="46.61847" lon="5.83122">
        <ele>666</ele>
        <time>2019-03-22T08:38:35Z</time>
      </trkpt>
      <trkpt lat="46.61845" lon="5.83129">
        <ele>667</ele>
        <time>2019-03-22T08:39:35Z</time>
      </trkpt>
      <trkpt lat="46.61835" lon="5.83146">
        <ele>667</ele>
        <time>2019-03-22T08:40:35Z</time>
      </trkpt>
      <trkpt lat="46.61833" lon="5.83151">
        <ele>667</ele>
        <time>2019-03-22T08:41:35Z</time>
      </trkpt>
      <trkpt lat="46.61831" lon="5.83157">
        <ele>667</ele>
        <time>2019-03-22T08:42:35Z</time>
      </trkpt>
      <trkpt lat="46.61813" lon="5.83194">
        <ele>661</ele>
        <time>2019-03-22T08:43:35Z</time>
      </trkpt>
      <trkpt lat="46.61793" lon="5.83238">
        <ele>656</ele>
        <time>2019-03-22T08:44:35Z</time>
      </trkpt>
      <trkpt lat="46.61792" lon="5.83245">
        <ele>656</ele>
        <time>2019-03-22T08:45:35Z</time>
      </trkpt>
      <trkpt lat="46.61781" lon="5.83261">
        <ele>653</ele>
        <time>2019-03-22T08:46:35Z</time>
      </trkpt>
      <trkpt lat="46.61767" lon="5.83308">
        <ele>652</ele>
        <time>2019-03-22T08:47:35Z</time>
      </trkpt>
      <trkpt lat="46.61749" lon="5.83357">
        <ele>651</ele>
        <time>2019-03-22T08:48:35Z</time>
      </trkpt>
      <trkpt lat="46.61739" lon="5.83378">
        <ele>648</ele>
        <time>2019-03-22T08:49:35Z</time>
      </trkpt>
      <trkpt lat="46.61728" lon="5.83409">
        <ele>646</ele>
        <time>2019-03-22T08:50:35Z</time>
      </trkpt>
      <trkpt lat="46.61717" lon="5.83431">
        <ele>641</ele>
        <time>2019-03-22T08:51:35Z</time>
      </trkpt>
      <trkpt lat="46.61707" lon="5.83442">
        <ele>636</ele>
        <time>2019-03-22T08:52:35Z</time>
      </trkpt>
      <trkpt lat="46.61702" lon="5.83453">
        <ele>634</ele>
        <time>2019-03-22T08:53:35Z</time>
      </trkpt>
      <trkpt lat="46.61701" lon="5.83483">
        <ele>635</ele>
        <time>2019-03-22T08:54:35Z</time>
      </trkpt>
      <trkpt lat="46.61698" lon="5.83496">
        <ele>634</ele>
        <time>2019-03-22T08:55:35Z</time>
      </trkpt>
      <trkpt lat="46.61699" lon="5.83509">
        <ele>635</ele>
        <time>2019-03-22T08:56:35Z</time>
      </trkpt>
      <trkpt lat="46.61697" lon="5.8352">
        <ele>634</ele>
        <time>2019-03-22T08:57:35Z</time>
      </trkpt>
      <trkpt lat="46.61705" lon="5.83546">
        <ele>639</ele>
        <time>2019-03-22T08:58:35Z</time>
      </trkpt>
      <trkpt lat="46.61707" lon="5.83572">
        <ele>640</ele>
        <time>2019-03-22T08:59:35Z</time>
      </trkpt>
      <trkpt lat="46.61702" lon="5.83586">
        <ele>638</ele>
        <time>2019-03-22T09:00:35Z</time>
      </trkpt>
      <trkpt lat="46.61699" lon="5.83597">
        <ele>637</ele>
        <time>2019-03-22T09:01:35Z</time>
      </trkpt>
      <trkpt lat="46.6169" lon="5.83608">
        <ele>633</ele>
        <time>2019-03-22T09:02:35Z</time>
      </trkpt>
      <trkpt lat="46.61685" lon="5.8362">
        <ele>631</ele>
        <time>2019-03-22T09:03:35Z</time>
      </trkpt>
      <trkpt lat="46.61682" lon="5.83633">
        <ele>631</ele>
        <time>2019-03-22T09:04:35Z</time>
      </trkpt>
      <trkpt lat="46.61678" lon="5.83647">
        <ele>630</ele>
        <time>2019-03-22T09:05:35Z</time>
      </trkpt>
      <trkpt lat="46.61677" lon="5.83661">
        <ele>631</ele>
        <time>2019-03-22T09:06:35Z</time>
      </trkpt>
      <trkpt lat="46.61679" lon="5.83674">
        <ele>633</ele>
        <time>2019-03-22T09:07:35Z</time>
      </trkpt>
      <trkpt lat="46.6168" lon="5.83689">
        <ele>633</ele>
        <time>2019-03-22T09:08:35Z</time>
      </trkpt>
      <trkpt lat="46.61675" lon="5.83715">
        <ele>631</ele>
        <time>2019-03-22T09:09:35Z</time>
      </trkpt>
      <trkpt lat="46.61674" lon="5.83735">
        <ele>630</ele>
        <time>2019-03-22T09:10:35Z</time>
      </trkpt>
      <trkpt lat="46.61673" lon="5.8375">
        <ele>629</ele>
        <time>2019-03-22T09:11:35Z</time>
      </trkpt>
      <trkpt lat="46.61676" lon="5.83762">
        <ele>631</ele>
        <time>2019-03-22T09:12:35Z</time>
      </trkpt>
      <trkpt lat="46.61676" lon="5.83804">
        <ele>629</ele>
        <time>2019-03-22T09:13:35Z</time>
      </trkpt>
      <trkpt lat="46.61672" lon="5.83819">
        <ele>626</ele>
        <time>2019-03-22T09:14:35Z</time>
      </trkpt>
      <trkpt lat="46.61667" lon="5.83831">
        <ele>622</ele>
        <time>2019-03-22T09:15:35Z</time>
      </trkpt>
      <trkpt lat="46.61664" lon="5.83846">
        <ele>620</ele>
        <time>2019-03-22T09:16:35Z</time>
      </trkpt>
      <trkpt lat="46.61661" lon="5.83866">
        <ele>617</ele>
        <time>2019-03-22T09:17:35Z</time>
      </trkpt>
      <trkpt lat="46.61659" lon="5.83911">
        <ele>615</ele>
        <time>2019-03-22T09:18:35Z</time>
      </trkpt>
      <trkpt lat="46.61658" lon="5.83929">
        <ele>613</ele>
        <time>2019-03-22T09:19:35Z</time>
      </trkpt>
      <trkpt lat="46.61656" lon="5.83941">
        <ele>610</ele>
        <time>2019-03-22T09:20:35Z</time>
      </trkpt>
      <trkpt lat="46.61653" lon="5.83956">
        <ele>607</ele>
        <time>2019-03-22T09:21:35Z</time>
      </trkpt>
      <trkpt lat="46.61655" lon="5.83968">
        <ele>607</ele>
        <time>2019-03-22T09:22:35Z</time>
      </trkpt>
      <trkpt lat="46.61654" lon="5.83982">
        <ele>606</ele>
        <time>2019-03-22T09:23:35Z</time>
      </trkpt>
      <trkpt lat="46.61652" lon="5.83996">
        <ele>603</ele>
        <time>2019-03-22T09:24:35Z</time>
      </trkpt>
      <trkpt lat="46.61654" lon="5.8401">
        <ele>603</ele>
        <time>2019-03-22T09:25:35Z</time>
      </trkpt>
      <trkpt lat="46.6166" lon="5.84031">
        <ele>606</ele>
        <time>2019-03-22T09:26:35Z</time>
      </trkpt>
      <trkpt lat="46.6166" lon="5.84048">
        <ele>605</ele>
        <time>2019-03-22T09:27:35Z</time>
      </trkpt>
      <trkpt lat="46.61658" lon="5.8406">
        <ele>603</ele>
        <time>2019-03-22T09:28:35Z</time>
      </trkpt>
      <trkpt lat="46.61662" lon="5.84077">
        <ele>605</ele>
        <time>2019-03-22T09:29:35Z</time>
      </trkpt>
      <trkpt lat="46.61663" lon="5.84091">
        <ele>605</ele>
        <time>2019-03-22T09:30:35Z</time>
      </trkpt>
      <trkpt lat="46.61655" lon="5.84121">
        <ele>597</ele>
        <time>2019-03-22T09:31:35Z</time>
      </trkpt>
      <trkpt lat="46.61651" lon="5.84142">
        <ele>592</ele>
        <time>2019-03-22T09:32:35Z</time>
      </trkpt>
      <trkpt lat="46.61653" lon="5.84172">
        <ele>592</ele>
        <time>2019-03-22T09:33:35Z</time>
      </trkpt>
      <trkpt lat="46.61651" lon="5.842">
        <ele>590</ele>
        <time>2019-03-22T09:34:35Z</time>
      </trkpt>
      <trkpt lat="46.61648" lon="5.84212">
        <ele>587</ele>
        <time>2019-03-22T09:35:35Z</time>
      </trkpt>
      <trkpt lat="46.61651" lon="5.84226">
        <ele>589</ele>
        <time>2019-03-22T09:36:35Z</time>
      </trkpt>
      <trkpt lat="46.61658" lon="5.84234">
        <ele>593</ele>
        <time>2019-03-22T09:37:35Z</time>
      </trkpt>
      <trkpt lat="46.61657" lon="5.84248">
        <ele>592</ele>
        <time>2019-03-22T09:38:35Z</time>
      </trkpt>
      <trkpt lat="46.61656" lon="5.84261">
        <ele>591</ele>
        <time>2019-03-22T09:39:35Z</time>
      </trkpt>
      <trkpt lat="46.61652" lon="5.84272">
        <ele>588</ele>
        <time>2019-03-22T09:40:35Z</time>
      </trkpt>
      <trkpt lat="46.61649" lon="5.84302">
        <ele>585</ele>
        <time>2019-03-22T09:41:35Z</time>
      </trkpt>
      <trkpt lat="46.61653" lon="5.8432">
        <ele>587</ele>
        <time>2019-03-22T09:42:35Z</time>
      </trkpt>
      <trkpt lat="46.61655" lon="5.84334">
        <ele>588</ele>
        <time>2019-03-22T09:43:35Z</time>
      </trkpt>
      <trkpt lat="46.61653" lon="5.84346">
        <ele>588</ele>
        <time>2019-03-22T09:44:35Z</time>
      </trkpt>
      <trkpt lat="46.61645" lon="5.8436">
        <ele>583</ele>
        <time>2019-03-22T09:45:35Z</time>
      </trkpt>
      <trkpt lat="46.61645" lon="5.84373">
        <ele>584</ele>
        <time>2019-03-22T09:46:35Z</time>
      </trkpt>
      <trkpt lat="46.61645" lon="5.844">
        <ele>585</ele>
        <time>2019-03-22T09:47:35Z</time>
      </trkpt>
      <trkpt lat="46.61636" lon="5.84429">
        <ele>579</ele>
        <time>2019-03-22T09:48:35Z</time>
      </trkpt>
      <trkpt lat="46.61628" lon="5.84478">
        <ele>576</ele>
        <time>2019-03-22T09:49:35Z</time>
      </trkpt>
      <trkpt lat="46.61621" lon="5.84502">
        <ele>572</ele>
        <time>2019-03-22T09:50:35Z</time>
      </trkpt>
      <trkpt lat="46.61619" lon="5.84517">
        <ele>573</ele>
        <time>2019-03-22T09:51:35Z</time>
      </trkpt>
      <trkpt lat="46.61611" lon="5.84526">
        <ele>569</ele>
        <time>2019-03-22T09:52:35Z</time>
      </trkpt>
      <trkpt lat="46.61607" lon="5.84565">
        <ele>571</ele>
        <time>2019-03-22T09:53:35Z</time>
      </trkpt>
      <trkpt lat="46.61585" lon="5.84602">
        <ele>561</ele>
        <time>2019-03-22T09:54:35Z</time>
      </trkpt>
      <trkpt lat="46.61584" lon="5.84616">
        <ele>563</ele>
        <time>2019-03-22T09:55:35Z</time>
      </trkpt>
      <trkpt lat="46.6158" lon="5.84627">
        <ele>563</ele>
        <time>2019-03-22T09:56:35Z</time>
      </trkpt>
      <trkpt lat="46.61563" lon="5.8465">
        <ele>558</ele>
        <time>2019-03-22T09:57:35Z</time>
      </trkpt>
      <trkpt lat="46.61558" lon="5.84662">
        <ele>557</ele>
        <time>2019-03-22T09:58:35Z</time>
      </trkpt>
      <trkpt lat="46.61551" lon="5.84671">
        <ele>555</ele>
        <time>2019-03-22T09:59:35Z</time>
      </trkpt>
      <trkpt lat="46.61548" lon="5.84685">
        <ele>555</ele>
        <time>2019-03-22T10:00:35Z</time>
      </trkpt>
      <trkpt lat="46.61548" lon="5.847">
        <ele>558</ele>
        <time>2019-03-22T10:01:35Z</time>
      </trkpt>
      <trkpt lat="46.61539" lon="5.84704">
        <ele>553</ele>
        <time>2019-03-22T10:02:35Z</time>
      </trkpt>
      <trkpt lat="46.61532" lon="5.84718">
        <ele>552</ele>
        <time>2019-03-22T10:03:35Z</time>
      </trkpt>
      <trkpt lat="46.61524" lon="5.84727">
        <ele>548</ele>
        <time>2019-03-22T10:04:35Z</time>
      </trkpt>
      <trkpt lat="46.6151" lon="5.84746">
        <ele>543</ele>
        <time>2019-03-22T10:05:35Z</time>
      </trkpt>
      <trkpt lat="46.61503" lon="5.84756">
        <ele>541</ele>
        <time>2019-03-22T10:06:35Z</time>
      </trkpt>
      <trkpt lat="46.61496" lon="5.84766">
        <ele>541</ele>
        <time>2019-03-22T10:07:35Z</time>
      </trkpt>
      <trkpt lat="46.6148" lon="5.84803">
        <ele>544</ele>
        <time>2019-03-22T10:08:35Z</time>
      </trkpt>
      <trkpt lat="46.61475" lon="5.84814">
        <ele>544</ele>
        <time>2019-03-22T10:09:35Z</time>
      </trkpt>
      <trkpt lat="46.61456" lon="5.8482">
        <ele>539</ele>
        <time>2019-03-22T10:10:35Z</time>
      </trkpt>
      <trkpt lat="46.61446" lon="5.84817">
        <ele>535</ele>
        <time>2019-03-22T10:11:35Z</time>
      </trkpt>
      <trkpt lat="46.61437" lon="5.84827">
        <ele>533</ele>
        <time>2019-03-22T10:12:35Z</time>
      </trkpt>
      <trkpt lat="46.61432" lon="5.84836">
        <ele>532</ele>
        <time>2019-03-22T10:13:35Z</time>
      </trkpt>
      <trkpt lat="46.61408" lon="5.84858">
        <ele>532</ele>
        <time>2019-03-22T10:14:35Z</time>
      </trkpt>
      <trkpt lat="46.61404" lon="5.84886">
        <ele>537</ele>
        <time>2019-03-22T10:15:35Z</time>
      </trkpt>
      <trkpt lat="46.61401" lon="5.84898">
        <ele>539</ele>
        <time>2019-03-22T10:16:35Z</time>
      </trkpt>
      <trkpt lat="46.61396" lon="5.84911">
        <ele>541</ele>
        <time>2019-03-22T10:17:35Z</time>
      </trkpt>
      <trkpt lat="46.61385" lon="5.84914">
        <ele>540</ele>
        <time>2019-03-22T10:18:35Z</time>
      </trkpt>
      <trkpt lat="46.61371" lon="5.84921">
        <ele>540</ele>
        <time>2019-03-22T10:19:35Z</time>
      </trkpt>
      <trkpt lat="46.61367" lon="5.84934">
        <ele>541</ele>
        <time>2019-03-22T10:20:35Z</time>
      </trkpt>
      <trkpt lat="46.61363" lon="5.84947">
        <ele>541</ele>
        <time>2019-03-22T10:21:35Z</time>
      </trkpt>
      <trkpt lat="46.61361" lon="5.8496">
        <ele>542</ele>
        <time>2019-03-22T10:22:35Z</time>
      </trkpt>
      <trkpt lat="46.61359" lon="5.84975">
        <ele>542</ele>
        <time>2019-03-22T10:23:35Z</time>
      </trkpt>
      <trkpt lat="46.61354" lon="5.84986">
        <ele>542</ele>
        <time>2019-03-22T10:24:35Z</time>
      </trkpt>
      <trkpt lat="46.61344" lon="5.85025">
        <ele>540</ele>
        <time>2019-03-22T10:25:35Z</time>
      </trkpt>
      <trkpt lat="46.6134" lon="5.85039">
        <ele>539</ele>
        <time>2019-03-22T10:26:35Z</time>
      </trkpt>
      <trkpt lat="46.61334" lon="5.85047">
        <ele>537</ele>
        <time>2019-03-22T10:27:35Z</time>
      </trkpt>
      <trkpt lat="46.61325" lon="5.85044">
        <ele>542</ele>
        <time>2019-03-22T10:28:35Z</time>
      </trkpt>
      <trkpt lat="46.6132" lon="5.85057">
        <ele>546</ele>
        <time>2019-03-22T10:29:35Z</time>
      </trkpt>
      <trkpt lat="46.61326" lon="5.85068">
        <ele>542</ele>
        <time>2019-03-22T10:30:35Z</time>
      </trkpt>
      <trkpt lat="46.61328" lon="5.85089">
        <ele>542</ele>
        <time>2019-03-22T10:31:35Z</time>
      </trkpt>
      <trkpt lat="46.61323" lon="5.85122">
        <ele>548</ele>
        <time>2019-03-22T10:32:35Z</time>
      </trkpt>
      <trkpt lat="46.61327" lon="5.85134">
        <ele>546</ele>
        <time>2019-03-22T10:33:35Z</time>
      </trkpt>
      <trkpt lat="46.61348" lon="5.85189">
        <ele>553</ele>
        <time>2019-03-22T10:34:35Z</time>
      </trkpt>
      <trkpt lat="46.61349" lon="5.85204">
        <ele>555</ele>
        <time>2019-03-22T10:35:35Z</time>
      </trkpt>
      <trkpt lat="46.61353" lon="5.85216">
        <ele>557</ele>
        <time>2019-03-22T10:36:35Z</time>
      </trkpt>
      <trkpt lat="46.61358" lon="5.85229">
        <ele>559</ele>
        <time>2019-03-22T10:37:35Z</time>
      </trkpt>
      <trkpt lat="46.61365" lon="5.85239">
        <ele>561</ele>
        <time>2019-03-22T10:38:35Z</time>
      </trkpt>
      <trkpt lat="46.6137" lon="5.85249">
        <ele>562</ele>
        <time>2019-03-22T10:39:35Z</time>
      </trkpt>
      <trkpt lat="46.61379" lon="5.85254">
        <ele>565</ele>
        <time>2019-03-22T10:40:35Z</time>
      </trkpt>
      <trkpt lat="46.61379" lon="5.85272">
        <ele>566</ele>
        <time>2019-03-22T10:41:35Z</time>
      </trkpt>
      <trkpt lat="46.61377" lon="5.85284">
        <ele>567</ele>
        <time>2019-03-22T10:42:35Z</time>
      </trkpt>
      <trkpt lat="46.61384" lon="5.85299">
        <ele>568</ele>
        <time>2019-03-22T10:43:35Z</time>
      </trkpt>
      <trkpt lat="46.61385" lon="5.85319">
        <ele>570</ele>
        <time>2019-03-22T10:44:35Z</time>
      </trkpt>
      <trkpt lat="46.61387" lon="5.85332">
        <ele>570</ele>
        <time>2019-03-22T10:45:35Z</time>
      </trkpt>
      <trkpt lat="46.6139" lon="5.85347">
        <ele>573</ele>
        <time>2019-03-22T10:46:35Z</time>
      </trkpt>
      <trkpt lat="46.61392" lon="5.85364">
        <ele>577</ele>
        <time>2019-03-22T10:47:35Z</time>
      </trkpt>
      <trkpt lat="46.61392" lon="5.85376">
        <ele>579</ele>
        <time>2019-03-22T10:48:35Z</time>
      </trkpt>
      <trkpt lat="46.61388" lon="5.85391">
        <ele>583</ele>
        <time>2019-03-22T10:49:35Z</time>
      </trkpt>
      <trkpt lat="46.61392" lon="5.85404">
        <ele>585</ele>
        <time>2019-03-22T10:50:35Z</time>
      </trkpt>
      <trkpt lat="46.6139" lon="5.85423">
        <ele>589</ele>
        <time>2019-03-22T10:51:35Z</time>
      </trkpt>
      <trkpt lat="46.6139" lon="5.85437">
        <ele>593</ele>
        <time>2019-03-22T10:52:35Z</time>
      </trkpt>
      <trkpt lat="46.61399" lon="5.8544">
        <ele>592</ele>
        <time>2019-03-22T10:53:35Z</time>
      </trkpt>
      <trkpt lat="46.6141" lon="5.85447">
        <ele>590</ele>
        <time>2019-03-22T10:54:35Z</time>
      </trkpt>
      <trkpt lat="46.61395" lon="5.8546">
        <ele>598</ele>
        <time>2019-03-22T10:55:35Z</time>
      </trkpt>
      <trkpt lat="46.61396" lon="5.85476">
        <ele>602</ele>
        <time>2019-03-22T10:56:35Z</time>
      </trkpt>
      <trkpt lat="46.61411" lon="5.85465">
        <ele>595</ele>
        <time>2019-03-22T10:57:35Z</time>
      </trkpt>
      <trkpt lat="46.61408" lon="5.85452">
        <ele>592</ele>
        <time>2019-03-22T10:58:35Z</time>
      </trkpt>
      <trkpt lat="46.61416" lon="5.85443">
        <ele>588</ele>
        <time>2019-03-22T10:59:35Z</time>
      </trkpt>
      <trkpt lat="46.61424" lon="5.85431">
        <ele>590</ele>
        <time>2019-03-22T11:00:35Z</time>
      </trkpt>
      <trkpt lat="46.61434" lon="5.85429">
        <ele>597</ele>
        <time>2019-03-22T11:01:35Z</time>
      </trkpt>
      <trkpt lat="46.61442" lon="5.85419">
        <ele>602</ele>
        <time>2019-03-22T11:02:35Z</time>
      </trkpt>
      <trkpt lat="46.6145" lon="5.85411">
        <ele>607</ele>
        <time>2019-03-22T11:03:35Z</time>
      </trkpt>
      <trkpt lat="46.61456" lon="5.85402">
        <ele>611</ele>
        <time>2019-03-22T11:04:35Z</time>
      </trkpt>
      <trkpt lat="46.61453" lon="5.85411">
        <ele>609</ele>
        <time>2019-03-22T11:05:35Z</time>
      </trkpt>
      <trkpt lat="46.61451" lon="5.85428">
        <ele>610</ele>
        <time>2019-03-22T11:06:35Z</time>
      </trkpt>
      <trkpt lat="46.61445" lon="5.85448">
        <ele>610</ele>
        <time>2019-03-22T11:07:35Z</time>
      </trkpt>
      <trkpt lat="46.61435" lon="5.8551">
        <ele>615</ele>
        <time>2019-03-22T11:08:35Z</time>
      </trkpt>
      <trkpt lat="46.6143" lon="5.85528">
        <ele>615</ele>
        <time>2019-03-22T11:09:35Z</time>
      </trkpt>
      <trkpt lat="46.61422" lon="5.85537">
        <ele>612</ele>
        <time>2019-03-22T11:10:35Z</time>
      </trkpt>
      <trkpt lat="46.61408" lon="5.85533">
        <ele>610</ele>
        <time>2019-03-22T11:11:35Z</time>
      </trkpt>
      <trkpt lat="46.61403" lon="5.85522">
        <ele>610</ele>
        <time>2019-03-22T11:12:35Z</time>
      </trkpt>
      <trkpt lat="46.61391" lon="5.85533">
        <ele>616</ele>
        <time>2019-03-22T11:13:35Z</time>
      </trkpt>
      <trkpt lat="46.61384" lon="5.85546">
        <ele>621</ele>
        <time>2019-03-22T11:14:35Z</time>
      </trkpt>
      <trkpt lat="46.61393" lon="5.85549">
        <ele>618</ele>
        <time>2019-03-22T11:15:35Z</time>
      </trkpt>
      <trkpt lat="46.61395" lon="5.85563">
        <ele>620</ele>
        <time>2019-03-22T11:16:35Z</time>
      </trkpt>
      <trkpt lat="46.61395" lon="5.85579">
        <ele>623</ele>
        <time>2019-03-22T11:17:35Z</time>
      </trkpt>
      <trkpt lat="46.61387" lon="5.85587">
        <ele>627</ele>
        <time>2019-03-22T11:18:35Z</time>
      </trkpt>
      <trkpt lat="46.61383" lon="5.85599">
        <ele>631</ele>
        <time>2019-03-22T11:19:35Z</time>
      </trkpt>
      <trkpt lat="46.61385" lon="5.85613">
        <ele>634</ele>
        <time>2019-03-22T11:20:35Z</time>
      </trkpt>
      <trkpt lat="46.614" lon="5.85613">
        <ele>628</ele>
        <time>2019-03-22T11:21:35Z</time>
      </trkpt>
      <trkpt lat="46.61392" lon="5.85597">
        <ele>628</ele>
        <time>2019-03-22T11:22:35Z</time>
      </trkpt>
      <trkpt lat="46.61378" lon="5.85561">
        <ele>625</ele>
        <time>2019-03-22T11:23:35Z</time>
      </trkpt>
      <trkpt lat="46.61375" lon="5.8555">
        <ele>624</ele>
        <time>2019-03-22T11:24:35Z</time>
      </trkpt>
      <trkpt lat="46.61376" lon="5.85528">
        <ele>620</ele>
        <time>2019-03-22T11:25:35Z</time>
      </trkpt>
      <trkpt lat="46.61372" lon="5.85514">
        <ele>619</ele>
        <time>2019-03-22T11:26:35Z</time>
      </trkpt>
      <trkpt lat="46.61367" lon="5.85462">
        <ele>607</ele>
        <time>2019-03-22T11:27:35Z</time>
      </trkpt>
      <trkpt lat="46.61363" lon="5.85447">
        <ele>603</ele>
        <time>2019-03-22T11:28:35Z</time>
      </trkpt>
      <trkpt lat="46.61361" lon="5.85435">
        <ele>600</ele>
        <time>2019-03-22T11:29:35Z</time>
      </trkpt>
      <trkpt lat="46.61354" lon="5.8546">
        <ele>610</ele>
        <time>2019-03-22T11:30:35Z</time>
      </trkpt>
      <trkpt lat="46.61354" lon="5.85475">
        <ele>614</ele>
        <time>2019-03-22T11:31:35Z</time>
      </trkpt>
      <trkpt lat="46.61355" lon="5.85503">
        <ele>622</ele>
        <time>2019-03-22T11:32:35Z</time>
      </trkpt>
      <trkpt lat="46.61351" lon="5.85527">
        <ele>628</ele>
        <time>2019-03-22T11:33:35Z</time>
      </trkpt>
      <trkpt lat="46.61358" lon="5.85539">
        <ele>628</ele>
        <time>2019-03-22T11:34:35Z</time>
      </trkpt>
      <trkpt lat="46.61356" lon="5.85564">
        <ele>633</ele>
        <time>2019-03-22T11:35:35Z</time>
      </trkpt>
      <trkpt lat="46.61361" lon="5.85576">
        <ele>634</ele>
        <time>2019-03-22T11:36:35Z</time>
      </trkpt>
      <trkpt lat="46.6137" lon="5.85591">
        <ele>634</ele>
        <time>2019-03-22T11:37:35Z</time>
      </trkpt>
      <trkpt lat="46.61384" lon="5.85607">
        <ele>633</ele>
        <time>2019-03-22T11:38:35Z</time>
      </trkpt>
      <trkpt lat="46.61384" lon="5.85622">
        <ele>636</ele>
        <time>2019-03-22T11:39:35Z</time>
      </trkpt>
      <trkpt lat="46.6138" lon="5.85634">
        <ele>640</ele>
        <time>2019-03-22T11:40:35Z</time>
      </trkpt>
      <trkpt lat="46.61374" lon="5.85645">
        <ele>645</ele>
        <time>2019-03-22T11:41:35Z</time>
      </trkpt>
      <trkpt lat="46.61384" lon="5.8565">
        <ele>643</ele>
        <time>2019-03-22T11:42:35Z</time>
      </trkpt>
      <trkpt lat="46.61377" lon="5.85669">
        <ele>650</ele>
        <time>2019-03-22T11:43:35Z</time>
      </trkpt>
      <trkpt lat="46.61368" lon="5.85677">
        <ele>655</ele>
        <time>2019-03-22T11:44:35Z</time>
      </trkpt>
      <trkpt lat="46.61377" lon="5.85683">
        <ele>652</ele>
        <time>2019-03-22T11:45:35Z</time>
      </trkpt>
      <trkpt lat="46.6138" lon="5.85701">
        <ele>653</ele>
        <time>2019-03-22T11:46:35Z</time>
      </trkpt>
      <trkpt lat="46.61372" lon="5.85712">
        <ele>659</ele>
        <time>2019-03-22T11:47:35Z</time>
      </trkpt>
      <trkpt lat="46.61366" lon="5.8573">
        <ele>665</ele>
        <time>2019-03-22T11:48:35Z</time>
      </trkpt>
      <trkpt lat="46.61356" lon="5.85732">
        <ele>670</ele>
        <time>2019-03-22T11:49:35Z</time>
      </trkpt>
      <trkpt lat="46.61364" lon="5.85764">
        <ele>672</ele>
        <time>2019-03-22T11:50:35Z</time>
      </trkpt>
      <trkpt lat="46.61378" lon="5.8577">
        <ele>665</ele>
        <time>2019-03-22T11:51:35Z</time>
      </trkpt>
      <trkpt lat="46.61373" lon="5.85786">
        <ele>671</ele>
        <time>2019-03-22T11:52:35Z</time>
      </trkpt>
      <trkpt lat="46.61366" lon="5.85795">
        <ele>676</ele>
        <time>2019-03-22T11:53:35Z</time>
      </trkpt>
      <trkpt lat="46.6137" lon="5.85811">
        <ele>677</ele>
        <time>2019-03-22T11:54:35Z</time>
      </trkpt>
      <trkpt lat="46.61367" lon="5.85822">
        <ele>681</ele>
        <time>2019-03-22T11:55:35Z</time>
      </trkpt>
      <trkpt lat="46.61357" lon="5.85829">
        <ele>688</ele>
        <time>2019-03-22T11:56:35Z</time>
      </trkpt>
      <trkpt lat="46.61349" lon="5.85843">
        <ele>697</ele>
        <time>2019-03-22T11:57:35Z</time>
      </trkpt>
      <trkpt lat="46.61359" lon="5.85849">
        <ele>692</ele>
        <time>2019-03-22T11:58:35Z</time>
      </trkpt>
      <trkpt lat="46.61367" lon="5.85847">
        <ele>687</ele>
        <time>2019-03-22T11:59:35Z</time>
      </trkpt>
      <trkpt lat="46.61365" lon="5.85863">
        <ele>692</ele>
        <time>2019-03-22T12:00:35Z</time>
      </trkpt>
      <trkpt lat="46.61369" lon="5.8588">
        <ele>694</ele>
        <time>2019-03-22T12:01:35Z</time>
      </trkpt>
      <trkpt lat="46.61374" lon="5.85894">
        <ele>695</ele>
        <time>2019-03-22T12:02:35Z</time>
      </trkpt>
      <trkpt lat="46.61384" lon="5.85893">
        <ele>689</ele>
        <time>2019-03-22T12:03:35Z</time>
      </trkpt>
      <trkpt lat="46.61394" lon="5.85915">
        <ele>690</ele>
        <time>2019-03-22T12:04:35Z</time>
      </trkpt>
      <trkpt lat="46.61393" lon="5.85905">
        <ele>687</ele>
        <time>2019-03-22T12:05:35Z</time>
      </trkpt>
      <trkpt lat="46.61389" lon="5.8589">
        <ele>685</ele>
        <time>2019-03-22T12:06:35Z</time>
      </trkpt>
      <trkpt lat="46.61384" lon="5.85875">
        <ele>684</ele>
        <time>2019-03-22T12:07:35Z</time>
      </trkpt>
      <trkpt lat="46.61373" lon="5.85872">
        <ele>690</ele>
        <time>2019-03-22T12:08:35Z</time>
      </trkpt>
      <trkpt lat="46.61364" lon="5.85876">
        <ele>696</ele>
        <time>2019-03-22T12:09:35Z</time>
      </trkpt>
      <trkpt lat="46.61368" lon="5.8589">
        <ele>697</ele>
        <time>2019-03-22T12:10:35Z</time>
      </trkpt>
      <trkpt lat="46.61369" lon="5.85908">
        <ele>701</ele>
        <time>2019-03-22T12:11:35Z</time>
      </trkpt>
      <trkpt lat="46.61379" lon="5.85923">
        <ele>700</ele>
        <time>2019-03-22T12:12:35Z</time>
      </trkpt>
      <trkpt lat="46.61387" lon="5.85929">
        <ele>697</ele>
        <time>2019-03-22T12:13:35Z</time>
      </trkpt>
      <trkpt lat="46.61392" lon="5.8594">
        <ele>697</ele>
        <time>2019-03-22T12:14:35Z</time>
      </trkpt>
      <trkpt lat="46.61401" lon="5.85948">
        <ele>694</ele>
        <time>2019-03-22T12:15:35Z</time>
      </trkpt>
      <trkpt lat="46.61403" lon="5.85963">
        <ele>697</ele>
        <time>2019-03-22T12:16:35Z</time>
      </trkpt>
      <trkpt lat="46.61401" lon="5.85976">
        <ele>702</ele>
        <time>2019-03-22T12:17:35Z</time>
      </trkpt>
      <trkpt lat="46.61412" lon="5.85971">
        <ele>695</ele>
        <time>2019-03-22T12:18:35Z</time>
      </trkpt>
      <trkpt lat="46.61419" lon="5.85983">
        <ele>695</ele>
        <time>2019-03-22T12:19:35Z</time>
      </trkpt>
      <trkpt lat="46.61416" lon="5.85997">
        <ele>700</ele>
        <time>2019-03-22T12:20:35Z</time>
      </trkpt>
      <trkpt lat="46.61424" lon="5.86024">
        <ele>707</ele>
        <time>2019-03-22T12:21:35Z</time>
      </trkpt>
      <trkpt lat="46.61427" lon="5.86042">
        <ele>711</ele>
        <time>2019-03-22T12:22:35Z</time>
      </trkpt>
      <trkpt lat="46.61448" lon="5.86047">
        <ele>709</ele>
        <time>2019-03-22T12:23:35Z</time>
      </trkpt>
      <trkpt lat="46.61452" lon="5.8606">
        <ele>711</ele>
        <time>2019-03-22T12:24:35Z</time>
      </trkpt>
      <trkpt lat="46.61463" lon="5.86068">
        <ele>711</ele>
        <time>2019-03-22T12:25:35Z</time>
      </trkpt>
      <trkpt lat="46.61472" lon="5.86067">
        <ele>709</ele>
        <time>2019-03-22T12:26:35Z</time>
      </trkpt>
      <trkpt lat="46.61481" lon="5.8607">
        <ele>707</ele>
        <time>2019-03-22T12:27:35Z</time>
      </trkpt>
      <trkpt lat="46.6147" lon="5.86093">
        <ele>713</ele>
        <time>2019-03-22T12:28:35Z</time>
      </trkpt>
      <trkpt lat="46.61476" lon="5.86103">
        <ele>712</ele>
        <time>2019-03-22T12:29:35Z</time>
      </trkpt>
      <trkpt lat="46.61471" lon="5.86127">
        <ele>714</ele>
        <time>2019-03-22T12:30:35Z</time>
      </trkpt>
      <trkpt lat="46.61473" lon="5.86139">
        <ele>714</ele>
        <time>2019-03-22T12:31:35Z</time>
      </trkpt>
      <trkpt lat="46.61483" lon="5.86151">
        <ele>711</ele>
        <time>2019-03-22T12:32:35Z</time>
      </trkpt>
      <trkpt lat="46.6149" lon="5.86166">
        <ele>708</ele>
        <time>2019-03-22T12:33:35Z</time>
      </trkpt>
      <trkpt lat="46.61485" lon="5.86178">
        <ele>711</ele>
        <time>2019-03-22T12:34:35Z</time>
      </trkpt>
      <trkpt lat="46.61485" lon="5.86192">
        <ele>711</ele>
        <time>2019-03-22T12:35:35Z</time>
      </trkpt>
      <trkpt lat="46.61481" lon="5.86209">
        <ele>714</ele>
        <time>2019-03-22T12:36:35Z</time>
      </trkpt>
      <trkpt lat="46.61492" lon="5.86219">
        <ele>710</ele>
        <time>2019-03-22T12:37:35Z</time>
      </trkpt>
      <trkpt lat="46.61504" lon="5.86251">
        <ele>709</ele>
        <time>2019-03-22T12:38:35Z</time>
      </trkpt>
      <trkpt lat="46.61514" lon="5.86256">
        <ele>711</ele>
        <time>2019-03-22T12:39:35Z</time>
      </trkpt>
      <trkpt lat="46.61524" lon="5.86275">
        <ele>712</ele>
        <time>2019-03-22T12:40:35Z</time>
      </trkpt>
      <trkpt lat="46.61529" lon="5.86296">
        <ele>714</ele>
        <time>2019-03-22T12:41:35Z</time>
      </trkpt>
      <trkpt lat="46.61525" lon="5.8631">
        <ele>714</ele>
        <time>2019-03-22T12:42:35Z</time>
      </trkpt>
      <trkpt lat="46.61536" lon="5.86312">
        <ele>714</ele>
        <time>2019-03-22T12:43:35Z</time>
      </trkpt>
      <trkpt lat="46.61539" lon="5.86326">
        <ele>715</ele>
        <time>2019-03-22T12:44:35Z</time>
      </trkpt>
      <trkpt lat="46.61534" lon="5.86338">
        <ele>715</ele>
        <time>2019-03-22T12:45:35Z</time>
      </trkpt>
      <trkpt lat="46.61532" lon="5.86349">
        <ele>714</ele>
        <time>2019-03-22T12:46:35Z</time>
      </trkpt>
      <trkpt lat="46.61521" lon="5.86357">
        <ele>713</ele>
        <time>2019-03-22T12:47:35Z</time>
      </trkpt>
      <trkpt lat="46.61514" lon="5.86368">
        <ele>712</ele>
        <time>2019-03-22T12:48:35Z</time>
      </trkpt>
      <trkpt lat="46.61507" lon="5.86389">
        <ele>711</ele>
        <time>2019-03-22T12:49:35Z</time>
      </trkpt>
      <trkpt lat="46.6152" lon="5.86415">
        <ele>710</ele>
        <time>2019-03-22T12:50:35Z</time>
      </trkpt>
      <trkpt lat="46.61508" lon="5.86418">
        <ele>709</ele>
        <time>2019-03-22T12:51:35Z</time>
      </trkpt>
      <trkpt lat="46.61508" lon="5.86439">
        <ele>709</ele>
        <time>2019-03-22T12:52:35Z</time>
      </trkpt>
      <trkpt lat="46.61507" lon="5.86453">
        <ele>709</ele>
        <time>2019-03-22T12:53:35Z</time>
      </trkpt>
      <trkpt lat="46.61499" lon="5.86466">
        <ele>709</ele>
        <time>2019-03-22T12:54:35Z</time>
      </trkpt>
      <trkpt lat="46.6149" lon="5.86481">
        <ele>712</ele>
        <time>2019-03-22T12:55:35Z</time>
      </trkpt>
      <trkpt lat="46.6149" lon="5.86494">
        <ele>712</ele>
        <time>2019-03-22T12:56:35Z</time>
      </trkpt>
      <trkpt lat="46.61498" lon="5.8651">
        <ele>709</ele>
        <time>2019-03-22T12:57:35Z</time>
      </trkpt>
      <trkpt lat="46.61497" lon="5.86524">
        <ele>709</ele>
        <time>2019-03-22T12:58:35Z</time>
      </trkpt>
      <trkpt lat="46.61497" lon="5.86538">
        <ele>709</ele>
        <time>2019-03-22T12:59:35Z</time>
      </trkpt>
      <trkpt lat="46.61501" lon="5.86553">
        <ele>708</ele>
        <time>2019-03-22T13:00:35Z</time>
      </trkpt>
      <trkpt lat="46.61503" lon="5.86569">
        <ele>708</ele>
        <time>2019-03-22T13:01:35Z</time>
      </trkpt>
      <trkpt lat="46.61498" lon="5.8658">
        <ele>709</ele>
        <time>2019-03-22T13:02:35Z</time>
      </trkpt>
      <trkpt lat="46.61495" lon="5.86595">
        <ele>709</ele>
        <time>2019-03-22T13:03:35Z</time>
      </trkpt>
      <trkpt lat="46.61494" lon="5.86621">
        <ele>708</ele>
        <time>2019-03-22T13:04:35Z</time>
      </trkpt>
      <trkpt lat="46.61502" lon="5.86629">
        <ele>706</ele>
        <time>2019-03-22T13:05:35Z</time>
      </trkpt>
      <trkpt lat="46.61489" lon="5.8665">
        <ele>708</ele>
        <time>2019-03-22T13:06:35Z</time>
      </trkpt>
      <trkpt lat="46.61494" lon="5.86662">
        <ele>706</ele>
        <time>2019-03-22T13:07:35Z</time>
      </trkpt>
      <trkpt lat="46.6149" lon="5.8667">
        <ele>707</ele>
        <time>2019-03-22T13:08:35Z</time>
      </trkpt>
      <trkpt lat="46.61472" lon="5.86673">
        <ele>712</ele>
        <time>2019-03-22T13:09:35Z</time>
      </trkpt>
      <trkpt lat="46.61456" lon="5.86682">
        <ele>716</ele>
        <time>2019-03-22T13:10:35Z</time>
      </trkpt>
      <trkpt lat="46.61449" lon="5.86694">
        <ele>717</ele>
        <time>2019-03-22T13:11:35Z</time>
      </trkpt>
      <trkpt lat="46.61443" lon="5.86706">
        <ele>718</ele>
        <time>2019-03-22T13:12:35Z</time>
      </trkpt>
      <trkpt lat="46.61439" lon="5.86717">
        <ele>719</ele>
        <time>2019-03-22T13:13:35Z</time>
      </trkpt>
      <trkpt lat="46.61438" lon="5.86736">
        <ele>718</ele>
        <time>2019-03-22T13:14:35Z</time>
      </trkpt>
      <trkpt lat="46.61426" lon="5.86757">
        <ele>720</ele>
        <time>2019-03-22T13:15:35Z</time>
      </trkpt>
      <trkpt lat="46.61433" lon="5.8677">
        <ele>717</ele>
        <time>2019-03-22T13:16:35Z</time>
      </trkpt>
      <trkpt lat="46.61418" lon="5.86773">
        <ele>720</ele>
        <time>2019-03-22T13:17:35Z</time>
      </trkpt>
      <trkpt lat="46.61413" lon="5.86791">
        <ele>719</ele>
        <time>2019-03-22T13:18:35Z</time>
      </trkpt>
      <trkpt lat="46.61411" lon="5.86804">
        <ele>718</ele>
        <time>2019-03-22T13:19:35Z</time>
      </trkpt>
      <trkpt lat="46.61411" lon="5.86818">
        <ele>717</ele>
        <time>2019-03-22T13:20:35Z</time>
      </trkpt>
      <trkpt lat="46.61409" lon="5.86832">
        <ele>716</ele>
        <time>2019-03-22T13:21:35Z</time>
      </trkpt>
      <trkpt lat="46.61405" lon="5.86848">
        <ele>716</ele>
        <time>2019-03-22T13:22:35Z</time>
      </trkpt>
      <trkpt lat="46.61407" lon="5.86866">
        <ele>715</ele>
        <time>2019-03-22T13:23:35Z</time>
      </trkpt>
      <trkpt lat="46.61404" lon="5.86873">
        <ele>715</ele>
        <time>2019-03-22T13:24:35Z</time>
      </trkpt>
      <trkpt lat="46.61402" lon="5.8688">
        <ele>715</ele>
        <time>2019-03-22T13:25:35Z</time>
      </trkpt>
      <trkpt lat="46.61395" lon="5.8688">
        <ele>717</ele>
        <time>2019-03-22T13:26:35Z</time>
      </trkpt>
      <trkpt lat="46.6139" lon="5.8688">
        <ele>717</ele>
        <time>2019-03-22T13:27:35Z</time>
      </trkpt>
      <trkpt lat="46.61386" lon="5.86876">
        <ele>718</ele>
        <time>2019-03-22T13:28:35Z</time>
      </trkpt>
      <trkpt lat="46.6138" lon="5.86879">
        <ele>719</ele>
        <time>2019-03-22T13:29:35Z</time>
      </trkpt>
      <trkpt lat="46.61377" lon="5.86887">
        <ele>719</ele>
        <time>2019-03-22T13:30:35Z</time>
      </trkpt>
      <trkpt lat="46.61373" lon="5.86892">
        <ele>720</ele>
        <time>2019-03-22T13:31:35Z</time>
      </trkpt>
      <trkpt lat="46.6137" lon="5.86895">
        <ele>720</ele>
        <time>2019-03-22T13:32:35Z</time>
      </trkpt>
      <trkpt lat="46.61366" lon="5.86898">
        <ele>720</ele>
        <time>2019-03-22T13:33:35Z</time>
      </trkpt>
      <trkpt lat="46.61362" lon="5.86906">
        <ele>721</ele>
        <time>2019-03-22T13:34:35Z</time>
      </trkpt>
      <trkpt lat="46.61351" lon="5.86916">
        <ele>722</ele>
        <time>2019-03-22T13:35:35Z</time>
      </trkpt>
      <trkpt lat="46.61346" lon="5.86928">
        <ele>722</ele>
        <time>2019-03-22T13:36:35Z</time>
      </trkpt>
      <trkpt lat="46.6135" lon="5.86941">
        <ele>722</ele>
        <time>2019-03-22T13:37:35Z</time>
      </trkpt>
      <trkpt lat="46.61348" lon="5.86955">
        <ele>722</ele>
        <time>2019-03-22T13:38:35Z</time>
      </trkpt>
      <trkpt lat="46.61338" lon="5.86996">
        <ele>724</ele>
        <time>2019-03-22T13:39:35Z</time>
      </trkpt>
      <trkpt lat="46.61331" lon="5.87003">
        <ele>724</ele>
        <time>2019-03-22T13:40:35Z</time>
      </trkpt>
      <trkpt lat="46.61333" lon="5.87016">
        <ele>724</ele>
        <time>2019-03-22T13:41:35Z</time>
      </trkpt>
      <trkpt lat="46.61337" lon="5.8703">
        <ele>724</ele>
        <time>2019-03-22T13:42:35Z</time>
      </trkpt>
      <trkpt lat="46.6134" lon="5.8706">
        <ele>724</ele>
        <time>2019-03-22T13:43:35Z</time>
      </trkpt>
      <trkpt lat="46.61336" lon="5.87071">
        <ele>725</ele>
        <time>2019-03-22T13:44:35Z</time>
      </trkpt>
      <trkpt lat="46.61331" lon="5.87113">
        <ele>725</ele>
        <time>2019-03-22T13:45:35Z</time>
      </trkpt>
      <trkpt lat="46.6133" lon="5.87127">
        <ele>724</ele>
        <time>2019-03-22T13:46:35Z</time>
      </trkpt>
      <trkpt lat="46.6133" lon="5.87156">
        <ele>724</ele>
        <time>2019-03-22T13:47:35Z</time>
      </trkpt>
      <trkpt lat="46.61327" lon="5.87192">
        <ele>724</ele>
        <time>2019-03-22T13:48:35Z</time>
      </trkpt>
      <trkpt lat="46.61324" lon="5.87206">
        <ele>725</ele>
        <time>2019-03-22T13:49:35Z</time>
      </trkpt>
      <trkpt lat="46.61322" lon="5.8722">
        <ele>726</ele>
        <time>2019-03-22T13:50:35Z</time>
      </trkpt>
      <trkpt lat="46.61327" lon="5.87232">
        <ele>725</ele>
        <time>2019-03-22T13:51:35Z</time>
      </trkpt>
      <trkpt lat="46.61334" lon="5.87257">
        <ele>724</ele>
        <time>2019-03-22T13:52:35Z</time>
      </trkpt>
      <trkpt lat="46.61339" lon="5.87267">
        <ele>725</ele>
        <time>2019-03-22T13:53:35Z</time>
      </trkpt>
      <trkpt lat="46.61343" lon="5.8731">
        <ele>727</ele>
        <time>2019-03-22T13:54:35Z</time>
      </trkpt>
      <trkpt lat="46.61348" lon="5.87331">
        <ele>728</ele>
        <time>2019-03-22T13:55:35Z</time>
      </trkpt>
      <trkpt lat="46.61351" lon="5.87344">
        <ele>729</ele>
        <time>2019-03-22T13:56:35Z</time>
      </trkpt>
      <trkpt lat="46.61365" lon="5.87365">
        <ele>728</ele>
        <time>2019-03-22T13:57:35Z</time>
      </trkpt>
      <trkpt lat="46.6137" lon="5.87377">
        <ele>728</ele>
        <time>2019-03-22T13:58:35Z</time>
      </trkpt>
      <trkpt lat="46.61375" lon="5.874">
        <ele>728</ele>
        <time>2019-03-22T13:59:35Z</time>
      </trkpt>
      <trkpt lat="46.61366" lon="5.87411">
        <ele>729</ele>
        <time>2019-03-22T14:00:35Z</time>
      </trkpt>
      <trkpt lat="46.61352" lon="5.87426">
        <ele>728</ele>
        <time>2019-03-22T14:01:35Z</time>
      </trkpt>
      <trkpt lat="46.61348" lon="5.87446">
        <ele>728</ele>
        <time>2019-03-22T14:02:35Z</time>
      </trkpt>
      <trkpt lat="46.61345" lon="5.87452">
        <ele>727</ele>
        <time>2019-03-22T14:03:35Z</time>
      </trkpt>
      <trkpt lat="46.61342" lon="5.87464">
        <ele>727</ele>
        <time>2019-03-22T14:04:35Z</time>
      </trkpt>
      <trkpt lat="46.61338" lon="5.8747">
        <ele>727</ele>
        <time>2019-03-22T14:05:35Z</time>
      </trkpt>
      <trkpt lat="46.61334" lon="5.87474">
        <ele>726</ele>
        <time>2019-03-22T14:06:35Z</time>
      </trkpt>
      <trkpt lat="46.61324" lon="5.87482">
        <ele>728</ele>
        <time>2019-03-22T14:07:35Z</time>
      </trkpt>
      <trkpt lat="46.61308" lon="5.87492">
        <ele>732</ele>
        <time>2019-03-22T14:08:35Z</time>
      </trkpt>
      <trkpt lat="46.61305" lon="5.87498">
        <ele>733</ele>
        <time>2019-03-22T14:09:35Z</time>
      </trkpt>
      <trkpt lat="46.61305" lon="5.87505">
        <ele>733</ele>
        <time>2019-03-22T14:10:35Z</time>
      </trkpt>
      <trkpt lat="46.61298" lon="5.87518">
        <ele>735</ele>
        <time>2019-03-22T14:11:35Z</time>
      </trkpt>
      <trkpt lat="46.61293" lon="5.87529">
        <ele>736</ele>
        <time>2019-03-22T14:12:35Z</time>
      </trkpt>
      <trkpt lat="46.61284" lon="5.87536">
        <ele>738</ele>
        <time>2019-03-22T14:13:35Z</time>
      </trkpt>
      <trkpt lat="46.61278" lon="5.87545">
        <ele>739</ele>
        <time>2019-03-22T14:14:35Z</time>
      </trkpt>
      <trkpt lat="46.61275" lon="5.87559">
        <ele>740</ele>
        <time>2019-03-22T14:15:35Z</time>
      </trkpt>
      <trkpt lat="46.61275" lon="5.87572">
        <ele>739</ele>
        <time>2019-03-22T14:16:35Z</time>
      </trkpt>
      <trkpt lat="46.61268" lon="5.87598">
        <ele>740</ele>
        <time>2019-03-22T14:17:35Z</time>
      </trkpt>
      <trkpt lat="46.61267" lon="5.87612">
        <ele>740</ele>
        <time>2019-03-22T14:18:35Z</time>
      </trkpt>
      <trkpt lat="46.61269" lon="5.87626">
        <ele>739</ele>
        <time>2019-03-22T14:19:35Z</time>
      </trkpt>
      <trkpt lat="46.61269" lon="5.87639">
        <ele>739</ele>
        <time>2019-03-22T14:20:35Z</time>
      </trkpt>
      <trkpt lat="46.61265" lon="5.87651">
        <ele>739</ele>
        <time>2019-03-22T14:21:35Z</time>
      </trkpt>
      <trkpt lat="46.61258" lon="5.8767">
        <ele>738</ele>
        <time>2019-03-22T14:22:35Z</time>
      </trkpt>
      <trkpt lat="46.61259" lon="5.87684">
        <ele>738</ele>
        <time>2019-03-22T14:23:35Z</time>
      </trkpt>
      <trkpt lat="46.61256" lon="5.87697">
        <ele>737</ele>
        <time>2019-03-22T14:24:35Z</time>
      </trkpt>
      <trkpt lat="46.61255" lon="5.87711">
        <ele>737</ele>
        <time>2019-03-22T14:25:35Z</time>
      </trkpt>
      <trkpt lat="46.61247" lon="5.8772">
        <ele>737</ele>
        <time>2019-03-22T14:26:35Z</time>
      </trkpt>
      <trkpt lat="46.61232" lon="5.87734">
        <ele>740</ele>
        <time>2019-03-22T14:27:35Z</time>
      </trkpt>
      <trkpt lat="46.61226" lon="5.87746">
        <ele>741</ele>
        <time>2019-03-22T14:28:35Z</time>
      </trkpt>
      <trkpt lat="46.61223" lon="5.8776">
        <ele>741</ele>
        <time>2019-03-22T14:29:35Z</time>
      </trkpt>
      <trkpt lat="46.61217" lon="5.87769">
        <ele>742</ele>
        <time>2019-03-22T14:30:35Z</time>
      </trkpt>
      <trkpt lat="46.61213" lon="5.87792">
        <ele>741</ele>
        <time>2019-03-22T14:31:35Z</time>
      </trkpt>
      <trkpt lat="46.6121" lon="5.87805">
        <ele>740</ele>
        <time>2019-03-22T14:32:35Z</time>
      </trkpt>
      <trkpt lat="46.61208" lon="5.87819">
        <ele>740</ele>
        <time>2019-03-22T14:33:35Z</time>
      </trkpt>
      <trkpt lat="46.61198" lon="5.87843">
        <ele>740</ele>
        <time>2019-03-22T14:34:35Z</time>
      </trkpt>
      <trkpt lat="46.61198" lon="5.87857">
        <ele>738</ele>
        <time>2019-03-22T14:35:35Z</time>
      </trkpt>
      <trkpt lat="46.61193" lon="5.87869">
        <ele>738</ele>
        <time>2019-03-22T14:36:35Z</time>
      </trkpt>
      <trkpt lat="46.61188" lon="5.87883">
        <ele>737</ele>
        <time>2019-03-22T14:37:35Z</time>
      </trkpt>
      <trkpt lat="46.61188" lon="5.87896">
        <ele>736</ele>
        <time>2019-03-22T14:38:35Z</time>
      </trkpt>
      <trkpt lat="46.61173" lon="5.87922">
        <ele>736</ele>
        <time>2019-03-22T14:39:35Z</time>
      </trkpt>
      <trkpt lat="46.61169" lon="5.87937">
        <ele>735</ele>
        <time>2019-03-22T14:40:35Z</time>
      </trkpt>
      <trkpt lat="46.61165" lon="5.87944">
        <ele>735</ele>
        <time>2019-03-22T14:41:35Z</time>
      </trkpt>
      <trkpt lat="46.61162" lon="5.8795">
        <ele>735</ele>
        <time>2019-03-22T14:42:35Z</time>
      </trkpt>
      <trkpt lat="46.6116" lon="5.87956">
        <ele>735</ele>
        <time>2019-03-22T14:43:35Z</time>
      </trkpt>
      <trkpt lat="46.61153" lon="5.87966">
        <ele>735</ele>
        <time>2019-03-22T14:44:35Z</time>
      </trkpt>
      <trkpt lat="46.61147" lon="5.87969">
        <ele>736</ele>
        <time>2019-03-22T14:45:35Z</time>
      </trkpt>
      <trkpt lat="46.61137" lon="5.87976">
        <ele>738</ele>
        <time>2019-03-22T14:46:35Z</time>
      </trkpt>
      <trkpt lat="46.61128" lon="5.87982">
        <ele>739</ele>
        <time>2019-03-22T14:47:35Z</time>
      </trkpt>
      <trkpt lat="46.61125" lon="5.87988">
        <ele>739</ele>
        <time>2019-03-22T14:48:35Z</time>
      </trkpt>
      <trkpt lat="46.61119" lon="5.88001">
        <ele>739</ele>
        <time>2019-03-22T14:49:35Z</time>
      </trkpt>
      <trkpt lat="46.61114" lon="5.88005">
        <ele>740</ele>
        <time>2019-03-22T14:50:35Z</time>
      </trkpt>
      <trkpt lat="46.61103" lon="5.88026">
        <ele>741</ele>
        <time>2019-03-22T14:51:35Z</time>
      </trkpt>
      <trkpt lat="46.61102" lon="5.88035">
        <ele>740</ele>
        <time>2019-03-22T14:52:35Z</time>
      </trkpt>
      <trkpt lat="46.61095" lon="5.88047">
        <ele>741</ele>
        <time>2019-03-22T14:53:35Z</time>
      </trkpt>
      <trkpt lat="46.61088" lon="5.88056">
        <ele>741</ele>
        <time>2019-03-22T14:54:35Z</time>
      </trkpt>
      <trkpt lat="46.61081" lon="5.88068">
        <ele>742</ele>
        <time>2019-03-22T14:55:35Z</time>
      </trkpt>
      <trkpt lat="46.61078" lon="5.88082">
        <ele>741</ele>
        <time>2019-03-22T14:56:35Z</time>
      </trkpt>
      <trkpt lat="46.61073" lon="5.88094">
        <ele>742</ele>
        <time>2019-03-22T14:57:35Z</time>
      </trkpt>
      <trkpt lat="46.61082" lon="5.88097">
        <ele>740</ele>
        <time>2019-03-22T14:58:35Z</time>
      </trkpt>
      <trkpt lat="46.61076" lon="5.88109">
        <ele>742</ele>
        <time>2019-03-22T14:59:35Z</time>
      </trkpt>
      <trkpt lat="46.61076" lon="5.88122">
        <ele>742</ele>
        <time>2019-03-22T15:00:35Z</time>
      </trkpt>
      <trkpt lat="46.61078" lon="5.88129">
        <ele>741</ele>
        <time>2019-03-22T15:01:35Z</time>
      </trkpt>
      <trkpt lat="46.6108" lon="5.88135">
        <ele>741</ele>
        <time>2019-03-22T15:02:35Z</time>
      </trkpt>
      <trkpt lat="46.61091" lon="5.88153">
        <ele>740</ele>
        <time>2019-03-22T15:03:35Z</time>
      </trkpt>
      <trkpt lat="46.61094" lon="5.8816">
        <ele>739</ele>
        <time>2019-03-22T15:04:35Z</time>
      </trkpt>
      <trkpt lat="46.61101" lon="5.8817">
        <ele>739</ele>
        <time>2019-03-22T15:05:35Z</time>
      </trkpt>
      <trkpt lat="46.61107" lon="5.88181">
        <ele>738</ele>
        <time>2019-03-22T15:06:35Z</time>
      </trkpt>
      <trkpt lat="46.61112" lon="5.88188">
        <ele>738</ele>
        <time>2019-03-22T15:07:35Z</time>
      </trkpt>
      <trkpt lat="46.61121" lon="5.88197">
        <ele>737</ele>
        <time>2019-03-22T15:08:35Z</time>
      </trkpt>
      <trkpt lat="46.61129" lon="5.88208">
        <ele>736</ele>
        <time>2019-03-22T15:09:35Z</time>
      </trkpt>
      <trkpt lat="46.61134" lon="5.88211">
        <ele>736</ele>
        <time>2019-03-22T15:10:35Z</time>
      </trkpt>
      <trkpt lat="46.61138" lon="5.88216">
        <ele>735</ele>
        <time>2019-03-22T15:11:35Z</time>
      </trkpt>
      <trkpt lat="46.61147" lon="5.88228">
        <ele>734</ele>
        <time>2019-03-22T15:12:35Z</time>
      </trkpt>
      <trkpt lat="46.61157" lon="5.88251">
        <ele>734</ele>
        <time>2019-03-22T15:13:35Z</time>
      </trkpt>
      <trkpt lat="46.6116" lon="5.88257">
        <ele>734</ele>
        <time>2019-03-22T15:14:35Z</time>
      </trkpt>
      <trkpt lat="46.61161" lon="5.88264">
        <ele>735</ele>
        <time>2019-03-22T15:15:35Z</time>
      </trkpt>
      <trkpt lat="46.61162" lon="5.88277">
        <ele>736</ele>
        <time>2019-03-22T15:16:35Z</time>
      </trkpt>
      <trkpt lat="46.61163" lon="5.88292">
        <ele>737</ele>
        <time>2019-03-22T15:17:35Z</time>
      </trkpt>
      <trkpt lat="46.61163" lon="5.88302">
        <ele>738</ele>
        <time>2019-03-22T15:18:35Z</time>
      </trkpt>
      <trkpt lat="46.61162" lon="5.88309">
        <ele>739</ele>
        <time>2019-03-22T15:19:35Z</time>
      </trkpt>
      <trkpt lat="46.61156" lon="5.88325">
        <ele>743</ele>
        <time>2019-03-22T15:20:35Z</time>
      </trkpt>
      <trkpt lat="46.61155" lon="5.88332">
        <ele>744</ele>
        <time>2019-03-22T15:21:35Z</time>
      </trkpt>
      <trkpt lat="46.61158" lon="5.88337">
        <ele>744</ele>
        <time>2019-03-22T15:22:35Z</time>
      </trkpt>
      <trkpt lat="46.61163" lon="5.8834">
        <ele>743</ele>
        <time>2019-03-22T15:23:35Z</time>
      </trkpt>
      <trkpt lat="46.61168" lon="5.88344">
        <ele>743</ele>
        <time>2019-03-22T15:24:35Z</time>
      </trkpt>
      <trkpt lat="46.61172" lon="5.88353">
        <ele>745</ele>
        <time>2019-03-22T15:25:35Z</time>
      </trkpt>
      <trkpt lat="46.61173" lon="5.88363">
        <ele>748</ele>
        <time>2019-03-22T15:26:35Z</time>
      </trkpt>
      <trkpt lat="46.61177" lon="5.88366">
        <ele>748</ele>
        <time>2019-03-22T15:27:35Z</time>
      </trkpt>
      <trkpt lat="46.61185" lon="5.88363">
        <ele>747</ele>
        <time>2019-03-22T15:28:35Z</time>
      </trkpt>
      <trkpt lat="46.61187" lon="5.88351">
        <ele>744</ele>
        <time>2019-03-22T15:29:35Z</time>
      </trkpt>
      <trkpt lat="46.61198" lon="5.88356">
        <ele>745</ele>
        <time>2019-03-22T15:30:35Z</time>
      </trkpt>
      <trkpt lat="46.61202" lon="5.88341">
        <ele>742</ele>
        <time>2019-03-22T15:31:35Z</time>
      </trkpt>
      <trkpt lat="46.61204" lon="5.88335">
        <ele>740</ele>
        <time>2019-03-22T15:32:35Z</time>
      </trkpt>
      <trkpt lat="46.61207" lon="5.88327">
        <ele>739</ele>
        <time>2019-03-22T15:33:35Z</time>
      </trkpt>
      <trkpt lat="46.61208" lon="5.88319">
        <ele>738</ele>
        <time>2019-03-22T15:34:35Z</time>
      </trkpt>
      <trkpt lat="46.61205" lon="5.88331">
        <ele>740</ele>
        <time>2019-03-22T15:35:35Z</time>
      </trkpt>
      <trkpt lat="46.61202" lon="5.88336">
        <ele>741</ele>
        <time>2019-03-22T15:36:35Z</time>
      </trkpt>
      <trkpt lat="46.612" lon="5.88347">
        <ele>743</ele>
        <time>2019-03-22T15:37:35Z</time>
      </trkpt>
      <trkpt lat="46.61202" lon="5.88354">
        <ele>745</ele>
        <time>2019-03-22T15:38:35Z</time>
      </trkpt>
      <trkpt lat="46.61206" lon="5.88357">
        <ele>745</ele>
        <time>2019-03-22T15:39:35Z</time>
      </trkpt>
      <trkpt lat="46.61211" lon="5.8836">
        <ele>746</ele>
        <time>2019-03-22T15:40:35Z</time>
      </trkpt>
      <trkpt lat="46.61219" lon="5.88368">
        <ele>747</ele>
        <time>2019-03-22T15:41:35Z</time>
      </trkpt>
      <trkpt lat="46.61223" lon="5.88372">
        <ele>748</ele>
        <time>2019-03-22T15:42:35Z</time>
      </trkpt>
      <trkpt lat="46.61227" lon="5.88374">
        <ele>748</ele>
        <time>2019-03-22T15:43:35Z</time>
      </trkpt>
      <trkpt lat="46.61238" lon="5.8838">
        <ele>749</ele>
        <time>2019-03-22T15:44:35Z</time>
      </trkpt>
      <trkpt lat="46.61248" lon="5.88382">
        <ele>750</ele>
        <time>2019-03-22T15:45:35Z</time>
      </trkpt>
      <trkpt lat="46.61255" lon="5.88384">
        <ele>750</ele>
        <time>2019-03-22T15:46:35Z</time>
      </trkpt>
      <trkpt lat="46.61264" lon="5.88381">
        <ele>748</ele>
        <time>2019-03-22T15:47:35Z</time>
      </trkpt>
      <trkpt lat="46.61284" lon="5.88368">
        <ele>745</ele>
        <time>2019-03-22T15:48:35Z</time>
      </trkpt>
      <trkpt lat="46.61293" lon="5.88367">
        <ele>744</ele>
        <time>2019-03-22T15:49:35Z</time>
      </trkpt>
      <trkpt lat="46.61318" lon="5.88356">
        <ele>742</ele>
        <time>2019-03-22T15:50:35Z</time>
      </trkpt>
      <trkpt lat="46.61336" lon="5.88352">
        <ele>741</ele>
        <time>2019-03-22T15:51:35Z</time>
      </trkpt>
      <trkpt lat="46.61353" lon="5.88338">
        <ele>740</ele>
        <time>2019-03-22T15:52:35Z</time>
      </trkpt>
      <trkpt lat="46.61358" lon="5.88335">
        <ele>740</ele>
        <time>2019-03-22T15:53:35Z</time>
      </trkpt>
      <trkpt lat="46.61363" lon="5.8833">
        <ele>740</ele>
        <time>2019-03-22T15:54:35Z</time>
      </trkpt>
      <trkpt lat="46.61362" lon="5.88324">
        <ele>740</ele>
        <time>2019-03-22T15:55:35Z</time>
      </trkpt>
      <trkpt lat="46.61368" lon="5.88321">
        <ele>741</ele>
        <time>2019-03-22T15:56:35Z</time>
      </trkpt>
      <trkpt lat="46.61375" lon="5.88316">
        <ele>741</ele>
        <time>2019-03-22T15:57:35Z</time>
      </trkpt>
      <trkpt lat="46.61379" lon="5.88311">
        <ele>741</ele>
        <time>2019-03-22T15:58:35Z</time>
      </trkpt>
      <trkpt lat="46.61387" lon="5.88298">
        <ele>742</ele>
        <time>2019-03-22T15:59:35Z</time>
      </trkpt>
      <trkpt lat="46.61394" lon="5.88291">
        <ele>743</ele>
        <time>2019-03-22T16:00:35Z</time>
      </trkpt>
      <trkpt lat="46.61399" lon="5.88291">
        <ele>743</ele>
        <time>2019-03-22T16:01:35Z</time>
      </trkpt>
      <trkpt lat="46.61407" lon="5.88287">
        <ele>744</ele>
        <time>2019-03-22T16:02:35Z</time>
      </trkpt>
      <trkpt lat="46.61412" lon="5.88286">
        <ele>745</ele>
        <time>2019-03-22T16:03:35Z</time>
      </trkpt>
      <trkpt lat="46.61416" lon="5.88284">
        <ele>745</ele>
        <time>2019-03-22T16:04:35Z</time>
      </trkpt>
      <trkpt lat="46.61421" lon="5.88282">
        <ele>746</ele>
        <time>2019-03-22T16:05:35Z</time>
      </trkpt>
      <trkpt lat="46.61426" lon="5.88278">
        <ele>746</ele>
        <time>2019-03-22T16:06:35Z</time>
      </trkpt>
      <trkpt lat="46.61432" lon="5.88274">
        <ele>747</ele>
        <time>2019-03-22T16:07:35Z</time>
      </trkpt>
      <trkpt lat="46.6145" lon="5.88263">
        <ele>749</ele>
        <time>2019-03-22T16:08:35Z</time>
      </trkpt>
      <trkpt lat="46.61457" lon="5.8826">
        <ele>749</ele>
        <time>2019-03-22T16:09:35Z</time>
      </trkpt>
      <trkpt lat="46.61461" lon="5.88256">
        <ele>750</ele>
        <time>2019-03-22T16:10:35Z</time>
      </trkpt>
      <trkpt lat="46.61494" lon="5.88236">
        <ele>753</ele>
        <time>2019-03-22T16:11:35Z</time>
      </trkpt>
      <trkpt lat="46.61503" lon="5.8823">
        <ele>754</ele>
        <time>2019-03-22T16:12:35Z</time>
      </trkpt>
      <trkpt lat="46.61507" lon="5.88225">
        <ele>755</ele>
        <time>2019-03-22T16:13:35Z</time>
      </trkpt>
      <trkpt lat="46.61517" lon="5.88219">
        <ele>755</ele>
        <time>2019-03-22T16:14:35Z</time>
      </trkpt>
      <trkpt lat="46.61521" lon="5.88215">
        <ele>756</ele>
        <time>2019-03-22T16:15:35Z</time>
      </trkpt>
      <trkpt lat="46.61531" lon="5.88211">
        <ele>756</ele>
        <time>2019-03-22T16:16:35Z</time>
      </trkpt>
      <trkpt lat="46.61536" lon="5.88208">
        <ele>757</ele>
        <time>2019-03-22T16:17:35Z</time>
      </trkpt>
      <trkpt lat="46.6154" lon="5.88204">
        <ele>757</ele>
        <time>2019-03-22T16:18:35Z</time>
      </trkpt>
      <trkpt lat="46.61544" lon="5.88198">
        <ele>758</ele>
        <time>2019-03-22T16:19:35Z</time>
      </trkpt>
      <trkpt lat="46.61554" lon="5.88194">
        <ele>758</ele>
        <time>2019-03-22T16:20:35Z</time>
      </trkpt>
      <trkpt lat="46.61563" lon="5.88193">
        <ele>759</ele>
        <time>2019-03-22T16:21:35Z</time>
      </trkpt>
      <trkpt lat="46.61568" lon="5.88191">
        <ele>759</ele>
        <time>2019-03-22T16:22:35Z</time>
      </trkpt>
      <trkpt lat="46.61573" lon="5.88188">
        <ele>759</ele>
        <time>2019-03-22T16:23:35Z</time>
      </trkpt>
      <trkpt lat="46.61578" lon="5.88187">
        <ele>760</ele>
        <time>2019-03-22T16:24:35Z</time>
      </trkpt>
      <trkpt lat="46.61582" lon="5.88185">
        <ele>760</ele>
        <time>2019-03-22T16:25:35Z</time>
      </trkpt>
      <trkpt lat="46.61595" lon="5.88176">
        <ele>761</ele>
        <time>2019-03-22T16:26:35Z</time>
      </trkpt>
      <trkpt lat="46.61599" lon="5.88173">
        <ele>761</ele>
        <time>2019-03-22T16:27:35Z</time>
      </trkpt>
      <trkpt lat="46.61609" lon="5.88169">
        <ele>762</ele>
        <time>2019-03-22T16:28:35Z</time>
      </trkpt>
      <trkpt lat="46.61614" lon="5.88167">
        <ele>762</ele>
        <time>2019-03-22T16:29:35Z</time>
      </trkpt>
      <trkpt lat="46.61654" lon="5.88169">
        <ele>764</ele>
        <time>2019-03-22T16:30:35Z</time>
      </trkpt>
      <trkpt lat="46.61658" lon="5.88169">
        <ele>765</ele>
        <time>2019-03-22T16:31:35Z</time>
      </trkpt>
      <trkpt lat="46.61673" lon="5.88169">
        <ele>765</ele>
        <time>2019-03-22T16:32:35Z</time>
      </trkpt>
      <trkpt lat="46.6168" lon="5.88173">
        <ele>765</ele>
        <time>2019-03-22T16:33:35Z</time>
      </trkpt>
      <trkpt lat="46.6169" lon="5.88174">
        <ele>766</ele>
        <time>2019-03-22T16:34:35Z</time>
      </trkpt>
      <trkpt lat="46.61696" lon="5.88173">
        <ele>766</ele>
        <time>2019-03-22T16:35:35Z</time>
      </trkpt>
      <trkpt lat="46.61714" lon="5.88181">
        <ele>766</ele>
        <time>2019-03-22T16:36:35Z</time>
      </trkpt>
      <trkpt lat="46.6172" lon="5.88181">
        <ele>767</ele>
        <time>2019-03-22T16:37:35Z</time>
      </trkpt>
      <trkpt lat="46.61734" lon="5.88189">
        <ele>767</ele>
        <time>2019-03-22T16:38:35Z</time>
      </trkpt>
      <trkpt lat="46.61753" lon="5.88198">
        <ele>767</ele>
        <time>2019-03-22T16:39:35Z</time>
      </trkpt>
      <trkpt lat="46.61758" lon="5.882">
        <ele>768</ele>
        <time>2019-03-22T16:40:35Z</time>
      </trkpt>
      <trkpt lat="46.61768" lon="5.88203">
        <ele>768</ele>
        <time>2019-03-22T16:41:35Z</time>
      </trkpt>
      <trkpt lat="46.61773" lon="5.88205">
        <ele>769</ele>
        <time>2019-03-22T16:42:35Z</time>
      </trkpt>
      <trkpt lat="46.61781" lon="5.88207">
        <ele>769</ele>
        <time>2019-03-22T16:43:35Z</time>
      </trkpt>
      <trkpt lat="46.61786" lon="5.88206">
        <ele>769</ele>
        <time>2019-03-22T16:44:35Z</time>
      </trkpt>
      <trkpt lat="46.61792" lon="5.8821">
        <ele>770</ele>
        <time>2019-03-22T16:45:35Z</time>
      </trkpt>
      <trkpt lat="46.61792" lon="5.88206">
        <ele>770</ele>
        <time>2019-03-22T16:46:35Z</time>
      </trkpt>
      <trkpt lat="46.61803" lon="5.88207">
        <ele>771</ele>
        <time>2019-03-22T16:47:35Z</time>
      </trkpt>
      <trkpt lat="46.61808" lon="5.88202">
        <ele>771</ele>
        <time>2019-03-22T16:48:35Z</time>
      </trkpt>
      <trkpt lat="46.61824" lon="5.88175">
        <ele>772</ele>
        <time>2019-03-22T16:49:35Z</time>
      </trkpt>
      <trkpt lat="46.61831" lon="5.88171">
        <ele>773</ele>
        <time>2019-03-22T16:50:35Z</time>
      </trkpt>
      <trkpt lat="46.61848" lon="5.88173">
        <ele>773</ele>
        <time>2019-03-22T16:51:35Z</time>
      </trkpt>
      <trkpt lat="46.61859" lon="5.88172">
        <ele>774</ele>
        <time>2019-03-22T16:52:35Z</time>
      </trkpt>
      <trkpt lat="46.61863" lon="5.8817">
        <ele>774</ele>
        <time>2019-03-22T16:53:35Z</time>
      </trkpt>
      <trkpt lat="46.61878" lon="5.88162">
        <ele>774</ele>
        <time>2019-03-22T16:54:35Z</time>
      </trkpt>
      <trkpt lat="46.61887" lon="5.88155">
        <ele>775</ele>
        <time>2019-03-22T16:55:35Z</time>
      </trkpt>
      <trkpt lat="46.61896" lon="5.8816">
        <ele>775</ele>
        <time>2019-03-22T16:56:35Z</time>
      </trkpt>
      <trkpt lat="46.61905" lon="5.88169">
        <ele>775</ele>
        <time>2019-03-22T16:57:35Z</time>
      </trkpt>
      <trkpt lat="46.61906" lon="5.88177">
        <ele>775</ele>
        <time>2019-03-22T16:58:35Z</time>
      </trkpt>
      <trkpt lat="46.61906" lon="5.88192">
        <ele>776</ele>
        <time>2019-03-22T16:59:35Z</time>
      </trkpt>
      <trkpt lat="46.61905" lon="5.88206">
        <ele>776</ele>
        <time>2019-03-22T17:00:35Z</time>
      </trkpt>
      <trkpt lat="46.61904" lon="5.88212">
        <ele>776</ele>
        <time>2019-03-22T17:01:35Z</time>
      </trkpt>
      <trkpt lat="46.61904" lon="5.88219">
        <ele>776</ele>
        <time>2019-03-22T17:02:35Z</time>
      </trkpt>
      <trkpt lat="46.61903" lon="5.88226">
        <ele>776</ele>
        <time>2019-03-22T17:03:35Z</time>
      </trkpt>
      <trkpt lat="46.61898" lon="5.88236">
        <ele>776</ele>
        <time>2019-03-22T17:04:35Z</time>
      </trkpt>
      <trkpt lat="46.61895" lon="5.88255">
        <ele>777</ele>
        <time>2019-03-22T17:05:35Z</time>
      </trkpt>
      <trkpt lat="46.61895" lon="5.88262">
        <ele>778</ele>
        <time>2019-03-22T17:06:35Z</time>
      </trkpt>
      <trkpt lat="46.61887" lon="5.88289">
        <ele>782</ele>
        <time>2019-03-22T17:07:35Z</time>
      </trkpt>
      <trkpt lat="46.61885" lon="5.88295">
        <ele>783</ele>
        <time>2019-03-22T17:08:35Z</time>
      </trkpt>
      <trkpt lat="46.61869" lon="5.88323">
        <ele>785</ele>
        <time>2019-03-22T17:09:35Z</time>
      </trkpt>
      <trkpt lat="46.61859" lon="5.88342">
        <ele>786</ele>
        <time>2019-03-22T17:10:35Z</time>
      </trkpt>
      <trkpt lat="46.61847" lon="5.88358">
        <ele>785</ele>
        <time>2019-03-22T17:11:35Z</time>
      </trkpt>
      <trkpt lat="46.61836" lon="5.88371">
        <ele>785</ele>
        <time>2019-03-22T17:12:35Z</time>
      </trkpt>
      <trkpt lat="46.61825" lon="5.88378">
        <ele>785</ele>
        <time>2019-03-22T17:13:35Z</time>
      </trkpt>
      <trkpt lat="46.6182" lon="5.8838">
        <ele>784</ele>
        <time>2019-03-22T17:14:35Z</time>
      </trkpt>
      <trkpt lat="46.61816" lon="5.88386">
        <ele>784</ele>
        <time>2019-03-22T17:15:35Z</time>
      </trkpt>
      <trkpt lat="46.61814" lon="5.88391">
        <ele>785</ele>
        <time>2019-03-22T17:16:35Z</time>
      </trkpt>
      <trkpt lat="46.61813" lon="5.88406">
        <ele>786</ele>
        <time>2019-03-22T17:17:35Z</time>
      </trkpt>
      <trkpt lat="46.61814" lon="5.88412">
        <ele>786</ele>
        <time>2019-03-22T17:18:35Z</time>
      </trkpt>
      <trkpt lat="46.61813" lon="5.88432">
        <ele>787</ele>
        <time>2019-03-22T17:19:35Z</time>
      </trkpt>
      <trkpt lat="46.61813" lon="5.88449">
        <ele>787</ele>
        <time>2019-03-22T17:20:35Z</time>
      </trkpt>
      <trkpt lat="46.61811" lon="5.88455">
        <ele>786</ele>
        <time>2019-03-22T17:21:35Z</time>
      </trkpt>
      <trkpt lat="46.6181" lon="5.88461">
        <ele>786</ele>
        <time>2019-03-22T17:22:35Z</time>
      </trkpt>
      <trkpt lat="46.61809" lon="5.88468">
        <ele>786</ele>
        <time>2019-03-22T17:23:35Z</time>
      </trkpt>
      <trkpt lat="46.61808" lon="5.88476">
        <ele>786</ele>
        <time>2019-03-22T17:24:35Z</time>
      </trkpt>
      <trkpt lat="46.61809" lon="5.88498">
        <ele>786</ele>
        <time>2019-03-22T17:25:35Z</time>
      </trkpt>
      <trkpt lat="46.61809" lon="5.88505">
        <ele>786</ele>
        <time>2019-03-22T17:26:35Z</time>
      </trkpt>
      <trkpt lat="46.61807" lon="5.88512">
        <ele>786</ele>
        <time>2019-03-22T17:27:35Z</time>
      </trkpt>
      <trkpt lat="46.61806" lon="5.88519">
        <ele>786</ele>
        <time>2019-03-22T17:28:35Z</time>
      </trkpt>
      <trkpt lat="46.61807" lon="5.88534">
        <ele>785</ele>
        <time>2019-03-22T17:29:35Z</time>
      </trkpt>
      <trkpt lat="46.61813" lon="5.88554">
        <ele>785</ele>
        <time>2019-03-22T17:30:35Z</time>
      </trkpt>
      <trkpt lat="46.61814" lon="5.88564">
        <ele>785</ele>
        <time>2019-03-22T17:31:35Z</time>
      </trkpt>
      <trkpt lat="46.61813" lon="5.8857">
        <ele>785</ele>
        <time>2019-03-22T17:32:35Z</time>
      </trkpt>
      <trkpt lat="46.61811" lon="5.88576">
        <ele>784</ele>
        <time>2019-03-22T17:33:35Z</time>
      </trkpt>
      <trkpt lat="46.61809" lon="5.88591">
        <ele>784</ele>
        <time>2019-03-22T17:34:35Z</time>
      </trkpt>
      <trkpt lat="46.61807" lon="5.88605">
        <ele>783</ele>
        <time>2019-03-22T17:35:35Z</time>
      </trkpt>
      <trkpt lat="46.61809" lon="5.88619">
        <ele>782</ele>
        <time>2019-03-22T17:36:35Z</time>
      </trkpt>
      <trkpt lat="46.61811" lon="5.88625">
        <ele>782</ele>
        <time>2019-03-22T17:37:35Z</time>
      </trkpt>
      <trkpt lat="46.61813" lon="5.88632">
        <ele>782</ele>
        <time>2019-03-22T17:38:35Z</time>
      </trkpt>
      <trkpt lat="46.6182" lon="5.88643">
        <ele>781</ele>
        <time>2019-03-22T17:39:35Z</time>
      </trkpt>
      <trkpt lat="46.61824" lon="5.88655">
        <ele>781</ele>
        <time>2019-03-22T17:40:35Z</time>
      </trkpt>
      <trkpt lat="46.61826" lon="5.88662">
        <ele>780</ele>
        <time>2019-03-22T17:41:35Z</time>
      </trkpt>
      <trkpt lat="46.61827" lon="5.88668">
        <ele>780</ele>
        <time>2019-03-22T17:42:35Z</time>
      </trkpt>
      <trkpt lat="46.61827" lon="5.88675">
        <ele>780</ele>
        <time>2019-03-22T17:43:35Z</time>
      </trkpt>
      <trkpt lat="46.61829" lon="5.88689">
        <ele>779</ele>
        <time>2019-03-22T17:44:35Z</time>
      </trkpt>
      <trkpt lat="46.61831" lon="5.88696">
        <ele>779</ele>
        <time>2019-03-22T17:45:35Z</time>
      </trkpt>
      <trkpt lat="46.61835" lon="5.88701">
        <ele>779</ele>
        <time>2019-03-22T17:46:35Z</time>
      </trkpt>
      <trkpt lat="46.61838" lon="5.88716">
        <ele>778</ele>
        <time>2019-03-22T17:47:35Z</time>
      </trkpt>
      <trkpt lat="46.6184" lon="5.8873">
        <ele>778</ele>
        <time>2019-03-22T17:48:35Z</time>
      </trkpt>
      <trkpt lat="46.61839" lon="5.8876">
        <ele>777</ele>
        <time>2019-03-22T17:49:35Z</time>
      </trkpt>
      <trkpt lat="46.61839" lon="5.88767">
        <ele>777</ele>
        <time>2019-03-22T17:50:35Z</time>
      </trkpt>
      <trkpt lat="46.61841" lon="5.88774">
        <ele>777</ele>
        <time>2019-03-22T17:51:35Z</time>
      </trkpt>
      <trkpt lat="46.61845" lon="5.88794">
        <ele>776</ele>
        <time>2019-03-22T17:52:35Z</time>
      </trkpt>
      <trkpt lat="46.61844" lon="5.88802">
        <ele>776</ele>
        <time>2019-03-22T17:53:35Z</time>
      </trkpt>
      <trkpt lat="46.61842" lon="5.88809">
        <ele>776</ele>
        <time>2019-03-22T17:54:35Z</time>
      </trkpt>
      <trkpt lat="46.61838" lon="5.88822">
        <ele>776</ele>
        <time>2019-03-22T17:55:35Z</time>
      </trkpt>
      <trkpt lat="46.61836" lon="5.88829">
        <ele>776</ele>
        <time>2019-03-22T17:56:35Z</time>
      </trkpt>
      <trkpt lat="46.61834" lon="5.88843">
        <ele>776</ele>
        <time>2019-03-22T17:57:35Z</time>
      </trkpt>
      <trkpt lat="46.61833" lon="5.88851">
        <ele>777</ele>
        <time>2019-03-22T17:58:35Z</time>
      </trkpt>
      <trkpt lat="46.61831" lon="5.88858">
        <ele>778</ele>
        <time>2019-03-22T17:59:35Z</time>
      </trkpt>
      <trkpt lat="46.6183" lon="5.88866">
        <ele>778</ele>
        <time>2019-03-22T18:00:35Z</time>
      </trkpt>
      <trkpt lat="46.61829" lon="5.8888">
        <ele>779</ele>
        <time>2019-03-22T18:01:35Z</time>
      </trkpt>
      <trkpt lat="46.61829" lon="5.88887">
        <ele>779</ele>
        <time>2019-03-22T18:02:35Z</time>
      </trkpt>
      <trkpt lat="46.6183" lon="5.88894">
        <ele>779</ele>
        <time>2019-03-22T18:03:35Z</time>
      </trkpt>
      <trkpt lat="46.61829" lon="5.88915">
        <ele>781</ele>
        <time>2019-03-22T18:04:35Z</time>
      </trkpt>
      <trkpt lat="46.61826" lon="5.88957">
        <ele>779</ele>
        <time>2019-03-22T18:05:35Z</time>
      </trkpt>
      <trkpt lat="46.61823" lon="5.88963">
        <ele>779</ele>
        <time>2019-03-22T18:06:35Z</time>
      </trkpt>
      <trkpt lat="46.61808" lon="5.88972">
        <ele>780</ele>
        <time>2019-03-22T18:07:35Z</time>
      </trkpt>
      <trkpt lat="46.61803" lon="5.88974">
        <ele>780</ele>
        <time>2019-03-22T18:08:35Z</time>
      </trkpt>
      <trkpt lat="46.61797" lon="5.88977">
        <ele>780</ele>
        <time>2019-03-22T18:09:35Z</time>
      </trkpt>
      <trkpt lat="46.61794" lon="5.88982">
        <ele>780</ele>
        <time>2019-03-22T18:10:35Z</time>
      </trkpt>
      <trkpt lat="46.61784" lon="5.88988">
        <ele>780</ele>
        <time>2019-03-22T18:11:35Z</time>
      </trkpt>
      <trkpt lat="46.61779" lon="5.88991">
        <ele>780</ele>
        <time>2019-03-22T18:12:35Z</time>
      </trkpt>
      <trkpt lat="46.61774" lon="5.88994">
        <ele>780</ele>
        <time>2019-03-22T18:13:35Z</time>
      </trkpt>
      <trkpt lat="46.61769" lon="5.88995">
        <ele>780</ele>
        <time>2019-03-22T18:14:35Z</time>
      </trkpt>
      <trkpt lat="46.61764" lon="5.88995">
        <ele>781</ele>
        <time>2019-03-22T18:15:35Z</time>
      </trkpt>
      <trkpt lat="46.61755" lon="5.88986">
        <ele>782</ele>
        <time>2019-03-22T18:16:35Z</time>
      </trkpt>
      <trkpt lat="46.61745" lon="5.88979">
        <ele>784</ele>
        <time>2019-03-22T18:17:35Z</time>
      </trkpt>
      <trkpt lat="46.61716" lon="5.88966">
        <ele>786</ele>
        <time>2019-03-22T18:18:35Z</time>
      </trkpt>
      <trkpt lat="46.61711" lon="5.88964">
        <ele>787</ele>
        <time>2019-03-22T18:19:35Z</time>
      </trkpt>
      <trkpt lat="46.617" lon="5.88964">
        <ele>787</ele>
        <time>2019-03-22T18:20:35Z</time>
      </trkpt>
      <trkpt lat="46.61689" lon="5.88964">
        <ele>788</ele>
        <time>2019-03-22T18:21:35Z</time>
      </trkpt>
      <trkpt lat="46.6168" lon="5.88966">
        <ele>788</ele>
        <time>2019-03-22T18:22:35Z</time>
      </trkpt>
      <trkpt lat="46.61675" lon="5.88968">
        <ele>787</ele>
        <time>2019-03-22T18:23:35Z</time>
      </trkpt>
      <trkpt lat="46.6167" lon="5.88968">
        <ele>788</ele>
        <time>2019-03-22T18:24:35Z</time>
      </trkpt>
      <trkpt lat="46.6165" lon="5.88983">
        <ele>787</ele>
        <time>2019-03-22T18:25:35Z</time>
      </trkpt>
      <trkpt lat="46.61647" lon="5.88988">
        <ele>787</ele>
        <time>2019-03-22T18:26:35Z</time>
      </trkpt>
      <trkpt lat="46.61643" lon="5.88995">
        <ele>786</ele>
        <time>2019-03-22T18:27:35Z</time>
      </trkpt>
      <trkpt lat="46.61641" lon="5.89">
        <ele>786</ele>
        <time>2019-03-22T18:28:35Z</time>
      </trkpt>
      <trkpt lat="46.61639" lon="5.89007">
        <ele>786</ele>
        <time>2019-03-22T18:29:35Z</time>
      </trkpt>
      <trkpt lat="46.61637" lon="5.89013">
        <ele>785</ele>
        <time>2019-03-22T18:30:35Z</time>
      </trkpt>
      <trkpt lat="46.61638" lon="5.8902">
        <ele>785</ele>
        <time>2019-03-22T18:31:35Z</time>
      </trkpt>
      <trkpt lat="46.61632" lon="5.89049">
        <ele>783</ele>
        <time>2019-03-22T18:32:35Z</time>
      </trkpt>
      <trkpt lat="46.61631" lon="5.89063">
        <ele>782</ele>
        <time>2019-03-22T18:33:35Z</time>
      </trkpt>
      <trkpt lat="46.61626" lon="5.89084">
        <ele>781</ele>
        <time>2019-03-22T18:34:35Z</time>
      </trkpt>
      <trkpt lat="46.61624" lon="5.89091">
        <ele>781</ele>
        <time>2019-03-22T18:35:35Z</time>
      </trkpt>
      <trkpt lat="46.61621" lon="5.89097">
        <ele>782</ele>
        <time>2019-03-22T18:36:35Z</time>
      </trkpt>
      <trkpt lat="46.61616" lon="5.89101">
        <ele>782</ele>
        <time>2019-03-22T18:37:35Z</time>
      </trkpt>
      <trkpt lat="46.61611" lon="5.89103">
        <ele>782</ele>
        <time>2019-03-22T18:38:35Z</time>
      </trkpt>
      <trkpt lat="46.61597" lon="5.89102">
        <ele>783</ele>
        <time>2019-03-22T18:39:35Z</time>
      </trkpt>
      <trkpt lat="46.61583" lon="5.89095">
        <ele>782</ele>
        <time>2019-03-22T18:40:35Z</time>
      </trkpt>
      <trkpt lat="46.61573" lon="5.89098">
        <ele>783</ele>
        <time>2019-03-22T18:41:35Z</time>
      </trkpt>
      <trkpt lat="46.61568" lon="5.891">
        <ele>783</ele>
        <time>2019-03-22T18:42:35Z</time>
      </trkpt>
      <trkpt lat="46.61548" lon="5.89107">
        <ele>783</ele>
        <time>2019-03-22T18:43:35Z</time>
      </trkpt>
      <trkpt lat="46.61533" lon="5.89111">
        <ele>784</ele>
        <time>2019-03-22T18:44:35Z</time>
      </trkpt>
      <trkpt lat="46.61523" lon="5.89117">
        <ele>784</ele>
        <time>2019-03-22T18:45:35Z</time>
      </trkpt>
      <trkpt lat="46.61515" lon="5.89127">
        <ele>786</ele>
        <time>2019-03-22T18:46:35Z</time>
      </trkpt>
      <trkpt lat="46.61512" lon="5.89133">
        <ele>787</ele>
        <time>2019-03-22T18:47:35Z</time>
      </trkpt>
      <trkpt lat="46.61507" lon="5.89137">
        <ele>787</ele>
        <time>2019-03-22T18:48:35Z</time>
      </trkpt>
      <trkpt lat="46.61493" lon="5.89144">
        <ele>788</ele>
        <time>2019-03-22T18:49:35Z</time>
      </trkpt>
      <trkpt lat="46.61478" lon="5.89148">
        <ele>788</ele>
        <time>2019-03-22T18:50:35Z</time>
      </trkpt>
      <trkpt lat="46.61473" lon="5.89151">
        <ele>789</ele>
        <time>2019-03-22T18:51:35Z</time>
      </trkpt>
      <trkpt lat="46.61469" lon="5.89153">
        <ele>789</ele>
        <time>2019-03-22T18:52:35Z</time>
      </trkpt>
      <trkpt lat="46.61459" lon="5.89156">
        <ele>789</ele>
        <time>2019-03-22T18:53:35Z</time>
      </trkpt>
      <trkpt lat="46.61454" lon="5.89155">
        <ele>789</ele>
        <time>2019-03-22T18:54:35Z</time>
      </trkpt>
      <trkpt lat="46.61439" lon="5.89158">
        <ele>789</ele>
        <time>2019-03-22T18:55:35Z</time>
      </trkpt>
      <trkpt lat="46.61434" lon="5.89161">
        <ele>790</ele>
        <time>2019-03-22T18:56:35Z</time>
      </trkpt>
      <trkpt lat="46.61429" lon="5.89161">
        <ele>790</ele>
        <time>2019-03-22T18:57:35Z</time>
      </trkpt>
      <trkpt lat="46.61408" lon="5.8917">
        <ele>790</ele>
        <time>2019-03-22T18:58:35Z</time>
      </trkpt>
      <trkpt lat="46.61403" lon="5.89172">
        <ele>790</ele>
        <time>2019-03-22T18:59:35Z</time>
      </trkpt>
      <trkpt lat="46.61392" lon="5.89186">
        <ele>791</ele>
        <time>2019-03-22T19:00:35Z</time>
      </trkpt>
      <trkpt lat="46.61389" lon="5.8919">
        <ele>791</ele>
        <time>2019-03-22T19:01:35Z</time>
      </trkpt>
      <trkpt lat="46.61383" lon="5.89193">
        <ele>791</ele>
        <time>2019-03-22T19:02:35Z</time>
      </trkpt>
      <trkpt lat="46.61361" lon="5.89214">
        <ele>791</ele>
        <time>2019-03-22T19:03:35Z</time>
      </trkpt>
      <trkpt lat="46.61352" lon="5.89221">
        <ele>791</ele>
        <time>2019-03-22T19:04:35Z</time>
      </trkpt>
      <trkpt lat="46.6135" lon="5.89227">
        <ele>792</ele>
        <time>2019-03-22T19:05:35Z</time>
      </trkpt>
      <trkpt lat="46.61347" lon="5.89233">
        <ele>792</ele>
        <time>2019-03-22T19:06:35Z</time>
      </trkpt>
      <trkpt lat="46.61342" lon="5.89238">
        <ele>792</ele>
        <time>2019-03-22T19:07:35Z</time>
      </trkpt>
      <trkpt lat="46.61335" lon="5.89247">
        <ele>792</ele>
        <time>2019-03-22T19:08:35Z</time>
      </trkpt>
      <trkpt lat="46.61327" lon="5.89261">
        <ele>793</ele>
        <time>2019-03-22T19:09:35Z</time>
      </trkpt>
      <trkpt lat="46.61308" lon="5.89313">
        <ele>800</ele>
        <time>2019-03-22T19:10:35Z</time>
      </trkpt>
      <trkpt lat="46.61306" lon="5.89321">
        <ele>801</ele>
        <time>2019-03-22T19:11:35Z</time>
      </trkpt>
      <trkpt lat="46.61308" lon="5.8933">
        <ele>803</ele>
        <time>2019-03-22T19:12:35Z</time>
      </trkpt>
      <trkpt lat="46.61312" lon="5.89341">
        <ele>804</ele>
        <time>2019-03-22T19:13:35Z</time>
      </trkpt>
      <trkpt lat="46.61328" lon="5.89363">
        <ele>807</ele>
        <time>2019-03-22T19:14:35Z</time>
      </trkpt>
      <trkpt lat="46.61332" lon="5.89367">
        <ele>808</ele>
        <time>2019-03-22T19:15:35Z</time>
      </trkpt>
      <trkpt lat="46.61335" lon="5.89381">
        <ele>809</ele>
        <time>2019-03-22T19:16:35Z</time>
      </trkpt>
      <trkpt lat="46.61338" lon="5.89387">
        <ele>810</ele>
        <time>2019-03-22T19:17:35Z</time>
      </trkpt>
      <trkpt lat="46.61341" lon="5.89417">
        <ele>812</ele>
        <time>2019-03-22T19:18:35Z</time>
      </trkpt>
      <trkpt lat="46.61341" lon="5.89428">
        <ele>813</ele>
        <time>2019-03-22T19:19:35Z</time>
      </trkpt>
      <trkpt lat="46.61339" lon="5.89435">
        <ele>813</ele>
        <time>2019-03-22T19:20:35Z</time>
      </trkpt>
      <trkpt lat="46.61334" lon="5.89442">
        <ele>814</ele>
        <time>2019-03-22T19:21:35Z</time>
      </trkpt>
      <trkpt lat="46.61326" lon="5.89453">
        <ele>815</ele>
        <time>2019-03-22T19:22:35Z</time>
      </trkpt>
      <trkpt lat="46.61316" lon="5.89458">
        <ele>815</ele>
        <time>2019-03-22T19:23:35Z</time>
      </trkpt>
      <trkpt lat="46.61312" lon="5.89459">
        <ele>815</ele>
        <time>2019-03-22T19:24:35Z</time>
      </trkpt>
      <trkpt lat="46.61303" lon="5.89458">
        <ele>815</ele>
        <time>2019-03-22T19:25:35Z</time>
      </trkpt>
      <trkpt lat="46.61294" lon="5.89468">
        <ele>816</ele>
        <time>2019-03-22T19:26:35Z</time>
      </trkpt>
      <trkpt lat="46.61291" lon="5.89475">
        <ele>816</ele>
        <time>2019-03-22T19:27:35Z</time>
      </trkpt>
      <trkpt lat="46.6129" lon="5.89484">
        <ele>817</ele>
        <time>2019-03-22T19:28:35Z</time>
      </trkpt>
      <trkpt lat="46.61292" lon="5.89498">
        <ele>818</ele>
        <time>2019-03-22T19:29:35Z</time>
      </trkpt>
      <trkpt lat="46.61294" lon="5.89506">
        <ele>818</ele>
        <time>2019-03-22T19:30:35Z</time>
      </trkpt>
      <trkpt lat="46.61293" lon="5.89514">
        <ele>818</ele>
        <time>2019-03-22T19:31:35Z</time>
      </trkpt>
      <trkpt lat="46.6129" lon="5.8952">
        <ele>818</ele>
        <time>2019-03-22T19:32:35Z</time>
      </trkpt>
      <trkpt lat="46.61293" lon="5.89533">
        <ele>818</ele>
        <time>2019-03-22T19:33:35Z</time>
      </trkpt>
      <trkpt lat="46.61296" lon="5.8954">
        <ele>818</ele>
        <time>2019-03-22T19:34:35Z</time>
      </trkpt>
      <trkpt lat="46.61307" lon="5.89555">
        <ele>818</ele>
        <time>2019-03-22T19:35:35Z</time>
      </trkpt>
      <trkpt lat="46.6132" lon="5.89582">
        <ele>819</ele>
        <time>2019-03-22T19:36:35Z</time>
      </trkpt>
      <trkpt lat="46.61325" lon="5.89602">
        <ele>818</ele>
        <time>2019-03-22T19:37:35Z</time>
      </trkpt>
      <trkpt lat="46.61328" lon="5.89608">
        <ele>818</ele>
        <time>2019-03-22T19:38:35Z</time>
      </trkpt>
      <trkpt lat="46.61331" lon="5.89614">
        <ele>819</ele>
        <time>2019-03-22T19:39:35Z</time>
      </trkpt>
      <trkpt lat="46.61335" lon="5.8962">
        <ele>819</ele>
        <time>2019-03-22T19:40:35Z</time>
      </trkpt>
      <trkpt lat="46.61338" lon="5.89633">
        <ele>819</ele>
        <time>2019-03-22T19:41:35Z</time>
      </trkpt>
      <trkpt lat="46.61339" lon="5.8964">
        <ele>819</ele>
        <time>2019-03-22T19:42:35Z</time>
      </trkpt>
      <trkpt lat="46.6134" lon="5.89647">
        <ele>819</ele>
        <time>2019-03-22T19:43:35Z</time>
      </trkpt>
      <trkpt lat="46.61342" lon="5.89662">
        <ele>819</ele>
        <time>2019-03-22T19:44:35Z</time>
      </trkpt>
      <trkpt lat="46.61344" lon="5.89678">
        <ele>820</ele>
        <time>2019-03-22T19:45:35Z</time>
      </trkpt>
      <trkpt lat="46.61339" lon="5.89697">
        <ele>822</ele>
        <time>2019-03-22T19:46:35Z</time>
      </trkpt>
      <trkpt lat="46.61335" lon="5.89703">
        <ele>822</ele>
        <time>2019-03-22T19:47:35Z</time>
      </trkpt>
      <trkpt lat="46.61321" lon="5.89736">
        <ele>823</ele>
        <time>2019-03-22T19:48:35Z</time>
      </trkpt>
      <trkpt lat="46.61318" lon="5.89742">
        <ele>824</ele>
        <time>2019-03-22T19:49:35Z</time>
      </trkpt>
      <trkpt lat="46.61308" lon="5.8975">
        <ele>823</ele>
        <time>2019-03-22T19:50:35Z</time>
      </trkpt>
      <trkpt lat="46.61298" lon="5.89754">
        <ele>823</ele>
        <time>2019-03-22T19:51:35Z</time>
      </trkpt>
      <trkpt lat="46.6129" lon="5.89761">
        <ele>824</ele>
        <time>2019-03-22T19:52:35Z</time>
      </trkpt>
      <trkpt lat="46.61281" lon="5.89767">
        <ele>825</ele>
        <time>2019-03-22T19:53:35Z</time>
      </trkpt>
      <trkpt lat="46.61241" lon="5.89811">
        <ele>833</ele>
        <time>2019-03-22T19:54:35Z</time>
      </trkpt>
      <trkpt lat="46.61221" lon="5.89841">
        <ele>839</ele>
        <time>2019-03-22T19:55:35Z</time>
      </trkpt>
      <trkpt lat="46.61211" lon="5.89846">
        <ele>839</ele>
        <time>2019-03-22T19:56:35Z</time>
      </trkpt>
      <trkpt lat="46.61203" lon="5.8985">
        <ele>839</ele>
        <time>2019-03-22T19:57:35Z</time>
      </trkpt>
      <trkpt lat="46.61198" lon="5.89863">
        <ele>841</ele>
        <time>2019-03-22T19:58:35Z</time>
      </trkpt>
      <trkpt lat="46.61191" lon="5.89871">
        <ele>842</ele>
        <time>2019-03-22T19:59:35Z</time>
      </trkpt>
      <trkpt lat="46.61182" lon="5.89879">
        <ele>841</ele>
        <time>2019-03-22T20:00:35Z</time>
      </trkpt>
      <trkpt lat="46.61174" lon="5.89885">
        <ele>840</ele>
        <time>2019-03-22T20:01:35Z</time>
      </trkpt>
      <trkpt lat="46.61167" lon="5.89894">
        <ele>840</ele>
        <time>2019-03-22T20:02:35Z</time>
      </trkpt>
      <trkpt lat="46.61165" lon="5.8991">
        <ele>842</ele>
        <time>2019-03-22T20:03:35Z</time>
      </trkpt>
      <trkpt lat="46.61161" lon="5.89939">
        <ele>847</ele>
        <time>2019-03-22T20:04:35Z</time>
      </trkpt>
      <trkpt lat="46.61154" lon="5.89955">
        <ele>848</ele>
        <time>2019-03-22T20:05:35Z</time>
      </trkpt>
      <trkpt lat="46.61151" lon="5.89961">
        <ele>849</ele>
        <time>2019-03-22T20:06:35Z</time>
      </trkpt>
      <trkpt lat="46.61143" lon="5.89995">
        <ele>852</ele>
        <time>2019-03-22T20:07:35Z</time>
      </trkpt>
      <trkpt lat="46.6114" lon="5.9">
        <ele>852</ele>
        <time>2019-03-22T20:08:35Z</time>
      </trkpt>
      <trkpt lat="46.6114" lon="5.90009">
        <ele>853</ele>
        <time>2019-03-22T20:09:35Z</time>
      </trkpt>
      <trkpt lat="46.6114" lon="5.90023">
        <ele>855</ele>
        <time>2019-03-22T20:10:35Z</time>
      </trkpt>
      <trkpt lat="46.61139" lon="5.9003">
        <ele>856</ele>
        <time>2019-03-22T20:11:35Z</time>
      </trkpt>
      <trkpt lat="46.61135" lon="5.90037">
        <ele>856</ele>
        <time>2019-03-22T20:12:35Z</time>
      </trkpt>
      <trkpt lat="46.61137" lon="5.90057">
        <ele>859</ele>
        <time>2019-03-22T20:13:35Z</time>
      </trkpt>
      <trkpt lat="46.61138" lon="5.90063">
        <ele>860</ele>
        <time>2019-03-22T20:14:35Z</time>
      </trkpt>
      <trkpt lat="46.61138" lon="5.90071">
        <ele>862</ele>
        <time>2019-03-22T20:15:35Z</time>
      </trkpt>
      <trkpt lat="46.61137" lon="5.90077">
        <ele>862</ele>
        <time>2019-03-22T20:16:35Z</time>
      </trkpt>
      <trkpt lat="46.61138" lon="5.90084">
        <ele>864</ele>
        <time>2019-03-22T20:17:35Z</time>
      </trkpt>
      <trkpt lat="46.61139" lon="5.90091">
        <ele>865</ele>
        <time>2019-03-22T20:18:35Z</time>
      </trkpt>
      <trkpt lat="46.61139" lon="5.90097">
        <ele>867</ele>
        <time>2019-03-22T20:19:35Z</time>
      </trkpt>
      <trkpt lat="46.61139" lon="5.90105">
        <ele>869</ele>
        <time>2019-03-22T20:20:35Z</time>
      </trkpt>
      <trkpt lat="46.61135" lon="5.90115">
        <ele>870</ele>
        <time>2019-03-22T20:21:35Z</time>
      </trkpt>
      <trkpt lat="46.61121" lon="5.90125">
        <ele>869</ele>
        <time>2019-03-22T20:22:35Z</time>
      </trkpt>
      <trkpt lat="46.61117" lon="5.90129">
        <ele>869</ele>
        <time>2019-03-22T20:23:35Z</time>
      </trkpt>
      <trkpt lat="46.61114" lon="5.90138">
        <ele>871</ele>
        <time>2019-03-22T20:24:35Z</time>
      </trkpt>
      <trkpt lat="46.61111" lon="5.90144">
        <ele>872</ele>
        <time>2019-03-22T20:25:35Z</time>
      </trkpt>
      <trkpt lat="46.61107" lon="5.90147">
        <ele>872</ele>
        <time>2019-03-22T20:26:35Z</time>
      </trkpt>
      <trkpt lat="46.61104" lon="5.90152">
        <ele>873</ele>
        <time>2019-03-22T20:27:35Z</time>
      </trkpt>
      <trkpt lat="46.61098" lon="5.90155">
        <ele>872</ele>
        <time>2019-03-22T20:28:35Z</time>
      </trkpt>
      <trkpt lat="46.61097" lon="5.90163">
        <ele>874</ele>
        <time>2019-03-22T20:29:35Z</time>
      </trkpt>
      <trkpt lat="46.611" lon="5.90168">
        <ele>877</ele>
        <time>2019-03-22T20:30:35Z</time>
      </trkpt>
      <trkpt lat="46.61116" lon="5.9016">
        <ele>877</ele>
        <time>2019-03-22T20:31:35Z</time>
      </trkpt>
      <trkpt lat="46.61127" lon="5.90153">
        <ele>877</ele>
        <time>2019-03-22T20:32:35Z</time>
      </trkpt>
      <trkpt lat="46.61137" lon="5.90147">
        <ele>878</ele>
        <time>2019-03-22T20:33:35Z</time>
      </trkpt>
      <trkpt lat="46.61146" lon="5.90143">
        <ele>879</ele>
        <time>2019-03-22T20:34:35Z</time>
      </trkpt>
      <trkpt lat="46.61155" lon="5.90145">
        <ele>881</ele>
        <time>2019-03-22T20:35:35Z</time>
      </trkpt>
      <trkpt lat="46.61166" lon="5.90142">
        <ele>883</ele>
        <time>2019-03-22T20:36:35Z</time>
      </trkpt>
      <trkpt lat="46.61182" lon="5.90132">
        <ele>887</ele>
        <time>2019-03-22T20:37:35Z</time>
      </trkpt>
      <trkpt lat="46.61187" lon="5.90131">
        <ele>888</ele>
        <time>2019-03-22T20:38:35Z</time>
      </trkpt>
      <trkpt lat="46.61192" lon="5.90129">
        <ele>890</ele>
        <time>2019-03-22T20:39:35Z</time>
      </trkpt>
      <trkpt lat="46.61198" lon="5.90125">
        <ele>891</ele>
        <time>2019-03-22T20:40:35Z</time>
      </trkpt>
      <trkpt lat="46.61203" lon="5.90124">
        <ele>893</ele>
        <time>2019-03-22T20:41:35Z</time>
      </trkpt>
      <trkpt lat="46.61206" lon="5.90132">
        <ele>895</ele>
        <time>2019-03-22T20:42:35Z</time>
      </trkpt>
      <trkpt lat="46.61209" lon="5.90138">
        <ele>897</ele>
        <time>2019-03-22T20:43:35Z</time>
      </trkpt>
      <trkpt lat="46.6122" lon="5.90143">
        <ele>901</ele>
        <time>2019-03-22T20:44:35Z</time>
      </trkpt>
      <trkpt lat="46.61229" lon="5.90137">
        <ele>904</ele>
        <time>2019-03-22T20:45:35Z</time>
      </trkpt>
      <trkpt lat="46.61234" lon="5.90149">
        <ele>906</ele>
        <time>2019-03-22T20:46:35Z</time>
      </trkpt>
      <trkpt lat="46.61237" lon="5.90163">
        <ele>907</ele>
        <time>2019-03-22T20:47:35Z</time>
      </trkpt>
      <trkpt lat="46.61245" lon="5.90171">
        <ele>911</ele>
        <time>2019-03-22T20:48:35Z</time>
      </trkpt>
      <trkpt lat="46.61256" lon="5.90169">
        <ele>913</ele>
        <time>2019-03-22T20:49:35Z</time>
      </trkpt>
      <trkpt lat="46.61262" lon="5.90159">
        <ele>915</ele>
        <time>2019-03-22T20:50:35Z</time>
      </trkpt>
      <trkpt lat="46.61273" lon="5.90162">
        <ele>919</ele>
        <time>2019-03-22T20:51:35Z</time>
      </trkpt>
      <trkpt lat="46.61282" lon="5.90173">
        <ele>923</ele>
        <time>2019-03-22T20:52:35Z</time>
      </trkpt>
      <trkpt lat="46.61287" lon="5.9018">
        <ele>925</ele>
        <time>2019-03-22T20:53:35Z</time>
      </trkpt>
      <trkpt lat="46.61287" lon="5.90195">
        <ele>927</ele>
        <time>2019-03-22T20:54:35Z</time>
      </trkpt>
      <trkpt lat="46.61284" lon="5.90206">
        <ele>928</ele>
        <time>2019-03-22T20:55:35Z</time>
      </trkpt>
      <trkpt lat="46.61299" lon="5.90205">
        <ele>931</ele>
        <time>2019-03-22T20:56:35Z</time>
      </trkpt>
      <trkpt lat="46.61309" lon="5.90193">
        <ele>933</ele>
        <time>2019-03-22T20:57:35Z</time>
      </trkpt>
      <trkpt lat="46.61325" lon="5.90208">
        <ele>938</ele>
        <time>2019-03-22T20:58:35Z</time>
      </trkpt>
      <trkpt lat="46.61331" lon="5.90213">
        <ele>939</ele>
        <time>2019-03-22T20:59:35Z</time>
      </trkpt>
      <trkpt lat="46.61333" lon="5.90222">
        <ele>940</ele>
        <time>2019-03-22T21:00:35Z</time>
      </trkpt>
      <trkpt lat="46.61345" lon="5.90241">
        <ele>942</ele>
        <time>2019-03-22T21:01:35Z</time>
      </trkpt>
      <trkpt lat="46.6135" lon="5.90246">
        <ele>944</ele>
        <time>2019-03-22T21:02:35Z</time>
      </trkpt>
      <trkpt lat="46.61351" lon="5.90261">
        <ele>944</ele>
        <time>2019-03-22T21:03:35Z</time>
      </trkpt>
      <trkpt lat="46.61362" lon="5.90274">
        <ele>945</ele>
        <time>2019-03-22T21:04:35Z</time>
      </trkpt>
      <trkpt lat="46.61374" lon="5.90274">
        <ele>948</ele>
        <time>2019-03-22T21:05:35Z</time>
      </trkpt>
      <trkpt lat="46.61383" lon="5.90278">
        <ele>949</ele>
        <time>2019-03-22T21:06:35Z</time>
      </trkpt>
      <trkpt lat="46.61387" lon="5.9029">
        <ele>949</ele>
        <time>2019-03-22T21:07:35Z</time>
      </trkpt>
      <trkpt lat="46.61396" lon="5.90292">
        <ele>951</ele>
        <time>2019-03-22T21:08:35Z</time>
      </trkpt>
      <trkpt lat="46.61407" lon="5.90286">
        <ele>954</ele>
        <time>2019-03-22T21:09:35Z</time>
      </trkpt>
      <trkpt lat="46.61415" lon="5.90282">
        <ele>956</ele>
        <time>2019-03-22T21:10:35Z</time>
      </trkpt>
      <trkpt lat="46.61421" lon="5.90283">
        <ele>957</ele>
        <time>2019-03-22T21:11:35Z</time>
      </trkpt>
      <trkpt lat="46.61433" lon="5.90283">
        <ele>961</ele>
        <time>2019-03-22T21:12:35Z</time>
      </trkpt>
      <trkpt lat="46.61438" lon="5.90279">
        <ele>962</ele>
        <time>2019-03-22T21:13:35Z</time>
      </trkpt>
      <trkpt lat="46.61439" lon="5.90272">
        <ele>963</ele>
        <time>2019-03-22T21:14:35Z</time>
      </trkpt>
      <trkpt lat="46.61443" lon="5.90249">
        <ele>966</ele>
        <time>2019-03-22T21:15:35Z</time>
      </trkpt>
      <trkpt lat="46.61447" lon="5.90242">
        <ele>965</ele>
        <time>2019-03-22T21:16:35Z</time>
      </trkpt>
      <trkpt lat="46.61454" lon="5.90233">
        <ele>964</ele>
        <time>2019-03-22T21:17:35Z</time>
      </trkpt>
      <trkpt lat="46.61457" lon="5.90225">
        <ele>962</ele>
        <time>2019-03-22T21:18:35Z</time>
      </trkpt>
      <trkpt lat="46.61461" lon="5.90219">
        <ele>961</ele>
        <time>2019-03-22T21:19:35Z</time>
      </trkpt>
      <trkpt lat="46.61469" lon="5.90208">
        <ele>958</ele>
        <time>2019-03-22T21:20:35Z</time>
      </trkpt>
      <trkpt lat="46.61468" lon="5.90215">
        <ele>961</ele>
        <time>2019-03-22T21:21:35Z</time>
      </trkpt>
      <trkpt lat="46.6147" lon="5.90223">
        <ele>964</ele>
        <time>2019-03-22T21:22:35Z</time>
      </trkpt>
      <trkpt lat="46.61476" lon="5.90234">
        <ele>969</ele>
        <time>2019-03-22T21:23:35Z</time>
      </trkpt>
      <trkpt lat="46.61477" lon="5.90243">
        <ele>972</ele>
        <time>2019-03-22T21:24:35Z</time>
      </trkpt>
      <trkpt lat="46.6118" lon="5.90395">
        <ele>919</ele>
        <time>2019-03-22T21:25:35Z</time>
      </trkpt>
      <trkpt lat="46.61173" lon="5.90396">
        <ele>919</ele>
        <time>2019-03-22T21:26:35Z</time>
      </trkpt>
      <trkpt lat="46.61168" lon="5.90398">
        <ele>919</ele>
        <time>2019-03-22T21:27:35Z</time>
      </trkpt>
      <trkpt lat="46.61163" lon="5.90397">
        <ele>919</ele>
        <time>2019-03-22T21:28:35Z</time>
      </trkpt>
      <trkpt lat="46.61153" lon="5.90399">
        <ele>917</ele>
        <time>2019-03-22T21:29:35Z</time>
      </trkpt>
      <trkpt lat="46.61145" lon="5.904">
        <ele>916</ele>
        <time>2019-03-22T21:30:35Z</time>
      </trkpt>
      <trkpt lat="46.61133" lon="5.90413">
        <ele>912</ele>
        <time>2019-03-22T21:31:35Z</time>
      </trkpt>
      <trkpt lat="46.61128" lon="5.90416">
        <ele>911</ele>
        <time>2019-03-22T21:32:35Z</time>
      </trkpt>
      <trkpt lat="46.61112" lon="5.90424">
        <ele>909</ele>
        <time>2019-03-22T21:33:35Z</time>
      </trkpt>
      <trkpt lat="46.61099" lon="5.90425">
        <ele>907</ele>
        <time>2019-03-22T21:34:35Z</time>
      </trkpt>
      <trkpt lat="46.61093" lon="5.90428">
        <ele>906</ele>
        <time>2019-03-22T21:35:35Z</time>
      </trkpt>
      <trkpt lat="46.61063" lon="5.90443">
        <ele>904</ele>
        <time>2019-03-22T21:36:35Z</time>
      </trkpt>
      <trkpt lat="46.61058" lon="5.90449">
        <ele>903</ele>
        <time>2019-03-22T21:37:35Z</time>
      </trkpt>
      <trkpt lat="46.61053" lon="5.90453">
        <ele>903</ele>
        <time>2019-03-22T21:38:35Z</time>
      </trkpt>
      <trkpt lat="46.61048" lon="5.90453">
        <ele>902</ele>
        <time>2019-03-22T21:39:35Z</time>
      </trkpt>
      <trkpt lat="46.6104" lon="5.9046">
        <ele>902</ele>
        <time>2019-03-22T21:40:35Z</time>
      </trkpt>
      <trkpt lat="46.61035" lon="5.90462">
        <ele>901</ele>
        <time>2019-03-22T21:41:35Z</time>
      </trkpt>
      <trkpt lat="46.61025" lon="5.90463">
        <ele>901</ele>
        <time>2019-03-22T21:42:35Z</time>
      </trkpt>
      <trkpt lat="46.61015" lon="5.90459">
        <ele>901</ele>
        <time>2019-03-22T21:43:35Z</time>
      </trkpt>
      <trkpt lat="46.61008" lon="5.90449">
        <ele>901</ele>
        <time>2019-03-22T21:44:35Z</time>
      </trkpt>
      <trkpt lat="46.61" lon="5.9044">
        <ele>901</ele>
        <time>2019-03-22T21:45:35Z</time>
      </trkpt>
      <trkpt lat="46.60995" lon="5.90427">
        <ele>901</ele>
        <time>2019-03-22T21:46:35Z</time>
      </trkpt>
      <trkpt lat="46.60991" lon="5.90423">
        <ele>901</ele>
        <time>2019-03-22T21:47:35Z</time>
      </trkpt>
      <trkpt lat="46.60986" lon="5.90422">
        <ele>901</ele>
        <time>2019-03-22T21:48:35Z</time>
      </trkpt>
      <trkpt lat="46.60981" lon="5.90425">
        <ele>901</ele>
        <time>2019-03-22T21:49:35Z</time>
      </trkpt>
      <trkpt lat="46.60966" lon="5.90441">
        <ele>900</ele>
        <time>2019-03-22T21:50:35Z</time>
      </trkpt>
      <trkpt lat="46.60961" lon="5.90443">
        <ele>900</ele>
        <time>2019-03-22T21:51:35Z</time>
      </trkpt>
      <trkpt lat="46.60957" lon="5.90442">
        <ele>900</ele>
        <time>2019-03-22T21:52:35Z</time>
      </trkpt>
      <trkpt lat="46.60952" lon="5.90438">
        <ele>900</ele>
        <time>2019-03-22T21:53:35Z</time>
      </trkpt>
      <trkpt lat="46.6094" lon="5.90423">
        <ele>900</ele>
        <time>2019-03-22T21:54:35Z</time>
      </trkpt>
      <trkpt lat="46.60931" lon="5.90416">
        <ele>900</ele>
        <time>2019-03-22T21:55:35Z</time>
      </trkpt>
      <trkpt lat="46.60919" lon="5.90403">
        <ele>899</ele>
        <time>2019-03-22T21:56:35Z</time>
      </trkpt>
      <trkpt lat="46.6091" lon="5.904">
        <ele>898</ele>
        <time>2019-03-22T21:57:35Z</time>
      </trkpt>
      <trkpt lat="46.60906" lon="5.90397">
        <ele>898</ele>
        <time>2019-03-22T21:58:35Z</time>
      </trkpt>
      <trkpt lat="46.60898" lon="5.90399">
        <ele>898</ele>
        <time>2019-03-22T21:59:35Z</time>
      </trkpt>
      <trkpt lat="46.60895" lon="5.90406">
        <ele>898</ele>
        <time>2019-03-22T22:00:35Z</time>
      </trkpt>
      <trkpt lat="46.60881" lon="5.90418">
        <ele>898</ele>
        <time>2019-03-22T22:01:35Z</time>
      </trkpt>
      <trkpt lat="46.60877" lon="5.9042">
        <ele>898</ele>
        <time>2019-03-22T22:02:35Z</time>
      </trkpt>
      <trkpt lat="46.60872" lon="5.90424">
        <ele>897</ele>
        <time>2019-03-22T22:03:35Z</time>
      </trkpt>
      <trkpt lat="46.60868" lon="5.90428">
        <ele>897</ele>
        <time>2019-03-22T22:04:35Z</time>
      </trkpt>
      <trkpt lat="46.60858" lon="5.90432">
        <ele>897</ele>
        <time>2019-03-22T22:05:35Z</time>
      </trkpt>
      <trkpt lat="46.6084" lon="5.90436">
        <ele>896</ele>
        <time>2019-03-22T22:06:35Z</time>
      </trkpt>
      <trkpt lat="46.60836" lon="5.90439">
        <ele>896</ele>
        <time>2019-03-22T22:07:35Z</time>
      </trkpt>
      <trkpt lat="46.60831" lon="5.9044">
        <ele>896</ele>
        <time>2019-03-22T22:08:35Z</time>
      </trkpt>
      <trkpt lat="46.60828" lon="5.90433">
        <ele>896</ele>
        <time>2019-03-22T22:09:35Z</time>
      </trkpt>
      <trkpt lat="46.60827" lon="5.90426">
        <ele>896</ele>
        <time>2019-03-22T22:10:35Z</time>
      </trkpt>
      <trkpt lat="46.60819" lon="5.90416">
        <ele>895</ele>
        <time>2019-03-22T22:11:35Z</time>
      </trkpt>
      <trkpt lat="46.60814" lon="5.90415">
        <ele>895</ele>
        <time>2019-03-22T22:12:35Z</time>
      </trkpt>
      <trkpt lat="46.60812" lon="5.90422">
        <ele>895</ele>
        <time>2019-03-22T22:13:35Z</time>
      </trkpt>
      <trkpt lat="46.60815" lon="5.90429">
        <ele>895</ele>
        <time>2019-03-22T22:14:35Z</time>
      </trkpt>
      <trkpt lat="46.60804" lon="5.90428">
        <ele>895</ele>
        <time>2019-03-22T22:15:35Z</time>
      </trkpt>
      <trkpt lat="46.60798" lon="5.90429">
        <ele>894</ele>
        <time>2019-03-22T22:16:35Z</time>
      </trkpt>
      <trkpt lat="46.60793" lon="5.90432">
        <ele>894</ele>
        <time>2019-03-22T22:17:35Z</time>
      </trkpt>
      <trkpt lat="46.60789" lon="5.9044">
        <ele>894</ele>
        <time>2019-03-22T22:18:35Z</time>
      </trkpt>
      <trkpt lat="46.60787" lon="5.90448">
        <ele>894</ele>
        <time>2019-03-22T22:19:35Z</time>
      </trkpt>
      <trkpt lat="46.60781" lon="5.90447">
        <ele>893</ele>
        <time>2019-03-22T22:20:35Z</time>
      </trkpt>
      <trkpt lat="46.60777" lon="5.9045">
        <ele>893</ele>
        <time>2019-03-22T22:21:35Z</time>
      </trkpt>
      <trkpt lat="46.60771" lon="5.90449">
        <ele>893</ele>
        <time>2019-03-22T22:22:35Z</time>
      </trkpt>
      <trkpt lat="46.60782" lon="5.90424">
        <ele>894</ele>
        <time>2019-03-22T22:23:35Z</time>
      </trkpt>
      <trkpt lat="46.60786" lon="5.90408">
        <ele>894</ele>
        <time>2019-03-22T22:24:35Z</time>
      </trkpt>
      <trkpt lat="46.60791" lon="5.90402">
        <ele>895</ele>
        <time>2019-03-22T22:25:35Z</time>
      </trkpt>
      <trkpt lat="46.60796" lon="5.904">
        <ele>895</ele>
        <time>2019-03-22T22:26:35Z</time>
      </trkpt>
      <trkpt lat="46.60792" lon="5.90391">
        <ele>895</ele>
        <time>2019-03-22T22:27:35Z</time>
      </trkpt>
      <trkpt lat="46.60786" lon="5.90391">
        <ele>895</ele>
        <time>2019-03-22T22:28:35Z</time>
      </trkpt>
      <trkpt lat="46.60781" lon="5.9039">
        <ele>895</ele>
        <time>2019-03-22T22:29:35Z</time>
      </trkpt>
      <trkpt lat="46.60735" lon="5.90394">
        <ele>893</ele>
        <time>2019-03-22T22:30:35Z</time>
      </trkpt>
      <trkpt lat="46.60731" lon="5.90395">
        <ele>892</ele>
        <time>2019-03-22T22:31:35Z</time>
      </trkpt>
      <trkpt lat="46.60721" lon="5.90394">
        <ele>892</ele>
        <time>2019-03-22T22:32:35Z</time>
      </trkpt>
      <trkpt lat="46.6069" lon="5.90395">
        <ele>891</ele>
        <time>2019-03-22T22:33:35Z</time>
      </trkpt>
      <trkpt lat="46.6067" lon="5.9039">
        <ele>890</ele>
        <time>2019-03-22T22:34:35Z</time>
      </trkpt>
      <trkpt lat="46.60643" lon="5.90373">
        <ele>891</ele>
        <time>2019-03-22T22:35:35Z</time>
      </trkpt>
      <trkpt lat="46.60637" lon="5.90374">
        <ele>891</ele>
        <time>2019-03-22T22:36:35Z</time>
      </trkpt>
      <trkpt lat="46.60618" lon="5.90383">
        <ele>889</ele>
        <time>2019-03-22T22:37:35Z</time>
      </trkpt>
      <trkpt lat="46.60613" lon="5.90384">
        <ele>889</ele>
        <time>2019-03-22T22:38:35Z</time>
      </trkpt>
      <trkpt lat="46.60609" lon="5.90383">
        <ele>889</ele>
        <time>2019-03-22T22:39:35Z</time>
      </trkpt>
      <trkpt lat="46.60587" lon="5.90387">
        <ele>889</ele>
        <time>2019-03-22T22:40:35Z</time>
      </trkpt>
      <trkpt lat="46.60572" lon="5.9039">
        <ele>888</ele>
        <time>2019-03-22T22:41:35Z</time>
      </trkpt>
      <trkpt lat="46.60558" lon="5.90397">
        <ele>887</ele>
        <time>2019-03-22T22:42:35Z</time>
      </trkpt>
      <trkpt lat="46.60553" lon="5.904">
        <ele>887</ele>
        <time>2019-03-22T22:43:35Z</time>
      </trkpt>
      <trkpt lat="46.60548" lon="5.90404">
        <ele>886</ele>
        <time>2019-03-22T22:44:35Z</time>
      </trkpt>
      <trkpt lat="46.60548" lon="5.90427">
        <ele>884</ele>
        <time>2019-03-22T22:45:35Z</time>
      </trkpt>
      <trkpt lat="46.60547" lon="5.90442">
        <ele>883</ele>
        <time>2019-03-22T22:46:35Z</time>
      </trkpt>
      <trkpt lat="46.60549" lon="5.90463">
        <ele>880</ele>
        <time>2019-03-22T22:47:35Z</time>
      </trkpt>
      <trkpt lat="46.60552" lon="5.90478">
        <ele>879</ele>
        <time>2019-03-22T22:48:35Z</time>
      </trkpt>
      <trkpt lat="46.60552" lon="5.905">
        <ele>877</ele>
        <time>2019-03-22T22:49:35Z</time>
      </trkpt>
      <trkpt lat="46.60553" lon="5.90514">
        <ele>875</ele>
        <time>2019-03-22T22:50:35Z</time>
      </trkpt>
      <trkpt lat="46.60555" lon="5.90521">
        <ele>875</ele>
        <time>2019-03-22T22:51:35Z</time>
      </trkpt>
      <trkpt lat="46.60565" lon="5.90538">
        <ele>873</ele>
        <time>2019-03-22T22:52:35Z</time>
      </trkpt>
      <trkpt lat="46.60575" lon="5.90563">
        <ele>871</ele>
        <time>2019-03-22T22:53:35Z</time>
      </trkpt>
      <trkpt lat="46.60573" lon="5.90583">
        <ele>869</ele>
        <time>2019-03-22T22:54:35Z</time>
      </trkpt>
      <trkpt lat="46.60573" lon="5.90589">
        <ele>868</ele>
        <time>2019-03-22T22:55:35Z</time>
      </trkpt>
      <trkpt lat="46.60575" lon="5.90595">
        <ele>867</ele>
        <time>2019-03-22T22:56:35Z</time>
      </trkpt>
      <trkpt lat="46.60588" lon="5.90605">
        <ele>866</ele>
        <time>2019-03-22T22:57:35Z</time>
      </trkpt>
      <trkpt lat="46.60595" lon="5.90617">
        <ele>864</ele>
        <time>2019-03-22T22:58:35Z</time>
      </trkpt>
      <trkpt lat="46.60607" lon="5.90617">
        <ele>864</ele>
        <time>2019-03-22T22:59:35Z</time>
      </trkpt>
      <trkpt lat="46.60608" lon="5.90615">
        <ele>865</ele>
        <time>2019-03-22T23:00:35Z</time>
      </trkpt>
      <trkpt lat="46.60618" lon="5.90616">
        <ele>864</ele>
        <time>2019-03-22T23:01:35Z</time>
      </trkpt>
      <trkpt lat="46.60634" lon="5.90616">
        <ele>865</ele>
        <time>2019-03-22T23:02:35Z</time>
      </trkpt>
      <trkpt lat="46.6064" lon="5.90617">
        <ele>864</ele>
        <time>2019-03-22T23:03:35Z</time>
      </trkpt>
      <trkpt lat="46.60645" lon="5.9062">
        <ele>864</ele>
        <time>2019-03-22T23:04:35Z</time>
      </trkpt>
      <trkpt lat="46.60649" lon="5.90622">
        <ele>864</ele>
        <time>2019-03-22T23:05:35Z</time>
      </trkpt>
      <trkpt lat="46.60662" lon="5.90632">
        <ele>862</ele>
        <time>2019-03-22T23:06:35Z</time>
      </trkpt>
      <trkpt lat="46.60666" lon="5.90636">
        <ele>861</ele>
        <time>2019-03-22T23:07:35Z</time>
      </trkpt>
      <trkpt lat="46.60671" lon="5.90639">
        <ele>861</ele>
        <time>2019-03-22T23:08:35Z</time>
      </trkpt>
      <trkpt lat="46.60675" lon="5.90642">
        <ele>861</ele>
        <time>2019-03-22T23:09:35Z</time>
      </trkpt>
      <trkpt lat="46.6068" lon="5.90646">
        <ele>861</ele>
        <time>2019-03-22T23:10:35Z</time>
      </trkpt>
      <trkpt lat="46.60684" lon="5.90651">
        <ele>861</ele>
        <time>2019-03-22T23:11:35Z</time>
      </trkpt>
      <trkpt lat="46.60697" lon="5.90659">
        <ele>861</ele>
        <time>2019-03-22T23:12:35Z</time>
      </trkpt>
      <trkpt lat="46.60705" lon="5.90664">
        <ele>861</ele>
        <time>2019-03-22T23:13:35Z</time>
      </trkpt>
      <trkpt lat="46.60714" lon="5.90671">
        <ele>862</ele>
        <time>2019-03-22T23:14:35Z</time>
      </trkpt>
      <trkpt lat="46.60723" lon="5.90679">
        <ele>863</ele>
        <time>2019-03-22T23:15:35Z</time>
      </trkpt>
      <trkpt lat="46.60733" lon="5.90683">
        <ele>864</ele>
        <time>2019-03-22T23:16:35Z</time>
      </trkpt>
      <trkpt lat="46.60738" lon="5.90684">
        <ele>865</ele>
        <time>2019-03-22T23:17:35Z</time>
      </trkpt>
      <trkpt lat="46.60758" lon="5.90685">
        <ele>867</ele>
        <time>2019-03-22T23:18:35Z</time>
      </trkpt>
      <trkpt lat="46.60762" lon="5.90687">
        <ele>868</ele>
        <time>2019-03-22T23:19:35Z</time>
      </trkpt>
      <trkpt lat="46.6078" lon="5.90686">
        <ele>870</ele>
        <time>2019-03-22T23:20:35Z</time>
      </trkpt>
      <trkpt lat="46.60784" lon="5.90683">
        <ele>871</ele>
        <time>2019-03-22T23:21:35Z</time>
      </trkpt>
      <trkpt lat="46.60798" lon="5.90691">
        <ele>872</ele>
        <time>2019-03-22T23:22:35Z</time>
      </trkpt>
      <trkpt lat="46.61018" lon="5.90145">
        <ele>863</ele>
        <time>2019-03-22T23:23:35Z</time>
      </trkpt>
      <trkpt lat="46.61001" lon="5.90169">
        <ele>869</ele>
        <time>2019-03-22T23:24:35Z</time>
      </trkpt>
      <trkpt lat="46.61033" lon="5.90155">
        <ele>867</ele>
        <time>2019-03-22T23:25:35Z</time>
      </trkpt>
      <trkpt lat="46.61041" lon="5.90148">
        <ele>865</ele>
        <time>2019-03-22T23:26:35Z</time>
      </trkpt>
      <trkpt lat="46.61044" lon="5.90142">
        <ele>863</ele>
        <time>2019-03-22T23:27:35Z</time>
      </trkpt>
      <trkpt lat="46.61054" lon="5.90138">
        <ele>863</ele>
        <time>2019-03-22T23:28:35Z</time>
      </trkpt>
      <trkpt lat="46.61063" lon="5.9013">
        <ele>861</ele>
        <time>2019-03-22T23:29:35Z</time>
      </trkpt>
      <trkpt lat="46.61073" lon="5.90125">
        <ele>860</ele>
        <time>2019-03-22T23:30:35Z</time>
      </trkpt>
      <trkpt lat="46.61081" lon="5.90117">
        <ele>857</ele>
        <time>2019-03-22T23:31:35Z</time>
      </trkpt>
      <trkpt lat="46.61086" lon="5.90106">
        <ele>855</ele>
        <time>2019-03-22T23:32:35Z</time>
      </trkpt>
      <trkpt lat="46.61089" lon="5.90092">
        <ele>851</ele>
        <time>2019-03-22T23:33:35Z</time>
      </trkpt>
      <trkpt lat="46.61096" lon="5.90082">
        <ele>851</ele>
        <time>2019-03-22T23:34:35Z</time>
      </trkpt>
      <trkpt lat="46.61101" lon="5.9007">
        <ele>850</ele>
        <time>2019-03-22T23:35:35Z</time>
      </trkpt>
      <trkpt lat="46.61108" lon="5.9006">
        <ele>851</ele>
        <time>2019-03-22T23:36:35Z</time>
      </trkpt>
      <trkpt lat="46.61113" lon="5.90047">
        <ele>850</ele>
        <time>2019-03-22T23:37:35Z</time>
      </trkpt>
      <trkpt lat="46.61119" lon="5.90037">
        <ele>851</ele>
        <time>2019-03-22T23:38:35Z</time>
      </trkpt>
      <trkpt lat="46.6112" lon="5.9003">
        <ele>850</ele>
        <time>2019-03-22T23:39:35Z</time>
      </trkpt>
      <trkpt lat="46.61125" lon="5.90024">
        <ele>851</ele>
        <time>2019-03-22T23:40:35Z</time>
      </trkpt>
      <trkpt lat="46.61127" lon="5.90018">
        <ele>850</ele>
        <time>2019-03-22T23:41:35Z</time>
      </trkpt>
      <trkpt lat="46.6113" lon="5.90004">
        <ele>849</ele>
        <time>2019-03-22T23:42:35Z</time>
      </trkpt>
      <trkpt lat="46.61133" lon="5.89995">
        <ele>849</ele>
        <time>2019-03-22T23:43:35Z</time>
      </trkpt>
      <trkpt lat="46.61134" lon="5.89979">
        <ele>847</ele>
        <time>2019-03-22T23:44:35Z</time>
      </trkpt>
      <trkpt lat="46.61136" lon="5.89973">
        <ele>846</ele>
        <time>2019-03-22T23:45:35Z</time>
      </trkpt>
      <trkpt lat="46.61146" lon="5.89955">
        <ele>846</ele>
        <time>2019-03-22T23:46:35Z</time>
      </trkpt>
      <trkpt lat="46.61148" lon="5.8995">
        <ele>846</ele>
        <time>2019-03-22T23:47:35Z</time>
      </trkpt>
      <trkpt lat="46.61152" lon="5.89945">
        <ele>846</ele>
        <time>2019-03-22T23:48:35Z</time>
      </trkpt>
      <trkpt lat="46.61155" lon="5.89939">
        <ele>846</ele>
        <time>2019-03-22T23:49:35Z</time>
      </trkpt>
      <trkpt lat="46.61159" lon="5.89935">
        <ele>846</ele>
        <time>2019-03-22T23:50:35Z</time>
      </trkpt>
      <trkpt lat="46.61162" lon="5.89928">
        <ele>845</ele>
        <time>2019-03-22T23:51:35Z</time>
      </trkpt>
      <trkpt lat="46.61166" lon="5.89902">
        <ele>841</ele>
        <time>2019-03-22T23:52:35Z</time>
      </trkpt>
      <trkpt lat="46.61174" lon="5.89897">
        <ele>843</ele>
        <time>2019-03-22T23:53:35Z</time>
      </trkpt>
      <trkpt lat="46.61184" lon="5.89884">
        <ele>843</ele>
        <time>2019-03-22T23:54:35Z</time>
      </trkpt>
      <trkpt lat="46.61193" lon="5.89877">
        <ele>844</ele>
        <time>2019-03-22T23:55:35Z</time>
      </trkpt>
      <trkpt lat="46.612" lon="5.89868">
        <ele>843</ele>
        <time>2019-03-22T23:56:35Z</time>
      </trkpt>
      <trkpt lat="46.61208" lon="5.8986">
        <ele>843</ele>
        <time>2019-03-22T23:57:35Z</time>
      </trkpt>
      <trkpt lat="46.61215" lon="5.89851">
        <ele>841</ele>
        <time>2019-03-22T23:58:35Z</time>
      </trkpt>
      <trkpt lat="46.61219" lon="5.8984">
        <ele>838</ele>
        <time>2019-03-22T23:59:35Z</time>
      </trkpt>
      <trkpt lat="46.61227" lon="5.89831">
        <ele>836</ele>
        <time>2019-03-23T00:00:35Z</time>
      </trkpt>
      <trkpt lat="46.61234" lon="5.89824">
        <ele>836</ele>
        <time>2019-03-23T00:01:35Z</time>
      </trkpt>
      <trkpt lat="46.61246" lon="5.89814">
        <ele>834</ele>
        <time>2019-03-23T00:02:35Z</time>
      </trkpt>
      <trkpt lat="46.61285" lon="5.89776">
        <ele>828</ele>
        <time>2019-03-23T00:03:35Z</time>
      </trkpt>
      <trkpt lat="46.61322" lon="5.89756">
        <ele>826</ele>
        <time>2019-03-23T00:04:35Z</time>
      </trkpt>
      <trkpt lat="46.61333" lon="5.89733">
        <ele>824</ele>
        <time>2019-03-23T00:05:35Z</time>
      </trkpt>
      <trkpt lat="46.61337" lon="5.89719">
        <ele>823</ele>
        <time>2019-03-23T00:06:35Z</time>
      </trkpt>
      <trkpt lat="46.61345" lon="5.89708">
        <ele>823</ele>
        <time>2019-03-23T00:07:35Z</time>
      </trkpt>
      <trkpt lat="46.61348" lon="5.89697">
        <ele>822</ele>
        <time>2019-03-23T00:08:35Z</time>
      </trkpt>
      <trkpt lat="46.61345" lon="5.89683">
        <ele>821</ele>
        <time>2019-03-23T00:09:35Z</time>
      </trkpt>
      <trkpt lat="46.61344" lon="5.8967">
        <ele>820</ele>
        <time>2019-03-23T00:10:35Z</time>
      </trkpt>
      <trkpt lat="46.61341" lon="5.89656">
        <ele>819</ele>
        <time>2019-03-23T00:11:35Z</time>
      </trkpt>
      <trkpt lat="46.61336" lon="5.89629">
        <ele>819</ele>
        <time>2019-03-23T00:12:35Z</time>
      </trkpt>
      <trkpt lat="46.61332" lon="5.89616">
        <ele>819</ele>
        <time>2019-03-23T00:13:35Z</time>
      </trkpt>
      <trkpt lat="46.61311" lon="5.89563">
        <ele>818</ele>
        <time>2019-03-23T00:14:35Z</time>
      </trkpt>
      <trkpt lat="46.61299" lon="5.89536">
        <ele>818</ele>
        <time>2019-03-23T00:15:35Z</time>
      </trkpt>
      <trkpt lat="46.61296" lon="5.89523">
        <ele>818</ele>
        <time>2019-03-23T00:16:35Z</time>
      </trkpt>
      <trkpt lat="46.61294" lon="5.89513">
        <ele>818</ele>
        <time>2019-03-23T00:17:35Z</time>
      </trkpt>
      <trkpt lat="46.61291" lon="5.89504">
        <ele>818</ele>
        <time>2019-03-23T00:18:35Z</time>
      </trkpt>
      <trkpt lat="46.61288" lon="5.89496">
        <ele>818</ele>
        <time>2019-03-23T00:19:35Z</time>
      </trkpt>
      <trkpt lat="46.61284" lon="5.89502">
        <ele>819</ele>
        <time>2019-03-23T00:20:35Z</time>
      </trkpt>
      <trkpt lat="46.61279" lon="5.89504">
        <ele>819</ele>
        <time>2019-03-23T00:21:35Z</time>
      </trkpt>
      <trkpt lat="46.61275" lon="5.89508">
        <ele>819</ele>
        <time>2019-03-23T00:22:35Z</time>
      </trkpt>
      <trkpt lat="46.61278" lon="5.89503">
        <ele>819</ele>
        <time>2019-03-23T00:23:35Z</time>
      </trkpt>
      <trkpt lat="46.61284" lon="5.89501">
        <ele>819</ele>
        <time>2019-03-23T00:24:35Z</time>
      </trkpt>
      <trkpt lat="46.61283" lon="5.89486">
        <ele>817</ele>
        <time>2019-03-23T00:25:35Z</time>
      </trkpt>
      <trkpt lat="46.61289" lon="5.89471">
        <ele>816</ele>
        <time>2019-03-23T00:26:35Z</time>
      </trkpt>
      <trkpt lat="46.61295" lon="5.89467">
        <ele>816</ele>
        <time>2019-03-23T00:27:35Z</time>
      </trkpt>
      <trkpt lat="46.613" lon="5.89464">
        <ele>815</ele>
        <time>2019-03-23T00:28:35Z</time>
      </trkpt>
      <trkpt lat="46.61304" lon="5.89466">
        <ele>816</ele>
        <time>2019-03-23T00:29:35Z</time>
      </trkpt>
      <trkpt lat="46.6132" lon="5.89459">
        <ele>815</ele>
        <time>2019-03-23T00:30:35Z</time>
      </trkpt>
      <trkpt lat="46.61325" lon="5.89456">
        <ele>815</ele>
        <time>2019-03-23T00:31:35Z</time>
      </trkpt>
      <trkpt lat="46.61329" lon="5.89452">
        <ele>815</ele>
        <time>2019-03-23T00:32:35Z</time>
      </trkpt>
      <trkpt lat="46.61332" lon="5.89447">
        <ele>814</ele>
        <time>2019-03-23T00:33:35Z</time>
      </trkpt>
      <trkpt lat="46.61335" lon="5.8944">
        <ele>814</ele>
        <time>2019-03-23T00:34:35Z</time>
      </trkpt>
      <trkpt lat="46.61336" lon="5.89425">
        <ele>813</ele>
        <time>2019-03-23T00:35:35Z</time>
      </trkpt>
      <trkpt lat="46.61335" lon="5.89411">
        <ele>811</ele>
        <time>2019-03-23T00:36:35Z</time>
      </trkpt>
      <trkpt lat="46.61331" lon="5.89398">
        <ele>810</ele>
        <time>2019-03-23T00:37:35Z</time>
      </trkpt>
      <trkpt lat="46.61331" lon="5.89382">
        <ele>809</ele>
        <time>2019-03-23T00:38:35Z</time>
      </trkpt>
      <trkpt lat="46.61333" lon="5.8937">
        <ele>808</ele>
        <time>2019-03-23T00:39:35Z</time>
      </trkpt>
      <trkpt lat="46.61318" lon="5.89361">
        <ele>807</ele>
        <time>2019-03-23T00:40:35Z</time>
      </trkpt>
      <trkpt lat="46.61313" lon="5.8935">
        <ele>805</ele>
        <time>2019-03-23T00:41:35Z</time>
      </trkpt>
      <trkpt lat="46.61308" lon="5.89337">
        <ele>804</ele>
        <time>2019-03-23T00:42:35Z</time>
      </trkpt>
      <trkpt lat="46.61314" lon="5.89322">
        <ele>802</ele>
        <time>2019-03-23T00:43:35Z</time>
      </trkpt>
      <trkpt lat="46.61327" lon="5.8927">
        <ele>795</ele>
        <time>2019-03-23T00:44:35Z</time>
      </trkpt>
      <trkpt lat="46.6133" lon="5.89262">
        <ele>794</ele>
        <time>2019-03-23T00:45:35Z</time>
      </trkpt>
      <trkpt lat="46.61333" lon="5.89257">
        <ele>793</ele>
        <time>2019-03-23T00:46:35Z</time>
      </trkpt>
      <trkpt lat="46.61339" lon="5.89245">
        <ele>792</ele>
        <time>2019-03-23T00:47:35Z</time>
      </trkpt>
      <trkpt lat="46.61345" lon="5.89233">
        <ele>792</ele>
        <time>2019-03-23T00:48:35Z</time>
      </trkpt>
      <trkpt lat="46.61349" lon="5.89228">
        <ele>792</ele>
        <time>2019-03-23T00:49:35Z</time>
      </trkpt>
      <trkpt lat="46.61353" lon="5.89224">
        <ele>792</ele>
        <time>2019-03-23T00:50:35Z</time>
      </trkpt>
      <trkpt lat="46.61362" lon="5.89218">
        <ele>792</ele>
        <time>2019-03-23T00:51:35Z</time>
      </trkpt>
      <trkpt lat="46.61366" lon="5.89213">
        <ele>792</ele>
        <time>2019-03-23T00:52:35Z</time>
      </trkpt>
      <trkpt lat="46.61371" lon="5.89209">
        <ele>792</ele>
        <time>2019-03-23T00:53:35Z</time>
      </trkpt>
      <trkpt lat="46.61379" lon="5.89199">
        <ele>791</ele>
        <time>2019-03-23T00:54:35Z</time>
      </trkpt>
      <trkpt lat="46.61384" lon="5.89193">
        <ele>791</ele>
        <time>2019-03-23T00:55:35Z</time>
      </trkpt>
      <trkpt lat="46.61391" lon="5.89182">
        <ele>790</ele>
        <time>2019-03-23T00:56:35Z</time>
      </trkpt>
      <trkpt lat="46.61394" lon="5.89177">
        <ele>790</ele>
        <time>2019-03-23T00:57:35Z</time>
      </trkpt>
      <trkpt lat="46.61403" lon="5.89172">
        <ele>790</ele>
        <time>2019-03-23T00:58:35Z</time>
      </trkpt>
      <trkpt lat="46.61408" lon="5.89169">
        <ele>790</ele>
        <time>2019-03-23T00:59:35Z</time>
      </trkpt>
      <trkpt lat="46.61413" lon="5.89168">
        <ele>790</ele>
        <time>2019-03-23T01:00:35Z</time>
      </trkpt>
      <trkpt lat="46.61421" lon="5.89159">
        <ele>789</ele>
        <time>2019-03-23T01:01:35Z</time>
      </trkpt>
      <trkpt lat="46.61426" lon="5.89156">
        <ele>789</ele>
        <time>2019-03-23T01:02:35Z</time>
      </trkpt>
      <trkpt lat="46.61432" lon="5.89156">
        <ele>789</ele>
        <time>2019-03-23T01:03:35Z</time>
      </trkpt>
      <trkpt lat="46.61456" lon="5.89158">
        <ele>789</ele>
        <time>2019-03-23T01:04:35Z</time>
      </trkpt>
      <trkpt lat="46.6146" lon="5.89156">
        <ele>789</ele>
        <time>2019-03-23T01:05:35Z</time>
      </trkpt>
      <trkpt lat="46.61469" lon="5.8915">
        <ele>789</ele>
        <time>2019-03-23T01:06:35Z</time>
      </trkpt>
      <trkpt lat="46.61489" lon="5.89142">
        <ele>788</ele>
        <time>2019-03-23T01:07:35Z</time>
      </trkpt>
      <trkpt lat="46.61497" lon="5.89143">
        <ele>788</ele>
        <time>2019-03-23T01:08:35Z</time>
      </trkpt>
      <trkpt lat="46.61507" lon="5.89139">
        <ele>787</ele>
        <time>2019-03-23T01:09:35Z</time>
      </trkpt>
      <trkpt lat="46.61517" lon="5.8913">
        <ele>786</ele>
        <time>2019-03-23T01:10:35Z</time>
      </trkpt>
      <trkpt lat="46.61515" lon="5.89146">
        <ele>788</ele>
        <time>2019-03-23T01:11:35Z</time>
      </trkpt>
      <trkpt lat="46.61514" lon="5.89135">
        <ele>787</ele>
        <time>2019-03-23T01:12:35Z</time>
      </trkpt>
      <trkpt lat="46.61518" lon="5.89134">
        <ele>787</ele>
        <time>2019-03-23T01:13:35Z</time>
      </trkpt>
      <trkpt lat="46.61522" lon="5.89123">
        <ele>785</ele>
        <time>2019-03-23T01:14:35Z</time>
      </trkpt>
      <trkpt lat="46.61526" lon="5.89118">
        <ele>785</ele>
        <time>2019-03-23T01:15:35Z</time>
      </trkpt>
      <trkpt lat="46.61535" lon="5.89112">
        <ele>784</ele>
        <time>2019-03-23T01:16:35Z</time>
      </trkpt>
      <trkpt lat="46.6154" lon="5.8911">
        <ele>784</ele>
        <time>2019-03-23T01:17:35Z</time>
      </trkpt>
      <trkpt lat="46.61545" lon="5.89111">
        <ele>784</ele>
        <time>2019-03-23T01:18:35Z</time>
      </trkpt>
      <trkpt lat="46.6155" lon="5.89114">
        <ele>784</ele>
        <time>2019-03-23T01:19:35Z</time>
      </trkpt>
      <trkpt lat="46.61562" lon="5.89108">
        <ele>784</ele>
        <time>2019-03-23T01:20:35Z</time>
      </trkpt>
      <trkpt lat="46.61565" lon="5.89104">
        <ele>783</ele>
        <time>2019-03-23T01:21:35Z</time>
      </trkpt>
      <trkpt lat="46.6157" lon="5.89102">
        <ele>783</ele>
        <time>2019-03-23T01:22:35Z</time>
      </trkpt>
      <trkpt lat="46.61575" lon="5.89099">
        <ele>783</ele>
        <time>2019-03-23T01:23:35Z</time>
      </trkpt>
      <trkpt lat="46.6158" lon="5.89099">
        <ele>783</ele>
        <time>2019-03-23T01:24:35Z</time>
      </trkpt>
      <trkpt lat="46.6159" lon="5.89102">
        <ele>783</ele>
        <time>2019-03-23T01:25:35Z</time>
      </trkpt>
      <trkpt lat="46.61598" lon="5.89108">
        <ele>783</ele>
        <time>2019-03-23T01:26:35Z</time>
      </trkpt>
      <trkpt lat="46.61603" lon="5.89109">
        <ele>783</ele>
        <time>2019-03-23T01:27:35Z</time>
      </trkpt>
      <trkpt lat="46.61616" lon="5.89108">
        <ele>783</ele>
        <time>2019-03-23T01:28:35Z</time>
      </trkpt>
      <trkpt lat="46.61621" lon="5.89105">
        <ele>782</ele>
        <time>2019-03-23T01:29:35Z</time>
      </trkpt>
      <trkpt lat="46.61625" lon="5.891">
        <ele>782</ele>
        <time>2019-03-23T01:30:35Z</time>
      </trkpt>
      <trkpt lat="46.61627" lon="5.89092">
        <ele>782</ele>
        <time>2019-03-23T01:31:35Z</time>
      </trkpt>
      <trkpt lat="46.61628" lon="5.89077">
        <ele>781</ele>
        <time>2019-03-23T01:32:35Z</time>
      </trkpt>
      <trkpt lat="46.61629" lon="5.8907">
        <ele>782</ele>
        <time>2019-03-23T01:33:35Z</time>
      </trkpt>
      <trkpt lat="46.61633" lon="5.89049">
        <ele>783</ele>
        <time>2019-03-23T01:34:35Z</time>
      </trkpt>
      <trkpt lat="46.61635" lon="5.89026">
        <ele>785</ele>
        <time>2019-03-23T01:35:35Z</time>
      </trkpt>
      <trkpt lat="46.61638" lon="5.89012">
        <ele>785</ele>
        <time>2019-03-23T01:36:35Z</time>
      </trkpt>
      <trkpt lat="46.61643" lon="5.89001">
        <ele>786</ele>
        <time>2019-03-23T01:37:35Z</time>
      </trkpt>
      <trkpt lat="46.61652" lon="5.88993">
        <ele>786</ele>
        <time>2019-03-23T01:38:35Z</time>
      </trkpt>
      <trkpt lat="46.61656" lon="5.88989">
        <ele>786</ele>
        <time>2019-03-23T01:39:35Z</time>
      </trkpt>
      <trkpt lat="46.61665" lon="5.88983">
        <ele>786</ele>
        <time>2019-03-23T01:40:35Z</time>
      </trkpt>
      <trkpt lat="46.6167" lon="5.88981">
        <ele>786</ele>
        <time>2019-03-23T01:41:35Z</time>
      </trkpt>
      <trkpt lat="46.61675" lon="5.8898">
        <ele>786</ele>
        <time>2019-03-23T01:42:35Z</time>
      </trkpt>
      <trkpt lat="46.6168" lon="5.88979">
        <ele>786</ele>
        <time>2019-03-23T01:43:35Z</time>
      </trkpt>
      <trkpt lat="46.617" lon="5.88976">
        <ele>786</ele>
        <time>2019-03-23T01:44:35Z</time>
      </trkpt>
      <trkpt lat="46.61711" lon="5.88977">
        <ele>785</ele>
        <time>2019-03-23T01:45:35Z</time>
      </trkpt>
      <trkpt lat="46.6172" lon="5.8898">
        <ele>784</ele>
        <time>2019-03-23T01:46:35Z</time>
      </trkpt>
      <trkpt lat="46.61731" lon="5.88985">
        <ele>783</ele>
        <time>2019-03-23T01:47:35Z</time>
      </trkpt>
      <trkpt lat="46.6174" lon="5.88993">
        <ele>782</ele>
        <time>2019-03-23T01:48:35Z</time>
      </trkpt>
      <trkpt lat="46.61749" lon="5.88999">
        <ele>781</ele>
        <time>2019-03-23T01:49:35Z</time>
      </trkpt>
      <trkpt lat="46.61754" lon="5.89005">
        <ele>780</ele>
        <time>2019-03-23T01:50:35Z</time>
      </trkpt>
      <trkpt lat="46.61764" lon="5.89011">
        <ele>779</ele>
        <time>2019-03-23T01:51:35Z</time>
      </trkpt>
      <trkpt lat="46.6177" lon="5.89011">
        <ele>779</ele>
        <time>2019-03-23T01:52:35Z</time>
      </trkpt>
      <trkpt lat="46.61775" lon="5.89007">
        <ele>779</ele>
        <time>2019-03-23T01:53:35Z</time>
      </trkpt>
      <trkpt lat="46.61779" lon="5.89004">
        <ele>779</ele>
        <time>2019-03-23T01:54:35Z</time>
      </trkpt>
      <trkpt lat="46.61791" lon="5.8899">
        <ele>779</ele>
        <time>2019-03-23T01:55:35Z</time>
      </trkpt>
      <trkpt lat="46.61794" lon="5.88985">
        <ele>780</ele>
        <time>2019-03-23T01:56:35Z</time>
      </trkpt>
      <trkpt lat="46.61803" lon="5.88977">
        <ele>780</ele>
        <time>2019-03-23T01:57:35Z</time>
      </trkpt>
      <trkpt lat="46.61807" lon="5.88973">
        <ele>780</ele>
        <time>2019-03-23T01:58:35Z</time>
      </trkpt>
      <trkpt lat="46.61814" lon="5.88962">
        <ele>780</ele>
        <time>2019-03-23T01:59:35Z</time>
      </trkpt>
      <trkpt lat="46.61824" lon="5.88941">
        <ele>780</ele>
        <time>2019-03-23T02:00:35Z</time>
      </trkpt>
      <trkpt lat="46.61825" lon="5.88935">
        <ele>780</ele>
        <time>2019-03-23T02:01:35Z</time>
      </trkpt>
      <trkpt lat="46.61826" lon="5.88927">
        <ele>780</ele>
        <time>2019-03-23T02:02:35Z</time>
      </trkpt>
      <trkpt lat="46.61827" lon="5.88911">
        <ele>781</ele>
        <time>2019-03-23T02:03:35Z</time>
      </trkpt>
      <trkpt lat="46.61829" lon="5.88897">
        <ele>780</ele>
        <time>2019-03-23T02:04:35Z</time>
      </trkpt>
      <trkpt lat="46.61831" lon="5.8889">
        <ele>779</ele>
        <time>2019-03-23T02:05:35Z</time>
      </trkpt>
      <trkpt lat="46.6183" lon="5.88882">
        <ele>779</ele>
        <time>2019-03-23T02:06:35Z</time>
      </trkpt>
      <trkpt lat="46.61831" lon="5.88875">
        <ele>778</ele>
        <time>2019-03-23T02:07:35Z</time>
      </trkpt>
      <trkpt lat="46.61835" lon="5.88845">
        <ele>777</ele>
        <time>2019-03-23T02:08:35Z</time>
      </trkpt>
      <trkpt lat="46.61836" lon="5.88831">
        <ele>776</ele>
        <time>2019-03-23T02:09:35Z</time>
      </trkpt>
      <trkpt lat="46.61839" lon="5.88817">
        <ele>776</ele>
        <time>2019-03-23T02:10:35Z</time>
      </trkpt>
      <trkpt lat="46.61843" lon="5.88803">
        <ele>776</ele>
        <time>2019-03-23T02:11:35Z</time>
      </trkpt>
      <trkpt lat="46.61841" lon="5.88789">
        <ele>776</ele>
        <time>2019-03-23T02:12:35Z</time>
      </trkpt>
      <trkpt lat="46.61839" lon="5.88775">
        <ele>777</ele>
        <time>2019-03-23T02:13:35Z</time>
      </trkpt>
      <trkpt lat="46.61838" lon="5.88752">
        <ele>777</ele>
        <time>2019-03-23T02:14:35Z</time>
      </trkpt>
      <trkpt lat="46.61836" lon="5.88746">
        <ele>777</ele>
        <time>2019-03-23T02:15:35Z</time>
      </trkpt>
      <trkpt lat="46.61836" lon="5.8873">
        <ele>778</ele>
        <time>2019-03-23T02:16:35Z</time>
      </trkpt>
      <trkpt lat="46.61837" lon="5.88723">
        <ele>778</ele>
        <time>2019-03-23T02:17:35Z</time>
      </trkpt>
      <trkpt lat="46.61835" lon="5.88702">
        <ele>779</ele>
        <time>2019-03-23T02:18:35Z</time>
      </trkpt>
      <trkpt lat="46.61829" lon="5.88691">
        <ele>779</ele>
        <time>2019-03-23T02:19:35Z</time>
      </trkpt>
      <trkpt lat="46.61823" lon="5.88657">
        <ele>780</ele>
        <time>2019-03-23T02:20:35Z</time>
      </trkpt>
      <trkpt lat="46.61821" lon="5.8865">
        <ele>781</ele>
        <time>2019-03-23T02:21:35Z</time>
      </trkpt>
      <trkpt lat="46.61818" lon="5.88643">
        <ele>781</ele>
        <time>2019-03-23T02:22:35Z</time>
      </trkpt>
      <trkpt lat="46.61814" lon="5.88637">
        <ele>781</ele>
        <time>2019-03-23T02:23:35Z</time>
      </trkpt>
      <trkpt lat="46.61808" lon="5.88623">
        <ele>782</ele>
        <time>2019-03-23T02:24:35Z</time>
      </trkpt>
      <trkpt lat="46.61807" lon="5.88616">
        <ele>782</ele>
        <time>2019-03-23T02:25:35Z</time>
      </trkpt>
      <trkpt lat="46.61809" lon="5.88593">
        <ele>784</ele>
        <time>2019-03-23T02:26:35Z</time>
      </trkpt>
      <trkpt lat="46.61808" lon="5.88579">
        <ele>784</ele>
        <time>2019-03-23T02:27:35Z</time>
      </trkpt>
      <trkpt lat="46.61809" lon="5.88564">
        <ele>785</ele>
        <time>2019-03-23T02:28:35Z</time>
      </trkpt>
      <trkpt lat="46.61811" lon="5.88556">
        <ele>785</ele>
        <time>2019-03-23T02:29:35Z</time>
      </trkpt>
      <trkpt lat="46.61811" lon="5.88548">
        <ele>785</ele>
        <time>2019-03-23T02:30:35Z</time>
      </trkpt>
      <trkpt lat="46.61807" lon="5.88528">
        <ele>785</ele>
        <time>2019-03-23T02:31:35Z</time>
      </trkpt>
      <trkpt lat="46.61807" lon="5.8852">
        <ele>786</ele>
        <time>2019-03-23T02:32:35Z</time>
      </trkpt>
      <trkpt lat="46.61809" lon="5.88507">
        <ele>786</ele>
        <time>2019-03-23T02:33:35Z</time>
      </trkpt>
      <trkpt lat="46.61809" lon="5.885">
        <ele>786</ele>
        <time>2019-03-23T02:34:35Z</time>
      </trkpt>
      <trkpt lat="46.61806" lon="5.88486">
        <ele>786</ele>
        <time>2019-03-23T02:35:35Z</time>
      </trkpt>
      <trkpt lat="46.61809" lon="5.8847">
        <ele>786</ele>
        <time>2019-03-23T02:36:35Z</time>
      </trkpt>
      <trkpt lat="46.61813" lon="5.88457">
        <ele>787</ele>
        <time>2019-03-23T02:37:35Z</time>
      </trkpt>
      <trkpt lat="46.61813" lon="5.88443">
        <ele>787</ele>
        <time>2019-03-23T02:38:35Z</time>
      </trkpt>
      <trkpt lat="46.61815" lon="5.88428">
        <ele>787</ele>
        <time>2019-03-23T02:39:35Z</time>
      </trkpt>
      <trkpt lat="46.61813" lon="5.88415">
        <ele>787</ele>
        <time>2019-03-23T02:40:35Z</time>
      </trkpt>
      <trkpt lat="46.61813" lon="5.88397">
        <ele>785</ele>
        <time>2019-03-23T02:41:35Z</time>
      </trkpt>
      <trkpt lat="46.61817" lon="5.88385">
        <ele>784</ele>
        <time>2019-03-23T02:42:35Z</time>
      </trkpt>
      <trkpt lat="46.61826" lon="5.8838">
        <ele>785</ele>
        <time>2019-03-23T02:43:35Z</time>
      </trkpt>
      <trkpt lat="46.61836" lon="5.88372">
        <ele>785</ele>
        <time>2019-03-23T02:44:35Z</time>
      </trkpt>
      <trkpt lat="46.61862" lon="5.88331">
        <ele>785</ele>
        <time>2019-03-23T02:45:35Z</time>
      </trkpt>
      <trkpt lat="46.61869" lon="5.88322">
        <ele>785</ele>
        <time>2019-03-23T02:46:35Z</time>
      </trkpt>
      <trkpt lat="46.61884" lon="5.88288">
        <ele>782</ele>
        <time>2019-03-23T02:47:35Z</time>
      </trkpt>
      <trkpt lat="46.6189" lon="5.88276">
        <ele>780</ele>
        <time>2019-03-23T02:48:35Z</time>
      </trkpt>
      <trkpt lat="46.61898" lon="5.88238">
        <ele>776</ele>
        <time>2019-03-23T02:49:35Z</time>
      </trkpt>
      <trkpt lat="46.61904" lon="5.88226">
        <ele>776</ele>
        <time>2019-03-23T02:50:35Z</time>
      </trkpt>
      <trkpt lat="46.61907" lon="5.88199">
        <ele>776</ele>
        <time>2019-03-23T02:51:35Z</time>
      </trkpt>
      <trkpt lat="46.61905" lon="5.88186">
        <ele>775</ele>
        <time>2019-03-23T02:52:35Z</time>
      </trkpt>
      <trkpt lat="46.61904" lon="5.88173">
        <ele>775</ele>
        <time>2019-03-23T02:53:35Z</time>
      </trkpt>
      <trkpt lat="46.61886" lon="5.88154">
        <ele>775</ele>
        <time>2019-03-23T02:54:35Z</time>
      </trkpt>
      <trkpt lat="46.6188" lon="5.88157">
        <ele>775</ele>
        <time>2019-03-23T02:55:35Z</time>
      </trkpt>
      <trkpt lat="46.61875" lon="5.88159">
        <ele>774</ele>
        <time>2019-03-23T02:56:35Z</time>
      </trkpt>
      <trkpt lat="46.61861" lon="5.88161">
        <ele>774</ele>
        <time>2019-03-23T02:57:35Z</time>
      </trkpt>
      <trkpt lat="46.61856" lon="5.88163">
        <ele>774</ele>
        <time>2019-03-23T02:58:35Z</time>
      </trkpt>
      <trkpt lat="46.61836" lon="5.88165">
        <ele>773</ele>
        <time>2019-03-23T02:59:35Z</time>
      </trkpt>
      <trkpt lat="46.61831" lon="5.88166">
        <ele>773</ele>
        <time>2019-03-23T03:00:35Z</time>
      </trkpt>
      <trkpt lat="46.61826" lon="5.88164">
        <ele>773</ele>
        <time>2019-03-23T03:01:35Z</time>
      </trkpt>
      <trkpt lat="46.61822" lon="5.88161">
        <ele>773</ele>
        <time>2019-03-23T03:02:35Z</time>
      </trkpt>
      <trkpt lat="46.61818" lon="5.88157">
        <ele>773</ele>
        <time>2019-03-23T03:03:35Z</time>
      </trkpt>
      <trkpt lat="46.61812" lon="5.88153">
        <ele>772</ele>
        <time>2019-03-23T03:04:35Z</time>
      </trkpt>
      <trkpt lat="46.61807" lon="5.88152">
        <ele>772</ele>
        <time>2019-03-23T03:05:35Z</time>
      </trkpt>
      <trkpt lat="46.61797" lon="5.88147">
        <ele>772</ele>
        <time>2019-03-23T03:06:35Z</time>
      </trkpt>
      <trkpt lat="46.61793" lon="5.88143">
        <ele>772</ele>
        <time>2019-03-23T03:07:35Z</time>
      </trkpt>
      <trkpt lat="46.61789" lon="5.8814">
        <ele>772</ele>
        <time>2019-03-23T03:08:35Z</time>
      </trkpt>
      <trkpt lat="46.61775" lon="5.88134">
        <ele>771</ele>
        <time>2019-03-23T03:09:35Z</time>
      </trkpt>
      <trkpt lat="46.61771" lon="5.88129">
        <ele>771</ele>
        <time>2019-03-23T03:10:35Z</time>
      </trkpt>
      <trkpt lat="46.61767" lon="5.88125">
        <ele>771</ele>
        <time>2019-03-23T03:11:35Z</time>
      </trkpt>
      <trkpt lat="46.61762" lon="5.88125">
        <ele>771</ele>
        <time>2019-03-23T03:12:35Z</time>
      </trkpt>
      <trkpt lat="46.61757" lon="5.88124">
        <ele>770</ele>
        <time>2019-03-23T03:13:35Z</time>
      </trkpt>
      <trkpt lat="46.61753" lon="5.88125">
        <ele>770</ele>
        <time>2019-03-23T03:14:35Z</time>
      </trkpt>
      <trkpt lat="46.61743" lon="5.88128">
        <ele>770</ele>
        <time>2019-03-23T03:15:35Z</time>
      </trkpt>
      <trkpt lat="46.61738" lon="5.88132">
        <ele>769</ele>
        <time>2019-03-23T03:16:35Z</time>
      </trkpt>
      <trkpt lat="46.61732" lon="5.88134">
        <ele>769</ele>
        <time>2019-03-23T03:17:35Z</time>
      </trkpt>
      <trkpt lat="46.61723" lon="5.88139">
        <ele>768</ele>
        <time>2019-03-23T03:18:35Z</time>
      </trkpt>
      <trkpt lat="46.61716" lon="5.88141">
        <ele>768</ele>
        <time>2019-03-23T03:19:35Z</time>
      </trkpt>
      <trkpt lat="46.61706" lon="5.88143">
        <ele>768</ele>
        <time>2019-03-23T03:20:35Z</time>
      </trkpt>
      <trkpt lat="46.61698" lon="5.8815">
        <ele>767</ele>
        <time>2019-03-23T03:21:35Z</time>
      </trkpt>
      <trkpt lat="46.61693" lon="5.88153">
        <ele>767</ele>
        <time>2019-03-23T03:22:35Z</time>
      </trkpt>
      <trkpt lat="46.61683" lon="5.88158">
        <ele>766</ele>
        <time>2019-03-23T03:23:35Z</time>
      </trkpt>
      <trkpt lat="46.61679" lon="5.8816">
        <ele>766</ele>
        <time>2019-03-23T03:24:35Z</time>
      </trkpt>
      <trkpt lat="46.61675" lon="5.88164">
        <ele>765</ele>
        <time>2019-03-23T03:25:35Z</time>
      </trkpt>
      <trkpt lat="46.61665" lon="5.88169">
        <ele>765</ele>
        <time>2019-03-23T03:26:35Z</time>
      </trkpt>
      <trkpt lat="46.61661" lon="5.88172">
        <ele>765</ele>
        <time>2019-03-23T03:27:35Z</time>
      </trkpt>
      <trkpt lat="46.61654" lon="5.88173">
        <ele>764</ele>
        <time>2019-03-23T03:28:35Z</time>
      </trkpt>
      <trkpt lat="46.61648" lon="5.88172">
        <ele>764</ele>
        <time>2019-03-23T03:29:35Z</time>
      </trkpt>
      <trkpt lat="46.61644" lon="5.88172">
        <ele>764</ele>
        <time>2019-03-23T03:30:35Z</time>
      </trkpt>
      <trkpt lat="46.61619" lon="5.88165">
        <ele>763</ele>
        <time>2019-03-23T03:31:35Z</time>
      </trkpt>
      <trkpt lat="46.61608" lon="5.88166">
        <ele>762</ele>
        <time>2019-03-23T03:32:35Z</time>
      </trkpt>
      <trkpt lat="46.61595" lon="5.88174">
        <ele>761</ele>
        <time>2019-03-23T03:33:35Z</time>
      </trkpt>
      <trkpt lat="46.61589" lon="5.88176">
        <ele>761</ele>
        <time>2019-03-23T03:34:35Z</time>
      </trkpt>
      <trkpt lat="46.61585" lon="5.88179">
        <ele>760</ele>
        <time>2019-03-23T03:35:35Z</time>
      </trkpt>
      <trkpt lat="46.61567" lon="5.88188">
        <ele>759</ele>
        <time>2019-03-23T03:36:35Z</time>
      </trkpt>
      <trkpt lat="46.61563" lon="5.88189">
        <ele>759</ele>
        <time>2019-03-23T03:37:35Z</time>
      </trkpt>
      <trkpt lat="46.61557" lon="5.8819">
        <ele>759</ele>
        <time>2019-03-23T03:38:35Z</time>
      </trkpt>
      <trkpt lat="46.61552" lon="5.88193">
        <ele>758</ele>
        <time>2019-03-23T03:39:35Z</time>
      </trkpt>
      <trkpt lat="46.61547" lon="5.88196">
        <ele>758</ele>
        <time>2019-03-23T03:40:35Z</time>
      </trkpt>
      <trkpt lat="46.61542" lon="5.88198">
        <ele>758</ele>
        <time>2019-03-23T03:41:35Z</time>
      </trkpt>
      <trkpt lat="46.61537" lon="5.882">
        <ele>757</ele>
        <time>2019-03-23T03:42:35Z</time>
      </trkpt>
      <trkpt lat="46.61532" lon="5.88203">
        <ele>757</ele>
        <time>2019-03-23T03:43:35Z</time>
      </trkpt>
      <trkpt lat="46.61524" lon="5.88211">
        <ele>756</ele>
        <time>2019-03-23T03:44:35Z</time>
      </trkpt>
      <trkpt lat="46.61516" lon="5.8822">
        <ele>755</ele>
        <time>2019-03-23T03:45:35Z</time>
      </trkpt>
      <trkpt lat="46.61498" lon="5.88229">
        <ele>754</ele>
        <time>2019-03-23T03:46:35Z</time>
      </trkpt>
      <trkpt lat="46.6148" lon="5.88238">
        <ele>752</ele>
        <time>2019-03-23T03:47:35Z</time>
      </trkpt>
      <trkpt lat="46.61471" lon="5.88243">
        <ele>751</ele>
        <time>2019-03-23T03:48:35Z</time>
      </trkpt>
      <trkpt lat="46.61436" lon="5.88264">
        <ele>748</ele>
        <time>2019-03-23T03:49:35Z</time>
      </trkpt>
      <trkpt lat="46.61428" lon="5.88269">
        <ele>747</ele>
        <time>2019-03-23T03:50:35Z</time>
      </trkpt>
      <trkpt lat="46.61419" lon="5.88276">
        <ele>746</ele>
        <time>2019-03-23T03:51:35Z</time>
      </trkpt>
      <trkpt lat="46.61383" lon="5.88296">
        <ele>742</ele>
        <time>2019-03-23T03:52:35Z</time>
      </trkpt>
      <trkpt lat="46.61376" lon="5.88304">
        <ele>741</ele>
        <time>2019-03-23T03:53:35Z</time>
      </trkpt>
      <trkpt lat="46.61369" lon="5.8831">
        <ele>741</ele>
        <time>2019-03-23T03:54:35Z</time>
      </trkpt>
      <trkpt lat="46.61333" lon="5.88337">
        <ele>739</ele>
        <time>2019-03-23T03:55:35Z</time>
      </trkpt>
      <trkpt lat="46.61324" lon="5.88338">
        <ele>740</ele>
        <time>2019-03-23T03:56:35Z</time>
      </trkpt>
      <trkpt lat="46.61288" lon="5.88353">
        <ele>742</ele>
        <time>2019-03-23T03:57:35Z</time>
      </trkpt>
      <trkpt lat="46.61272" lon="5.88371">
        <ele>746</ele>
        <time>2019-03-23T03:58:35Z</time>
      </trkpt>
      <trkpt lat="46.61266" lon="5.88381">
        <ele>748</ele>
        <time>2019-03-23T03:59:35Z</time>
      </trkpt>
      <trkpt lat="46.61233" lon="5.88372">
        <ele>748</ele>
        <time>2019-03-23T04:00:35Z</time>
      </trkpt>
      <trkpt lat="46.61229" lon="5.88369">
        <ele>747</ele>
        <time>2019-03-23T04:01:35Z</time>
      </trkpt>
      <trkpt lat="46.61221" lon="5.8836">
        <ele>746</ele>
        <time>2019-03-23T04:02:35Z</time>
      </trkpt>
      <trkpt lat="46.61217" lon="5.88357">
        <ele>745</ele>
        <time>2019-03-23T04:03:35Z</time>
      </trkpt>
      <trkpt lat="46.61207" lon="5.88352">
        <ele>744</ele>
        <time>2019-03-23T04:04:35Z</time>
      </trkpt>
      <trkpt lat="46.61203" lon="5.88349">
        <ele>744</ele>
        <time>2019-03-23T04:05:35Z</time>
      </trkpt>
      <trkpt lat="46.61193" lon="5.88344">
        <ele>743</ele>
        <time>2019-03-23T04:06:35Z</time>
      </trkpt>
      <trkpt lat="46.61189" lon="5.88341">
        <ele>742</ele>
        <time>2019-03-23T04:07:35Z</time>
      </trkpt>
      <trkpt lat="46.61181" lon="5.88335">
        <ele>741</ele>
        <time>2019-03-23T04:08:35Z</time>
      </trkpt>
      <trkpt lat="46.61176" lon="5.88334">
        <ele>741</ele>
        <time>2019-03-23T04:09:35Z</time>
      </trkpt>
      <trkpt lat="46.61168" lon="5.88327">
        <ele>740</ele>
        <time>2019-03-23T04:10:35Z</time>
      </trkpt>
      <trkpt lat="46.61164" lon="5.88322">
        <ele>740</ele>
        <time>2019-03-23T04:11:35Z</time>
      </trkpt>
      <trkpt lat="46.61161" lon="5.88317">
        <ele>741</ele>
        <time>2019-03-23T04:12:35Z</time>
      </trkpt>
      <trkpt lat="46.61162" lon="5.88308">
        <ele>739</ele>
        <time>2019-03-23T04:13:35Z</time>
      </trkpt>
      <trkpt lat="46.61167" lon="5.88296">
        <ele>737</ele>
        <time>2019-03-23T04:14:35Z</time>
      </trkpt>
      <trkpt lat="46.61169" lon="5.88282">
        <ele>735</ele>
        <time>2019-03-23T04:15:35Z</time>
      </trkpt>
      <trkpt lat="46.61168" lon="5.88275">
        <ele>735</ele>
        <time>2019-03-23T04:16:35Z</time>
      </trkpt>
      <trkpt lat="46.61163" lon="5.88255">
        <ele>733</ele>
        <time>2019-03-23T04:17:35Z</time>
      </trkpt>
      <trkpt lat="46.61166" lon="5.8825">
        <ele>732</ele>
        <time>2019-03-23T04:18:35Z</time>
      </trkpt>
      <trkpt lat="46.61129" lon="5.88197">
        <ele>736</ele>
        <time>2019-03-23T04:19:35Z</time>
      </trkpt>
      <trkpt lat="46.61112" lon="5.88185">
        <ele>738</ele>
        <time>2019-03-23T04:20:35Z</time>
      </trkpt>
      <trkpt lat="46.61093" lon="5.88151">
        <ele>739</ele>
        <time>2019-03-23T04:21:35Z</time>
      </trkpt>
      <trkpt lat="46.61088" lon="5.88141">
        <ele>740</ele>
        <time>2019-03-23T04:22:35Z</time>
      </trkpt>
      <trkpt lat="46.61082" lon="5.88113">
        <ele>741</ele>
        <time>2019-03-23T04:23:35Z</time>
      </trkpt>
      <trkpt lat="46.61083" lon="5.88099">
        <ele>740</ele>
        <time>2019-03-23T04:24:35Z</time>
      </trkpt>
      <trkpt lat="46.61096" lon="5.88077">
        <ele>738</ele>
        <time>2019-03-23T04:25:35Z</time>
      </trkpt>
      <trkpt lat="46.61105" lon="5.8807">
        <ele>737</ele>
        <time>2019-03-23T04:26:35Z</time>
      </trkpt>
      <trkpt lat="46.61121" lon="5.88036">
        <ele>737</ele>
        <time>2019-03-23T04:27:35Z</time>
      </trkpt>
      <trkpt lat="46.61137" lon="5.88018">
        <ele>734</ele>
        <time>2019-03-23T04:28:35Z</time>
      </trkpt>
      <trkpt lat="46.61137" lon="5.88003">
        <ele>735</ele>
        <time>2019-03-23T04:29:35Z</time>
      </trkpt>
      <trkpt lat="46.6114" lon="5.87992">
        <ele>735</ele>
        <time>2019-03-23T04:30:35Z</time>
      </trkpt>
      <trkpt lat="46.6115" lon="5.87984">
        <ele>734</ele>
        <time>2019-03-23T04:31:35Z</time>
      </trkpt>
      <trkpt lat="46.61166" lon="5.87969">
        <ele>732</ele>
        <time>2019-03-23T04:32:35Z</time>
      </trkpt>
      <trkpt lat="46.61172" lon="5.87958">
        <ele>732</ele>
        <time>2019-03-23T04:33:35Z</time>
      </trkpt>
      <trkpt lat="46.61193" lon="5.87929">
        <ele>732</ele>
        <time>2019-03-23T04:34:35Z</time>
      </trkpt>
      <trkpt lat="46.61198" lon="5.87903">
        <ele>734</ele>
        <time>2019-03-23T04:35:35Z</time>
      </trkpt>
      <trkpt lat="46.61201" lon="5.8789">
        <ele>734</ele>
        <time>2019-03-23T04:36:35Z</time>
      </trkpt>
      <trkpt lat="46.6121" lon="5.87867">
        <ele>735</ele>
        <time>2019-03-23T04:37:35Z</time>
      </trkpt>
      <trkpt lat="46.61219" lon="5.87854">
        <ele>734</ele>
        <time>2019-03-23T04:38:35Z</time>
      </trkpt>
      <trkpt lat="46.61226" lon="5.87841">
        <ele>734</ele>
        <time>2019-03-23T04:39:35Z</time>
      </trkpt>
      <trkpt lat="46.61231" lon="5.87829">
        <ele>734</ele>
        <time>2019-03-23T04:40:35Z</time>
      </trkpt>
      <trkpt lat="46.61232" lon="5.87816">
        <ele>734</ele>
        <time>2019-03-23T04:41:35Z</time>
      </trkpt>
      <trkpt lat="46.61234" lon="5.87774">
        <ele>737</ele>
        <time>2019-03-23T04:42:35Z</time>
      </trkpt>
      <trkpt lat="46.61233" lon="5.87761">
        <ele>738</ele>
        <time>2019-03-23T04:43:35Z</time>
      </trkpt>
      <trkpt lat="46.61245" lon="5.87739">
        <ele>737</ele>
        <time>2019-03-23T04:44:35Z</time>
      </trkpt>
      <trkpt lat="46.61248" lon="5.87727">
        <ele>737</ele>
        <time>2019-03-23T04:45:35Z</time>
      </trkpt>
      <trkpt lat="46.61253" lon="5.87716">
        <ele>737</ele>
        <time>2019-03-23T04:46:35Z</time>
      </trkpt>
      <trkpt lat="46.6126" lon="5.87706">
        <ele>737</ele>
        <time>2019-03-23T04:47:35Z</time>
      </trkpt>
      <trkpt lat="46.61276" lon="5.87655">
        <ele>738</ele>
        <time>2019-03-23T04:48:35Z</time>
      </trkpt>
      <trkpt lat="46.61275" lon="5.87642">
        <ele>738</ele>
        <time>2019-03-23T04:49:35Z</time>
      </trkpt>
      <trkpt lat="46.61277" lon="5.87628">
        <ele>738</ele>
        <time>2019-03-23T04:50:35Z</time>
      </trkpt>
      <trkpt lat="46.61291" lon="5.87591">
        <ele>737</ele>
        <time>2019-03-23T04:51:35Z</time>
      </trkpt>
      <trkpt lat="46.61297" lon="5.87583">
        <ele>736</ele>
        <time>2019-03-23T04:52:35Z</time>
      </trkpt>
      <trkpt lat="46.61297" lon="5.87566">
        <ele>736</ele>
        <time>2019-03-23T04:53:35Z</time>
      </trkpt>
      <trkpt lat="46.61298" lon="5.87539">
        <ele>735</ele>
        <time>2019-03-23T04:54:35Z</time>
      </trkpt>
      <trkpt lat="46.61303" lon="5.87525">
        <ele>734</ele>
        <time>2019-03-23T04:55:35Z</time>
      </trkpt>
      <trkpt lat="46.61309" lon="5.87516">
        <ele>732</ele>
        <time>2019-03-23T04:56:35Z</time>
      </trkpt>
      <trkpt lat="46.61319" lon="5.87509">
        <ele>729</ele>
        <time>2019-03-23T04:57:35Z</time>
      </trkpt>
      <trkpt lat="46.61327" lon="5.87505">
        <ele>727</ele>
        <time>2019-03-23T04:58:35Z</time>
      </trkpt>
      <trkpt lat="46.61346" lon="5.87487">
        <ele>726</ele>
        <time>2019-03-23T04:59:35Z</time>
      </trkpt>
      <trkpt lat="46.6135" lon="5.87475">
        <ele>727</ele>
        <time>2019-03-23T05:00:35Z</time>
      </trkpt>
      <trkpt lat="46.61354" lon="5.87461">
        <ele>727</ele>
        <time>2019-03-23T05:01:35Z</time>
      </trkpt>
      <trkpt lat="46.61362" lon="5.87451">
        <ele>728</ele>
        <time>2019-03-23T05:02:35Z</time>
      </trkpt>
      <trkpt lat="46.61363" lon="5.87439">
        <ele>728</ele>
        <time>2019-03-23T05:03:35Z</time>
      </trkpt>
      <trkpt lat="46.61372" lon="5.87427">
        <ele>728</ele>
        <time>2019-03-23T05:04:35Z</time>
      </trkpt>
      <trkpt lat="46.6138" lon="5.87418">
        <ele>728</ele>
        <time>2019-03-23T05:05:35Z</time>
      </trkpt>
      <trkpt lat="46.6139" lon="5.87403">
        <ele>728</ele>
        <time>2019-03-23T05:06:35Z</time>
      </trkpt>
      <trkpt lat="46.61385" lon="5.8739">
        <ele>728</ele>
        <time>2019-03-23T05:07:35Z</time>
      </trkpt>
      <trkpt lat="46.6137" lon="5.8737">
        <ele>728</ele>
        <time>2019-03-23T05:08:35Z</time>
      </trkpt>
      <trkpt lat="46.61363" lon="5.87349">
        <ele>728</ele>
        <time>2019-03-23T05:09:35Z</time>
      </trkpt>
      <trkpt lat="46.61357" lon="5.87337">
        <ele>728</ele>
        <time>2019-03-23T05:10:35Z</time>
      </trkpt>
      <trkpt lat="46.61358" lon="5.87325">
        <ele>728</ele>
        <time>2019-03-23T05:11:35Z</time>
      </trkpt>
      <trkpt lat="46.61349" lon="5.87295">
        <ele>726</ele>
        <time>2019-03-23T05:12:35Z</time>
      </trkpt>
      <trkpt lat="46.61346" lon="5.87288">
        <ele>726</ele>
        <time>2019-03-23T05:13:35Z</time>
      </trkpt>
      <trkpt lat="46.61347" lon="5.87282">
        <ele>725</ele>
        <time>2019-03-23T05:14:35Z</time>
      </trkpt>
      <trkpt lat="46.61346" lon="5.87275">
        <ele>725</ele>
        <time>2019-03-23T05:15:35Z</time>
      </trkpt>
      <trkpt lat="46.61343" lon="5.87268">
        <ele>725</ele>
        <time>2019-03-23T05:16:35Z</time>
      </trkpt>
      <trkpt lat="46.61342" lon="5.87261">
        <ele>724</ele>
        <time>2019-03-23T05:17:35Z</time>
      </trkpt>
      <trkpt lat="46.61338" lon="5.87255">
        <ele>724</ele>
        <time>2019-03-23T05:18:35Z</time>
      </trkpt>
      <trkpt lat="46.6134" lon="5.87249">
        <ele>724</ele>
        <time>2019-03-23T05:19:35Z</time>
      </trkpt>
      <trkpt lat="46.61339" lon="5.8724">
        <ele>724</ele>
        <time>2019-03-23T05:20:35Z</time>
      </trkpt>
      <trkpt lat="46.61335" lon="5.87235">
        <ele>724</ele>
        <time>2019-03-23T05:21:35Z</time>
      </trkpt>
      <trkpt lat="46.61332" lon="5.87219">
        <ele>724</ele>
        <time>2019-03-23T05:22:35Z</time>
      </trkpt>
      <trkpt lat="46.61331" lon="5.87213">
        <ele>724</ele>
        <time>2019-03-23T05:23:35Z</time>
      </trkpt>
      <trkpt lat="46.61334" lon="5.87181">
        <ele>723</ele>
        <time>2019-03-23T05:24:35Z</time>
      </trkpt>
      <trkpt lat="46.61336" lon="5.87166">
        <ele>723</ele>
        <time>2019-03-23T05:25:35Z</time>
      </trkpt>
      <trkpt lat="46.61336" lon="5.87152">
        <ele>723</ele>
        <time>2019-03-23T05:26:35Z</time>
      </trkpt>
      <trkpt lat="46.61339" lon="5.87124">
        <ele>724</ele>
        <time>2019-03-23T05:27:35Z</time>
      </trkpt>
      <trkpt lat="46.61341" lon="5.8711">
        <ele>724</ele>
        <time>2019-03-23T05:28:35Z</time>
      </trkpt>
      <trkpt lat="46.61342" lon="5.87076">
        <ele>724</ele>
        <time>2019-03-23T05:29:35Z</time>
      </trkpt>
      <trkpt lat="46.61338" lon="5.87063">
        <ele>724</ele>
        <time>2019-03-23T05:30:35Z</time>
      </trkpt>
      <trkpt lat="46.61345" lon="5.87037">
        <ele>723</ele>
        <time>2019-03-23T05:31:35Z</time>
      </trkpt>
      <trkpt lat="46.61342" lon="5.87023">
        <ele>723</ele>
        <time>2019-03-23T05:32:35Z</time>
      </trkpt>
      <trkpt lat="46.61347" lon="5.86999">
        <ele>723</ele>
        <time>2019-03-23T05:33:35Z</time>
      </trkpt>
      <trkpt lat="46.61351" lon="5.86986">
        <ele>722</ele>
        <time>2019-03-23T05:34:35Z</time>
      </trkpt>
      <trkpt lat="46.61355" lon="5.86956">
        <ele>721</ele>
        <time>2019-03-23T05:35:35Z</time>
      </trkpt>
      <trkpt lat="46.61358" lon="5.86942">
        <ele>721</ele>
        <time>2019-03-23T05:36:35Z</time>
      </trkpt>
      <trkpt lat="46.61362" lon="5.86928">
        <ele>720</ele>
        <time>2019-03-23T05:37:35Z</time>
      </trkpt>
      <trkpt lat="46.61365" lon="5.86917">
        <ele>719</ele>
        <time>2019-03-23T05:38:35Z</time>
      </trkpt>
      <trkpt lat="46.61373" lon="5.86909">
        <ele>719</ele>
        <time>2019-03-23T05:39:35Z</time>
      </trkpt>
      <trkpt lat="46.61385" lon="5.86895">
        <ele>718</ele>
        <time>2019-03-23T05:40:35Z</time>
      </trkpt>
      <trkpt lat="46.61391" lon="5.86886">
        <ele>717</ele>
        <time>2019-03-23T05:41:35Z</time>
      </trkpt>
      <trkpt lat="46.61391" lon="5.86873">
        <ele>718</ele>
        <time>2019-03-23T05:42:35Z</time>
      </trkpt>
      <trkpt lat="46.61393" lon="5.8688">
        <ele>717</ele>
        <time>2019-03-23T05:43:35Z</time>
      </trkpt>
      <trkpt lat="46.61397" lon="5.86875">
        <ele>716</ele>
        <time>2019-03-23T05:44:35Z</time>
      </trkpt>
      <trkpt lat="46.61401" lon="5.86866">
        <ele>716</ele>
        <time>2019-03-23T05:45:35Z</time>
      </trkpt>
      <trkpt lat="46.61409" lon="5.86847">
        <ele>715</ele>
        <time>2019-03-23T05:46:35Z</time>
      </trkpt>
      <trkpt lat="46.61412" lon="5.8684">
        <ele>715</ele>
        <time>2019-03-23T05:47:35Z</time>
      </trkpt>
      <trkpt lat="46.61413" lon="5.86833">
        <ele>715</ele>
        <time>2019-03-23T05:48:35Z</time>
      </trkpt>
      <trkpt lat="46.61415" lon="5.86824">
        <ele>715</ele>
        <time>2019-03-23T05:49:35Z</time>
      </trkpt>
      <trkpt lat="46.61419" lon="5.86816">
        <ele>715</ele>
        <time>2019-03-23T05:50:35Z</time>
      </trkpt>
      <trkpt lat="46.61422" lon="5.86808">
        <ele>716</ele>
        <time>2019-03-23T05:51:35Z</time>
      </trkpt>
      <trkpt lat="46.61424" lon="5.86799">
        <ele>717</ele>
        <time>2019-03-23T05:52:35Z</time>
      </trkpt>
      <trkpt lat="46.61428" lon="5.86793">
        <ele>717</ele>
        <time>2019-03-23T05:53:35Z</time>
      </trkpt>
      <trkpt lat="46.61429" lon="5.86778">
        <ele>717</ele>
        <time>2019-03-23T05:54:35Z</time>
      </trkpt>
      <trkpt lat="46.61439" lon="5.86772">
        <ele>716</ele>
        <time>2019-03-23T05:55:35Z</time>
      </trkpt>
      <trkpt lat="46.61444" lon="5.86763">
        <ele>716</ele>
        <time>2019-03-23T05:56:35Z</time>
      </trkpt>
      <trkpt lat="46.61451" lon="5.86751">
        <ele>715</ele>
        <time>2019-03-23T05:57:35Z</time>
      </trkpt>
      <trkpt lat="46.61454" lon="5.86738">
        <ele>715</ele>
        <time>2019-03-23T05:58:35Z</time>
      </trkpt>
      <trkpt lat="46.61454" lon="5.86731">
        <ele>715</ele>
        <time>2019-03-23T05:59:35Z</time>
      </trkpt>
      <trkpt lat="46.61457" lon="5.86717">
        <ele>715</ele>
        <time>2019-03-23T06:00:35Z</time>
      </trkpt>
      <trkpt lat="46.61457" lon="5.8671">
        <ele>715</ele>
        <time>2019-03-23T06:01:35Z</time>
      </trkpt>
      <trkpt lat="46.61459" lon="5.86704">
        <ele>714</ele>
        <time>2019-03-23T06:02:35Z</time>
      </trkpt>
      <trkpt lat="46.61462" lon="5.86699">
        <ele>714</ele>
        <time>2019-03-23T06:03:35Z</time>
      </trkpt>
      <trkpt lat="46.61467" lon="5.86689">
        <ele>713</ele>
        <time>2019-03-23T06:04:35Z</time>
      </trkpt>
      <trkpt lat="46.61471" lon="5.86684">
        <ele>712</ele>
        <time>2019-03-23T06:05:35Z</time>
      </trkpt>
      <trkpt lat="46.61477" lon="5.86673">
        <ele>710</ele>
        <time>2019-03-23T06:06:35Z</time>
      </trkpt>
      <trkpt lat="46.61481" lon="5.86669">
        <ele>709</ele>
        <time>2019-03-23T06:07:35Z</time>
      </trkpt>
      <trkpt lat="46.61486" lon="5.86669">
        <ele>708</ele>
        <time>2019-03-23T06:08:35Z</time>
      </trkpt>
      <trkpt lat="46.6149" lon="5.86672">
        <ele>707</ele>
        <time>2019-03-23T06:09:35Z</time>
      </trkpt>
      <trkpt lat="46.61496" lon="5.86674">
        <ele>705</ele>
        <time>2019-03-23T06:10:35Z</time>
      </trkpt>
      <trkpt lat="46.615" lon="5.86675">
        <ele>704</ele>
        <time>2019-03-23T06:11:35Z</time>
      </trkpt>
      <trkpt lat="46.61516" lon="5.86676">
        <ele>705</ele>
        <time>2019-03-23T06:12:35Z</time>
      </trkpt>
      <trkpt lat="46.61529" lon="5.86683">
        <ele>706</ele>
        <time>2019-03-23T06:13:35Z</time>
      </trkpt>
      <trkpt lat="46.61538" lon="5.86694">
        <ele>707</ele>
        <time>2019-03-23T06:14:35Z</time>
      </trkpt>
      <trkpt lat="46.61546" lon="5.86705">
        <ele>709</ele>
        <time>2019-03-23T06:15:35Z</time>
      </trkpt>
      <trkpt lat="46.61553" lon="5.86714">
        <ele>710</ele>
        <time>2019-03-23T06:16:35Z</time>
      </trkpt>
      <trkpt lat="46.61566" lon="5.86722">
        <ele>713</ele>
        <time>2019-03-23T06:17:35Z</time>
      </trkpt>
      <trkpt lat="46.61579" lon="5.86711">
        <ele>713</ele>
        <time>2019-03-23T06:18:35Z</time>
      </trkpt>
      <trkpt lat="46.61584" lon="5.867">
        <ele>712</ele>
        <time>2019-03-23T06:19:35Z</time>
      </trkpt>
      <trkpt lat="46.61594" lon="5.86694">
        <ele>714</ele>
        <time>2019-03-23T06:20:35Z</time>
      </trkpt>
      <trkpt lat="46.616" lon="5.86686">
        <ele>715</ele>
        <time>2019-03-23T06:21:35Z</time>
      </trkpt>
      <trkpt lat="46.61611" lon="5.86668">
        <ele>717</ele>
        <time>2019-03-23T06:22:35Z</time>
      </trkpt>
      <trkpt lat="46.61615" lon="5.86657">
        <ele>718</ele>
        <time>2019-03-23T06:23:35Z</time>
      </trkpt>
      <trkpt lat="46.61625" lon="5.86645">
        <ele>721</ele>
        <time>2019-03-23T06:24:35Z</time>
      </trkpt>
      <trkpt lat="46.61635" lon="5.86633">
        <ele>724</ele>
        <time>2019-03-23T06:25:35Z</time>
      </trkpt>
      <trkpt lat="46.6164" lon="5.866">
        <ele>725</ele>
        <time>2019-03-23T06:26:35Z</time>
      </trkpt>
      <trkpt lat="46.61653" lon="5.86576">
        <ele>728</ele>
        <time>2019-03-23T06:27:35Z</time>
      </trkpt>
      <trkpt lat="46.61655" lon="5.86562">
        <ele>729</ele>
        <time>2019-03-23T06:28:35Z</time>
      </trkpt>
      <trkpt lat="46.61665" lon="5.86546">
        <ele>732</ele>
        <time>2019-03-23T06:29:35Z</time>
      </trkpt>
      <trkpt lat="46.61673" lon="5.86536">
        <ele>734</ele>
        <time>2019-03-23T06:30:35Z</time>
      </trkpt>
      <trkpt lat="46.6168" lon="5.8652">
        <ele>736</ele>
        <time>2019-03-23T06:31:35Z</time>
      </trkpt>
      <trkpt lat="46.61681" lon="5.86506">
        <ele>736</ele>
        <time>2019-03-23T06:32:35Z</time>
      </trkpt>
      <trkpt lat="46.61681" lon="5.86486">
        <ele>736</ele>
        <time>2019-03-23T06:33:35Z</time>
      </trkpt>
      <trkpt lat="46.61687" lon="5.86475">
        <ele>739</ele>
        <time>2019-03-23T06:34:35Z</time>
      </trkpt>
      <trkpt lat="46.61693" lon="5.86438">
        <ele>742</ele>
        <time>2019-03-23T06:35:35Z</time>
      </trkpt>
      <trkpt lat="46.61695" lon="5.86422">
        <ele>743</ele>
        <time>2019-03-23T06:36:35Z</time>
      </trkpt>
      <trkpt lat="46.617" lon="5.86403">
        <ele>745</ele>
        <time>2019-03-23T06:37:35Z</time>
      </trkpt>
      <trkpt lat="46.61714" lon="5.86356">
        <ele>753</ele>
        <time>2019-03-23T06:38:35Z</time>
      </trkpt>
      <trkpt lat="46.61712" lon="5.8633">
        <ele>754</ele>
        <time>2019-03-23T06:39:35Z</time>
      </trkpt>
      <trkpt lat="46.61715" lon="5.86316">
        <ele>755</ele>
        <time>2019-03-23T06:40:35Z</time>
      </trkpt>
      <trkpt lat="46.61713" lon="5.86286">
        <ele>756</ele>
        <time>2019-03-23T06:41:35Z</time>
      </trkpt>
      <trkpt lat="46.61708" lon="5.86227">
        <ele>758</ele>
        <time>2019-03-23T06:42:35Z</time>
      </trkpt>
      <trkpt lat="46.61715" lon="5.86232">
        <ele>760</ele>
        <time>2019-03-23T06:43:35Z</time>
      </trkpt>
      <trkpt lat="46.61715" lon="5.86223">
        <ele>760</ele>
        <time>2019-03-23T06:44:35Z</time>
      </trkpt>
      <trkpt lat="46.61716" lon="5.86213">
        <ele>761</ele>
        <time>2019-03-23T06:45:35Z</time>
      </trkpt>
      <trkpt lat="46.61719" lon="5.862">
        <ele>762</ele>
        <time>2019-03-23T06:46:35Z</time>
      </trkpt>
      <trkpt lat="46.61726" lon="5.86177">
        <ele>765</ele>
        <time>2019-03-23T06:47:35Z</time>
      </trkpt>
      <trkpt lat="46.61728" lon="5.86164">
        <ele>766</ele>
        <time>2019-03-23T06:48:35Z</time>
      </trkpt>
      <trkpt lat="46.61727" lon="5.86157">
        <ele>766</ele>
        <time>2019-03-23T06:49:35Z</time>
      </trkpt>
      <trkpt lat="46.61724" lon="5.8615">
        <ele>766</ele>
        <time>2019-03-23T06:50:35Z</time>
      </trkpt>
      <trkpt lat="46.61724" lon="5.86141">
        <ele>767</ele>
        <time>2019-03-23T06:51:35Z</time>
      </trkpt>
      <trkpt lat="46.61716" lon="5.86125">
        <ele>766</ele>
        <time>2019-03-23T06:52:35Z</time>
      </trkpt>
      <trkpt lat="46.61712" lon="5.86122">
        <ele>765</ele>
        <time>2019-03-23T06:53:35Z</time>
      </trkpt>
      <trkpt lat="46.61701" lon="5.86125">
        <ele>763</ele>
        <time>2019-03-23T06:54:35Z</time>
      </trkpt>
      <trkpt lat="46.61695" lon="5.86123">
        <ele>761</ele>
        <time>2019-03-23T06:55:35Z</time>
      </trkpt>
      <trkpt lat="46.61688" lon="5.86115">
        <ele>760</ele>
        <time>2019-03-23T06:56:35Z</time>
      </trkpt>
      <trkpt lat="46.61678" lon="5.86114">
        <ele>758</ele>
        <time>2019-03-23T06:57:35Z</time>
      </trkpt>
      <trkpt lat="46.61676" lon="5.86123">
        <ele>758</ele>
        <time>2019-03-23T06:58:35Z</time>
      </trkpt>
      <trkpt lat="46.61675" lon="5.8613">
        <ele>757</ele>
        <time>2019-03-23T06:59:35Z</time>
      </trkpt>
      <trkpt lat="46.6167" lon="5.86133">
        <ele>756</ele>
        <time>2019-03-23T07:00:35Z</time>
      </trkpt>
      <trkpt lat="46.61666" lon="5.86137">
        <ele>755</ele>
        <time>2019-03-23T07:01:35Z</time>
      </trkpt>
      <trkpt lat="46.61662" lon="5.86145">
        <ele>753</ele>
        <time>2019-03-23T07:02:35Z</time>
      </trkpt>
      <trkpt lat="46.61653" lon="5.86158">
        <ele>749</ele>
        <time>2019-03-23T07:03:35Z</time>
      </trkpt>
      <trkpt lat="46.61647" lon="5.86171">
        <ele>746</ele>
        <time>2019-03-23T07:04:35Z</time>
      </trkpt>
      <trkpt lat="46.61625" lon="5.86196">
        <ele>737</ele>
        <time>2019-03-23T07:05:35Z</time>
      </trkpt>
      <trkpt lat="46.61617" lon="5.86191">
        <ele>735</ele>
        <time>2019-03-23T07:06:35Z</time>
      </trkpt>
      <trkpt lat="46.61606" lon="5.86156">
        <ele>734</ele>
        <time>2019-03-23T07:07:35Z</time>
      </trkpt>
      <trkpt lat="46.61603" lon="5.8615">
        <ele>734</ele>
        <time>2019-03-23T07:08:35Z</time>
      </trkpt>
      <trkpt lat="46.61601" lon="5.86143">
        <ele>733</ele>
        <time>2019-03-23T07:09:35Z</time>
      </trkpt>
      <trkpt lat="46.61598" lon="5.86137">
        <ele>733</ele>
        <time>2019-03-23T07:10:35Z</time>
      </trkpt>
      <trkpt lat="46.61599" lon="5.86126">
        <ele>734</ele>
        <time>2019-03-23T07:11:35Z</time>
      </trkpt>
      <trkpt lat="46.61597" lon="5.86119">
        <ele>734</ele>
        <time>2019-03-23T07:12:35Z</time>
      </trkpt>
      <trkpt lat="46.61598" lon="5.86109">
        <ele>735</ele>
        <time>2019-03-23T07:13:35Z</time>
      </trkpt>
      <trkpt lat="46.61599" lon="5.86102">
        <ele>736</ele>
        <time>2019-03-23T07:14:35Z</time>
      </trkpt>
      <trkpt lat="46.61604" lon="5.86089">
        <ele>738</ele>
        <time>2019-03-23T07:15:35Z</time>
      </trkpt>
      <trkpt lat="46.61605" lon="5.86083">
        <ele>739</ele>
        <time>2019-03-23T07:16:35Z</time>
      </trkpt>
      <trkpt lat="46.61604" lon="5.86069">
        <ele>738</ele>
        <time>2019-03-23T07:17:35Z</time>
      </trkpt>
      <trkpt lat="46.61605" lon="5.86033">
        <ele>739</ele>
        <time>2019-03-23T07:18:35Z</time>
      </trkpt>
      <trkpt lat="46.61609" lon="5.86005">
        <ele>740</ele>
        <time>2019-03-23T07:19:35Z</time>
      </trkpt>
      <trkpt lat="46.61611" lon="5.85952">
        <ele>744</ele>
        <time>2019-03-23T07:20:35Z</time>
      </trkpt>
      <trkpt lat="46.61615" lon="5.85937">
        <ele>746</ele>
        <time>2019-03-23T07:21:35Z</time>
      </trkpt>
      <trkpt lat="46.61616" lon="5.85919">
        <ele>747</ele>
        <time>2019-03-23T07:22:35Z</time>
      </trkpt>
      <trkpt lat="46.61623" lon="5.85888">
        <ele>752</ele>
        <time>2019-03-23T07:23:35Z</time>
      </trkpt>
      <trkpt lat="46.61621" lon="5.85867">
        <ele>753</ele>
        <time>2019-03-23T07:24:35Z</time>
      </trkpt>
      <trkpt lat="46.61618" lon="5.85863">
        <ele>752</ele>
        <time>2019-03-23T07:25:35Z</time>
      </trkpt>
      <trkpt lat="46.61612" lon="5.85861">
        <ele>751</ele>
        <time>2019-03-23T07:26:35Z</time>
      </trkpt>
      <trkpt lat="46.61612" lon="5.85854">
        <ele>751</ele>
        <time>2019-03-23T07:27:35Z</time>
      </trkpt>
      <trkpt lat="46.61608" lon="5.85849">
        <ele>750</ele>
        <time>2019-03-23T07:28:35Z</time>
      </trkpt>
      <trkpt lat="46.61605" lon="5.85841">
        <ele>750</ele>
        <time>2019-03-23T07:29:35Z</time>
      </trkpt>
      <trkpt lat="46.61601" lon="5.85828">
        <ele>750</ele>
        <time>2019-03-23T07:30:35Z</time>
      </trkpt>
      <trkpt lat="46.61598" lon="5.85822">
        <ele>749</ele>
        <time>2019-03-23T07:31:35Z</time>
      </trkpt>
      <trkpt lat="46.61598" lon="5.85814">
        <ele>749</ele>
        <time>2019-03-23T07:32:35Z</time>
      </trkpt>
      <trkpt lat="46.61598" lon="5.85807">
        <ele>750</ele>
        <time>2019-03-23T07:33:35Z</time>
      </trkpt>
      <trkpt lat="46.61597" lon="5.858">
        <ele>750</ele>
        <time>2019-03-23T07:34:35Z</time>
      </trkpt>
      <trkpt lat="46.61598" lon="5.85792">
        <ele>750</ele>
        <time>2019-03-23T07:35:35Z</time>
      </trkpt>
      <trkpt lat="46.61601" lon="5.85778">
        <ele>751</ele>
        <time>2019-03-23T07:36:35Z</time>
      </trkpt>
      <trkpt lat="46.61603" lon="5.85771">
        <ele>752</ele>
        <time>2019-03-23T07:37:35Z</time>
      </trkpt>
      <trkpt lat="46.61607" lon="5.85767">
        <ele>753</ele>
        <time>2019-03-23T07:38:35Z</time>
      </trkpt>
      <trkpt lat="46.61608" lon="5.85753">
        <ele>754</ele>
        <time>2019-03-23T07:39:35Z</time>
      </trkpt>
      <trkpt lat="46.61604" lon="5.85746">
        <ele>753</ele>
        <time>2019-03-23T07:40:35Z</time>
      </trkpt>
      <trkpt lat="46.61602" lon="5.8574">
        <ele>753</ele>
        <time>2019-03-23T07:41:35Z</time>
      </trkpt>
      <trkpt lat="46.61604" lon="5.85734">
        <ele>754</ele>
        <time>2019-03-23T07:42:35Z</time>
      </trkpt>
      <trkpt lat="46.61604" lon="5.85727">
        <ele>754</ele>
        <time>2019-03-23T07:43:35Z</time>
      </trkpt>
      <trkpt lat="46.61606" lon="5.85686">
        <ele>757</ele>
        <time>2019-03-23T07:44:35Z</time>
      </trkpt>
      <trkpt lat="46.61608" lon="5.85671">
        <ele>758</ele>
        <time>2019-03-23T07:45:35Z</time>
      </trkpt>
      <trkpt lat="46.61606" lon="5.85665">
        <ele>757</ele>
        <time>2019-03-23T07:46:35Z</time>
      </trkpt>
      <trkpt lat="46.61602" lon="5.85661">
        <ele>756</ele>
        <time>2019-03-23T07:47:35Z</time>
      </trkpt>
      <trkpt lat="46.61597" lon="5.85654">
        <ele>755</ele>
        <time>2019-03-23T07:48:35Z</time>
      </trkpt>
      <trkpt lat="46.61598" lon="5.85646">
        <ele>755</ele>
        <time>2019-03-23T07:49:35Z</time>
      </trkpt>
      <trkpt lat="46.61597" lon="5.85639">
        <ele>755</ele>
        <time>2019-03-23T07:50:35Z</time>
      </trkpt>
      <trkpt lat="46.61588" lon="5.85604">
        <ele>753</ele>
        <time>2019-03-23T07:51:35Z</time>
      </trkpt>
      <trkpt lat="46.61583" lon="5.85591">
        <ele>751</ele>
        <time>2019-03-23T07:52:35Z</time>
      </trkpt>
      <trkpt lat="46.61583" lon="5.85577">
        <ele>749</ele>
        <time>2019-03-23T07:53:35Z</time>
      </trkpt>
      <trkpt lat="46.61582" lon="5.85566">
        <ele>745</ele>
        <time>2019-03-23T07:54:35Z</time>
      </trkpt>
      <trkpt lat="46.61583" lon="5.85557">
        <ele>744</ele>
        <time>2019-03-23T07:55:35Z</time>
      </trkpt>
      <trkpt lat="46.61584" lon="5.8555">
        <ele>743</ele>
        <time>2019-03-23T07:56:35Z</time>
      </trkpt>
      <trkpt lat="46.61585" lon="5.85541">
        <ele>741</ele>
        <time>2019-03-23T07:57:35Z</time>
      </trkpt>
      <trkpt lat="46.61587" lon="5.85534">
        <ele>740</ele>
        <time>2019-03-23T07:58:35Z</time>
      </trkpt>
      <trkpt lat="46.61587" lon="5.85526">
        <ele>738</ele>
        <time>2019-03-23T07:59:35Z</time>
      </trkpt>
      <trkpt lat="46.61585" lon="5.8552">
        <ele>736</ele>
        <time>2019-03-23T08:00:35Z</time>
      </trkpt>
      <trkpt lat="46.61584" lon="5.8551">
        <ele>733</ele>
        <time>2019-03-23T08:01:35Z</time>
      </trkpt>
      <trkpt lat="46.61584" lon="5.85503">
        <ele>731</ele>
        <time>2019-03-23T08:02:35Z</time>
      </trkpt>
      <trkpt lat="46.61584" lon="5.8549">
        <ele>729</ele>
        <time>2019-03-23T08:03:35Z</time>
      </trkpt>
      <trkpt lat="46.61586" lon="5.85483">
        <ele>730</ele>
        <time>2019-03-23T08:04:35Z</time>
      </trkpt>
      <trkpt lat="46.61585" lon="5.85461">
        <ele>727</ele>
        <time>2019-03-23T08:05:35Z</time>
      </trkpt>
      <trkpt lat="46.61582" lon="5.85452">
        <ele>724</ele>
        <time>2019-03-23T08:06:35Z</time>
      </trkpt>
      <trkpt lat="46.61581" lon="5.85445">
        <ele>723</ele>
        <time>2019-03-23T08:07:35Z</time>
      </trkpt>
      <trkpt lat="46.61577" lon="5.85439">
        <ele>718</ele>
        <time>2019-03-23T08:08:35Z</time>
      </trkpt>
      <trkpt lat="46.61579" lon="5.85422">
        <ele>719</ele>
        <time>2019-03-23T08:09:35Z</time>
      </trkpt>
      <trkpt lat="46.61579" lon="5.85415">
        <ele>718</ele>
        <time>2019-03-23T08:10:35Z</time>
      </trkpt>
      <trkpt lat="46.61582" lon="5.85409">
        <ele>720</ele>
        <time>2019-03-23T08:11:35Z</time>
      </trkpt>
      <trkpt lat="46.61584" lon="5.85399">
        <ele>721</ele>
        <time>2019-03-23T08:12:35Z</time>
      </trkpt>
      <trkpt lat="46.61586" lon="5.85388">
        <ele>721</ele>
        <time>2019-03-23T08:13:35Z</time>
      </trkpt>
      <trkpt lat="46.61585" lon="5.85381">
        <ele>720</ele>
        <time>2019-03-23T08:14:35Z</time>
      </trkpt>
      <trkpt lat="46.61586" lon="5.85372">
        <ele>720</ele>
        <time>2019-03-23T08:15:35Z</time>
      </trkpt>
      <trkpt lat="46.61589" lon="5.85363">
        <ele>721</ele>
        <time>2019-03-23T08:16:35Z</time>
      </trkpt>
      <trkpt lat="46.61596" lon="5.85352">
        <ele>724</ele>
        <time>2019-03-23T08:17:35Z</time>
      </trkpt>
      <trkpt lat="46.61598" lon="5.85343">
        <ele>725</ele>
        <time>2019-03-23T08:18:35Z</time>
      </trkpt>
      <trkpt lat="46.61597" lon="5.85327">
        <ele>723</ele>
        <time>2019-03-23T08:19:35Z</time>
      </trkpt>
      <trkpt lat="46.61598" lon="5.8532">
        <ele>724</ele>
        <time>2019-03-23T08:20:35Z</time>
      </trkpt>
      <trkpt lat="46.61597" lon="5.85313">
        <ele>724</ele>
        <time>2019-03-23T08:21:35Z</time>
      </trkpt>
      <trkpt lat="46.616" lon="5.85306">
        <ele>725</ele>
        <time>2019-03-23T08:22:35Z</time>
      </trkpt>
      <trkpt lat="46.61624" lon="5.85276">
        <ele>739</ele>
        <time>2019-03-23T08:23:35Z</time>
      </trkpt>
      <trkpt lat="46.61631" lon="5.85267">
        <ele>743</ele>
        <time>2019-03-23T08:24:35Z</time>
      </trkpt>
      <trkpt lat="46.61638" lon="5.85259">
        <ele>746</ele>
        <time>2019-03-23T08:25:35Z</time>
      </trkpt>
      <trkpt lat="46.61654" lon="5.85244">
        <ele>753</ele>
        <time>2019-03-23T08:26:35Z</time>
      </trkpt>
      <trkpt lat="46.61666" lon="5.85229">
        <ele>758</ele>
        <time>2019-03-23T08:27:35Z</time>
      </trkpt>
      <trkpt lat="46.61679" lon="5.85211">
        <ele>758</ele>
        <time>2019-03-23T08:28:35Z</time>
      </trkpt>
      <trkpt lat="46.61677" lon="5.85204">
        <ele>757</ele>
        <time>2019-03-23T08:29:35Z</time>
      </trkpt>
      <trkpt lat="46.61677" lon="5.85195">
        <ele>756</ele>
        <time>2019-03-23T08:30:35Z</time>
      </trkpt>
      <trkpt lat="46.61666" lon="5.85201">
        <ele>755</ele>
        <time>2019-03-23T08:31:35Z</time>
      </trkpt>
      <trkpt lat="46.61662" lon="5.85205">
        <ele>754</ele>
        <time>2019-03-23T08:32:35Z</time>
      </trkpt>
      <trkpt lat="46.61657" lon="5.85208">
        <ele>752</ele>
        <time>2019-03-23T08:33:35Z</time>
      </trkpt>
      <trkpt lat="46.61652" lon="5.85209">
        <ele>750</ele>
        <time>2019-03-23T08:34:35Z</time>
      </trkpt>
      <trkpt lat="46.61647" lon="5.85212">
        <ele>748</ele>
        <time>2019-03-23T08:35:35Z</time>
      </trkpt>
      <trkpt lat="46.61642" lon="5.85217">
        <ele>746</ele>
        <time>2019-03-23T08:36:35Z</time>
      </trkpt>
      <trkpt lat="46.61632" lon="5.85219">
        <ele>741</ele>
        <time>2019-03-23T08:37:35Z</time>
      </trkpt>
      <trkpt lat="46.6161" lon="5.85217">
        <ele>732</ele>
        <time>2019-03-23T08:38:35Z</time>
      </trkpt>
      <trkpt lat="46.61588" lon="5.85207">
        <ele>723</ele>
        <time>2019-03-23T08:39:35Z</time>
      </trkpt>
      <trkpt lat="46.61582" lon="5.85201">
        <ele>720</ele>
        <time>2019-03-23T08:40:35Z</time>
      </trkpt>
      <trkpt lat="46.61576" lon="5.85199">
        <ele>715</ele>
        <time>2019-03-23T08:41:35Z</time>
      </trkpt>
      <trkpt lat="46.61568" lon="5.85197">
        <ele>709</ele>
        <time>2019-03-23T08:42:35Z</time>
      </trkpt>
      <trkpt lat="46.61564" lon="5.85193">
        <ele>706</ele>
        <time>2019-03-23T08:43:35Z</time>
      </trkpt>
      <trkpt lat="46.61559" lon="5.85192">
        <ele>702</ele>
        <time>2019-03-23T08:44:35Z</time>
      </trkpt>
      <trkpt lat="46.61555" lon="5.85186">
        <ele>699</ele>
        <time>2019-03-23T08:45:35Z</time>
      </trkpt>
      <trkpt lat="46.61554" lon="5.85186">
        <ele>699</ele>
        <time>2019-03-23T08:46:35Z</time>
      </trkpt>
      <trkpt lat="46.6156" lon="5.85189">
        <ele>703</ele>
        <time>2019-03-23T08:47:35Z</time>
      </trkpt>
      <trkpt lat="46.61567" lon="5.85188">
        <ele>709</ele>
        <time>2019-03-23T08:48:35Z</time>
      </trkpt>
      <trkpt lat="46.61581" lon="5.85195">
        <ele>720</ele>
        <time>2019-03-23T08:49:35Z</time>
      </trkpt>
      <trkpt lat="46.61586" lon="5.85198">
        <ele>722</ele>
        <time>2019-03-23T08:50:35Z</time>
      </trkpt>
      <trkpt lat="46.61592" lon="5.85199">
        <ele>725</ele>
        <time>2019-03-23T08:51:35Z</time>
      </trkpt>
      <trkpt lat="46.616" lon="5.85204">
        <ele>728</ele>
        <time>2019-03-23T08:52:35Z</time>
      </trkpt>
      <trkpt lat="46.61613" lon="5.85208">
        <ele>733</ele>
        <time>2019-03-23T08:53:35Z</time>
      </trkpt>
      <trkpt lat="46.61618" lon="5.85208">
        <ele>735</ele>
        <time>2019-03-23T08:54:35Z</time>
      </trkpt>
      <trkpt lat="46.61622" lon="5.85212">
        <ele>737</ele>
        <time>2019-03-23T08:55:35Z</time>
      </trkpt>
      <trkpt lat="46.61628" lon="5.85213">
        <ele>740</ele>
        <time>2019-03-23T08:56:35Z</time>
      </trkpt>
      <trkpt lat="46.6163" lon="5.85205">
        <ele>740</ele>
        <time>2019-03-23T08:57:35Z</time>
      </trkpt>
      <trkpt lat="46.61644" lon="5.85186">
        <ele>745</ele>
        <time>2019-03-23T08:58:35Z</time>
      </trkpt>
      <trkpt lat="46.61651" lon="5.85177">
        <ele>747</ele>
        <time>2019-03-23T08:59:35Z</time>
      </trkpt>
      <trkpt lat="46.61658" lon="5.85163">
        <ele>749</ele>
        <time>2019-03-23T09:00:35Z</time>
      </trkpt>
      <trkpt lat="46.61666" lon="5.85155">
        <ele>750</ele>
        <time>2019-03-23T09:01:35Z</time>
      </trkpt>
      <trkpt lat="46.6167" lon="5.85142">
        <ele>749</ele>
        <time>2019-03-23T09:02:35Z</time>
      </trkpt>
      <trkpt lat="46.61673" lon="5.85129">
        <ele>748</ele>
        <time>2019-03-23T09:03:35Z</time>
      </trkpt>
      <trkpt lat="46.6168" lon="5.85121">
        <ele>747</ele>
        <time>2019-03-23T09:04:35Z</time>
      </trkpt>
      <trkpt lat="46.6169" lon="5.85104">
        <ele>746</ele>
        <time>2019-03-23T09:05:35Z</time>
      </trkpt>
      <trkpt lat="46.61699" lon="5.85096">
        <ele>746</ele>
        <time>2019-03-23T09:06:35Z</time>
      </trkpt>
      <trkpt lat="46.61707" lon="5.85087">
        <ele>745</ele>
        <time>2019-03-23T09:07:35Z</time>
      </trkpt>
      <trkpt lat="46.61714" lon="5.85079">
        <ele>745</ele>
        <time>2019-03-23T09:08:35Z</time>
      </trkpt>
      <trkpt lat="46.61721" lon="5.85072">
        <ele>744</ele>
        <time>2019-03-23T09:09:35Z</time>
      </trkpt>
      <trkpt lat="46.61731" lon="5.85062">
        <ele>744</ele>
        <time>2019-03-23T09:10:35Z</time>
      </trkpt>
      <trkpt lat="46.61741" lon="5.8506">
        <ele>745</ele>
        <time>2019-03-23T09:11:35Z</time>
      </trkpt>
      <trkpt lat="46.6175" lon="5.85056">
        <ele>745</ele>
        <time>2019-03-23T09:12:35Z</time>
      </trkpt>
      <trkpt lat="46.61794" lon="5.85032">
        <ele>748</ele>
        <time>2019-03-23T09:13:35Z</time>
      </trkpt>
      <trkpt lat="46.61805" lon="5.85026">
        <ele>748</ele>
        <time>2019-03-23T09:14:35Z</time>
      </trkpt>
      <trkpt lat="46.61812" lon="5.85018">
        <ele>748</ele>
        <time>2019-03-23T09:15:35Z</time>
      </trkpt>
      <trkpt lat="46.61824" lon="5.85005">
        <ele>748</ele>
        <time>2019-03-23T09:16:35Z</time>
      </trkpt>
      <trkpt lat="46.61834" lon="5.85003">
        <ele>749</ele>
        <time>2019-03-23T09:17:35Z</time>
      </trkpt>
      <trkpt lat="46.61853" lon="5.85003">
        <ele>751</ele>
        <time>2019-03-23T09:18:35Z</time>
      </trkpt>
      <trkpt lat="46.61861" lon="5.84996">
        <ele>751</ele>
        <time>2019-03-23T09:19:35Z</time>
      </trkpt>
      <trkpt lat="46.61869" lon="5.84989">
        <ele>752</ele>
        <time>2019-03-23T09:20:35Z</time>
      </trkpt>
      <trkpt lat="46.61883" lon="5.84967">
        <ele>751</ele>
        <time>2019-03-23T09:21:35Z</time>
      </trkpt>
      <trkpt lat="46.61875" lon="5.84939">
        <ele>746</ele>
        <time>2019-03-23T09:22:35Z</time>
      </trkpt>
      <trkpt lat="46.6187" lon="5.84924">
        <ele>743</ele>
        <time>2019-03-23T09:23:35Z</time>
      </trkpt>
      <trkpt lat="46.61871" lon="5.84908">
        <ele>741</ele>
        <time>2019-03-23T09:24:35Z</time>
      </trkpt>
      <trkpt lat="46.61868" lon="5.84894">
        <ele>738</ele>
        <time>2019-03-23T09:25:35Z</time>
      </trkpt>
      <trkpt lat="46.61858" lon="5.84883">
        <ele>735</ele>
        <time>2019-03-23T09:26:35Z</time>
      </trkpt>
      <trkpt lat="46.61859" lon="5.84868">
        <ele>733</ele>
        <time>2019-03-23T09:27:35Z</time>
      </trkpt>
      <trkpt lat="46.61858" lon="5.84851">
        <ele>730</ele>
        <time>2019-03-23T09:28:35Z</time>
      </trkpt>
      <trkpt lat="46.6186" lon="5.84847">
        <ele>730</ele>
        <time>2019-03-23T09:29:35Z</time>
      </trkpt>
      <trkpt lat="46.61854" lon="5.84839">
        <ele>728</ele>
        <time>2019-03-23T09:30:35Z</time>
      </trkpt>
      <trkpt lat="46.61862" lon="5.84823">
        <ele>729</ele>
        <time>2019-03-23T09:31:35Z</time>
      </trkpt>
      <trkpt lat="46.61866" lon="5.84815">
        <ele>729</ele>
        <time>2019-03-23T09:32:35Z</time>
      </trkpt>
      <trkpt lat="46.61875" lon="5.84807">
        <ele>730</ele>
        <time>2019-03-23T09:33:35Z</time>
      </trkpt>
      <trkpt lat="46.61878" lon="5.84802">
        <ele>731</ele>
        <time>2019-03-23T09:34:35Z</time>
      </trkpt>
      <trkpt lat="46.61882" lon="5.8479">
        <ele>731</ele>
        <time>2019-03-23T09:35:35Z</time>
      </trkpt>
      <trkpt lat="46.61884" lon="5.8478">
        <ele>731</ele>
        <time>2019-03-23T09:36:35Z</time>
      </trkpt>
      <trkpt lat="46.61883" lon="5.84757">
        <ele>729</ele>
        <time>2019-03-23T09:37:35Z</time>
      </trkpt>
      <trkpt lat="46.61885" lon="5.84742">
        <ele>729</ele>
        <time>2019-03-23T09:38:35Z</time>
      </trkpt>
      <trkpt lat="46.61885" lon="5.84708">
        <ele>728</ele>
        <time>2019-03-23T09:39:35Z</time>
      </trkpt>
      <trkpt lat="46.61888" lon="5.84695">
        <ele>728</ele>
        <time>2019-03-23T09:40:35Z</time>
      </trkpt>
      <trkpt lat="46.61883" lon="5.84684">
        <ele>727</ele>
        <time>2019-03-23T09:41:35Z</time>
      </trkpt>
      <trkpt lat="46.61882" lon="5.84671">
        <ele>726</ele>
        <time>2019-03-23T09:42:35Z</time>
      </trkpt>
      <trkpt lat="46.61885" lon="5.84629">
        <ele>726</ele>
        <time>2019-03-23T09:43:35Z</time>
      </trkpt>
      <trkpt lat="46.61879" lon="5.84619">
        <ele>725</ele>
        <time>2019-03-23T09:44:35Z</time>
      </trkpt>
      <trkpt lat="46.61875" lon="5.84589">
        <ele>724</ele>
        <time>2019-03-23T09:45:35Z</time>
      </trkpt>
      <trkpt lat="46.61875" lon="5.84575">
        <ele>723</ele>
        <time>2019-03-23T09:46:35Z</time>
      </trkpt>
      <trkpt lat="46.61903" lon="5.84538">
        <ele>728</ele>
        <time>2019-03-23T09:47:35Z</time>
      </trkpt>
      <trkpt lat="46.61907" lon="5.84525">
        <ele>728</ele>
        <time>2019-03-23T09:48:35Z</time>
      </trkpt>
      <trkpt lat="46.61904" lon="5.84497">
        <ele>728</ele>
        <time>2019-03-23T09:49:35Z</time>
      </trkpt>
      <trkpt lat="46.61904" lon="5.8447">
        <ele>729</ele>
        <time>2019-03-23T09:50:35Z</time>
      </trkpt>
      <trkpt lat="46.61909" lon="5.84436">
        <ele>730</ele>
        <time>2019-03-23T09:51:35Z</time>
      </trkpt>
      <trkpt lat="46.6191" lon="5.84422">
        <ele>731</ele>
        <time>2019-03-23T09:52:35Z</time>
      </trkpt>
      <trkpt lat="46.61914" lon="5.84412">
        <ele>732</ele>
        <time>2019-03-23T09:53:35Z</time>
      </trkpt>
      <trkpt lat="46.61919" lon="5.84389">
        <ele>733</ele>
        <time>2019-03-23T09:54:35Z</time>
      </trkpt>
      <trkpt lat="46.61922" lon="5.84373">
        <ele>733</ele>
        <time>2019-03-23T09:55:35Z</time>
      </trkpt>
      <trkpt lat="46.61915" lon="5.84365">
        <ele>732</ele>
        <time>2019-03-23T09:56:35Z</time>
      </trkpt>
      <trkpt lat="46.61909" lon="5.84354">
        <ele>732</ele>
        <time>2019-03-23T09:57:35Z</time>
      </trkpt>
      <trkpt lat="46.61905" lon="5.84339">
        <ele>731</ele>
        <time>2019-03-23T09:58:35Z</time>
      </trkpt>
      <trkpt lat="46.61904" lon="5.84311">
        <ele>731</ele>
        <time>2019-03-23T09:59:35Z</time>
      </trkpt>
      <trkpt lat="46.61906" lon="5.84298">
        <ele>731</ele>
        <time>2019-03-23T10:00:35Z</time>
      </trkpt>
      <trkpt lat="46.61904" lon="5.84285">
        <ele>731</ele>
        <time>2019-03-23T10:01:35Z</time>
      </trkpt>
      <trkpt lat="46.61904" lon="5.84272">
        <ele>730</ele>
        <time>2019-03-23T10:02:35Z</time>
      </trkpt>
      <trkpt lat="46.61897" lon="5.84231">
        <ele>729</ele>
        <time>2019-03-23T10:03:35Z</time>
      </trkpt>
      <trkpt lat="46.61895" lon="5.84218">
        <ele>728</ele>
        <time>2019-03-23T10:04:35Z</time>
      </trkpt>
      <trkpt lat="46.61884" lon="5.84205">
        <ele>726</ele>
        <time>2019-03-23T10:05:35Z</time>
      </trkpt>
      <trkpt lat="46.61873" lon="5.84172">
        <ele>724</ele>
        <time>2019-03-23T10:06:35Z</time>
      </trkpt>
      <trkpt lat="46.61866" lon="5.8415">
        <ele>723</ele>
        <time>2019-03-23T10:07:35Z</time>
      </trkpt>
      <trkpt lat="46.61869" lon="5.84137">
        <ele>723</ele>
        <time>2019-03-23T10:08:35Z</time>
      </trkpt>
      <trkpt lat="46.61876" lon="5.84126">
        <ele>723</ele>
        <time>2019-03-23T10:09:35Z</time>
      </trkpt>
      <trkpt lat="46.61896" lon="5.84071">
        <ele>724</ele>
        <time>2019-03-23T10:10:35Z</time>
      </trkpt>
      <trkpt lat="46.61901" lon="5.84058">
        <ele>724</ele>
        <time>2019-03-23T10:11:35Z</time>
      </trkpt>
      <trkpt lat="46.61907" lon="5.84046">
        <ele>724</ele>
        <time>2019-03-23T10:12:35Z</time>
      </trkpt>
      <trkpt lat="46.61915" lon="5.84036">
        <ele>725</ele>
        <time>2019-03-23T10:13:35Z</time>
      </trkpt>
      <trkpt lat="46.61916" lon="5.84022">
        <ele>724</ele>
        <time>2019-03-23T10:14:35Z</time>
      </trkpt>
      <trkpt lat="46.61915" lon="5.84011">
        <ele>723</ele>
        <time>2019-03-23T10:15:35Z</time>
      </trkpt>
      <trkpt lat="46.61913" lon="5.83993">
        <ele>722</ele>
        <time>2019-03-23T10:16:35Z</time>
      </trkpt>
      <trkpt lat="46.61915" lon="5.83977">
        <ele>721</ele>
        <time>2019-03-23T10:17:35Z</time>
      </trkpt>
      <trkpt lat="46.61918" lon="5.83966">
        <ele>721</ele>
        <time>2019-03-23T10:18:35Z</time>
      </trkpt>
      <trkpt lat="46.61938" lon="5.83962">
        <ele>722</ele>
        <time>2019-03-23T10:19:35Z</time>
      </trkpt>
      <trkpt lat="46.6195" lon="5.83966">
        <ele>723</ele>
        <time>2019-03-23T10:20:35Z</time>
      </trkpt>
      <trkpt lat="46.6196" lon="5.83968">
        <ele>724</ele>
        <time>2019-03-23T10:21:35Z</time>
      </trkpt>
      <trkpt lat="46.61974" lon="5.83963">
        <ele>725</ele>
        <time>2019-03-23T10:22:35Z</time>
      </trkpt>
      <trkpt lat="46.61975" lon="5.83944">
        <ele>724</ele>
        <time>2019-03-23T10:23:35Z</time>
      </trkpt>
      <trkpt lat="46.61978" lon="5.8393">
        <ele>724</ele>
        <time>2019-03-23T10:24:35Z</time>
      </trkpt>
      <trkpt lat="46.61995" lon="5.83918">
        <ele>725</ele>
        <time>2019-03-23T10:25:35Z</time>
      </trkpt>
      <trkpt lat="46.62001" lon="5.83908">
        <ele>726</ele>
        <time>2019-03-23T10:26:35Z</time>
      </trkpt>
      <trkpt lat="46.61995" lon="5.83894">
        <ele>724</ele>
        <time>2019-03-23T10:27:35Z</time>
      </trkpt>
      <trkpt lat="46.61991" lon="5.83863">
        <ele>722</ele>
        <time>2019-03-23T10:28:35Z</time>
      </trkpt>
      <trkpt lat="46.61985" lon="5.83853">
        <ele>721</ele>
        <time>2019-03-23T10:29:35Z</time>
      </trkpt>
      <trkpt lat="46.61972" lon="5.83827">
        <ele>717</ele>
        <time>2019-03-23T10:30:35Z</time>
      </trkpt>
      <trkpt lat="46.61969" lon="5.83818">
        <ele>716</ele>
        <time>2019-03-23T10:31:35Z</time>
      </trkpt>
      <trkpt lat="46.61969" lon="5.83809">
        <ele>715</ele>
        <time>2019-03-23T10:32:35Z</time>
      </trkpt>
      <trkpt lat="46.61971" lon="5.83803">
        <ele>715</ele>
        <time>2019-03-23T10:33:35Z</time>
      </trkpt>
      <trkpt lat="46.61971" lon="5.83793">
        <ele>714</ele>
        <time>2019-03-23T10:34:35Z</time>
      </trkpt>
      <trkpt lat="46.61967" lon="5.8378">
        <ele>713</ele>
        <time>2019-03-23T10:35:35Z</time>
      </trkpt>
      <trkpt lat="46.61966" lon="5.83771">
        <ele>712</ele>
        <time>2019-03-23T10:36:35Z</time>
      </trkpt>
      <trkpt lat="46.61969" lon="5.83757">
        <ele>712</ele>
        <time>2019-03-23T10:37:35Z</time>
      </trkpt>
      <trkpt lat="46.61971" lon="5.8375">
        <ele>711</ele>
        <time>2019-03-23T10:38:35Z</time>
      </trkpt>
      <trkpt lat="46.61972" lon="5.83742">
        <ele>711</ele>
        <time>2019-03-23T10:39:35Z</time>
      </trkpt>
      <trkpt lat="46.61972" lon="5.83728">
        <ele>711</ele>
        <time>2019-03-23T10:40:35Z</time>
      </trkpt>
      <trkpt lat="46.61974" lon="5.83714">
        <ele>710</ele>
        <time>2019-03-23T10:41:35Z</time>
      </trkpt>
      <trkpt lat="46.61976" lon="5.83701">
        <ele>710</ele>
        <time>2019-03-23T10:42:35Z</time>
      </trkpt>
      <trkpt lat="46.61974" lon="5.83694">
        <ele>709</ele>
        <time>2019-03-23T10:43:35Z</time>
      </trkpt>
      <trkpt lat="46.61975" lon="5.83671">
        <ele>709</ele>
        <time>2019-03-23T10:44:35Z</time>
      </trkpt>
      <trkpt lat="46.61973" lon="5.83649">
        <ele>708</ele>
        <time>2019-03-23T10:45:35Z</time>
      </trkpt>
      <trkpt lat="46.61973" lon="5.83627">
        <ele>707</ele>
        <time>2019-03-23T10:46:35Z</time>
      </trkpt>
      <trkpt lat="46.6198" lon="5.83613">
        <ele>707</ele>
        <time>2019-03-23T10:47:35Z</time>
      </trkpt>
      <trkpt lat="46.61981" lon="5.83603">
        <ele>707</ele>
        <time>2019-03-23T10:48:35Z</time>
      </trkpt>
      <trkpt lat="46.61982" lon="5.83596">
        <ele>707</ele>
        <time>2019-03-23T10:49:35Z</time>
      </trkpt>
      <trkpt lat="46.61989" lon="5.83567">
        <ele>707</ele>
        <time>2019-03-23T10:50:35Z</time>
      </trkpt>
      <trkpt lat="46.61994" lon="5.83545">
        <ele>707</ele>
        <time>2019-03-23T10:51:35Z</time>
      </trkpt>
      <trkpt lat="46.61999" lon="5.83532">
        <ele>708</ele>
        <time>2019-03-23T10:52:35Z</time>
      </trkpt>
      <trkpt lat="46.62001" lon="5.83524">
        <ele>708</ele>
        <time>2019-03-23T10:53:35Z</time>
      </trkpt>
      <trkpt lat="46.62015" lon="5.8349">
        <ele>708</ele>
        <time>2019-03-23T10:54:35Z</time>
      </trkpt>
      <trkpt lat="46.62023" lon="5.83478">
        <ele>708</ele>
        <time>2019-03-23T10:55:35Z</time>
      </trkpt>
      <trkpt lat="46.62033" lon="5.83453">
        <ele>707</ele>
        <time>2019-03-23T10:56:35Z</time>
      </trkpt>
      <trkpt lat="46.6204" lon="5.83444">
        <ele>707</ele>
        <time>2019-03-23T10:57:35Z</time>
      </trkpt>
      <trkpt lat="46.62053" lon="5.83421">
        <ele>707</ele>
        <time>2019-03-23T10:58:35Z</time>
      </trkpt>
      <trkpt lat="46.62058" lon="5.83411">
        <ele>707</ele>
        <time>2019-03-23T10:59:35Z</time>
      </trkpt>
      <trkpt lat="46.62068" lon="5.83405">
        <ele>708</ele>
        <time>2019-03-23T11:00:35Z</time>
      </trkpt>
      <trkpt lat="46.6208" lon="5.83393">
        <ele>709</ele>
        <time>2019-03-23T11:01:35Z</time>
      </trkpt>
      <trkpt lat="46.62078" lon="5.83385">
        <ele>708</ele>
        <time>2019-03-23T11:02:35Z</time>
      </trkpt>
      <trkpt lat="46.62082" lon="5.8338">
        <ele>708</ele>
        <time>2019-03-23T11:03:35Z</time>
      </trkpt>
      <trkpt lat="46.62086" lon="5.83376">
        <ele>708</ele>
        <time>2019-03-23T11:04:35Z</time>
      </trkpt>
      <trkpt lat="46.6209" lon="5.8337">
        <ele>708</ele>
        <time>2019-03-23T11:05:35Z</time>
      </trkpt>
      <trkpt lat="46.62097" lon="5.83361">
        <ele>708</ele>
        <time>2019-03-23T11:06:35Z</time>
      </trkpt>
      <trkpt lat="46.62102" lon="5.8335">
        <ele>707</ele>
        <time>2019-03-23T11:07:35Z</time>
      </trkpt>
      <trkpt lat="46.62105" lon="5.83344">
        <ele>707</ele>
        <time>2019-03-23T11:08:35Z</time>
      </trkpt>
      <trkpt lat="46.62116" lon="5.83328">
        <ele>707</ele>
        <time>2019-03-23T11:09:35Z</time>
      </trkpt>
      <trkpt lat="46.62139" lon="5.83297">
        <ele>707</ele>
        <time>2019-03-23T11:10:35Z</time>
      </trkpt>
      <trkpt lat="46.62157" lon="5.83286">
        <ele>708</ele>
        <time>2019-03-23T11:11:35Z</time>
      </trkpt>
      <trkpt lat="46.62173" lon="5.83271">
        <ele>708</ele>
        <time>2019-03-23T11:12:35Z</time>
      </trkpt>
      <trkpt lat="46.62196" lon="5.83239">
        <ele>706</ele>
        <time>2019-03-23T11:13:35Z</time>
      </trkpt>
      <trkpt lat="46.622" lon="5.83216">
        <ele>703</ele>
        <time>2019-03-23T11:14:35Z</time>
      </trkpt>
      <trkpt lat="46.62193" lon="5.83188">
        <ele>700</ele>
        <time>2019-03-23T11:15:35Z</time>
      </trkpt>
      <trkpt lat="46.62191" lon="5.83181">
        <ele>699</ele>
        <time>2019-03-23T11:16:35Z</time>
      </trkpt>
      <trkpt lat="46.62189" lon="5.83159">
        <ele>696</ele>
        <time>2019-03-23T11:17:35Z</time>
      </trkpt>
      <trkpt lat="46.62188" lon="5.83153">
        <ele>695</ele>
        <time>2019-03-23T11:18:35Z</time>
      </trkpt>
      <trkpt lat="46.62188" lon="5.83142">
        <ele>694</ele>
        <time>2019-03-23T11:19:35Z</time>
      </trkpt>
      <trkpt lat="46.62186" lon="5.83135">
        <ele>693</ele>
        <time>2019-03-23T11:20:35Z</time>
      </trkpt>
      <trkpt lat="46.62188" lon="5.83127">
        <ele>692</ele>
        <time>2019-03-23T11:21:35Z</time>
      </trkpt>
      <trkpt lat="46.62196" lon="5.83115">
        <ele>692</ele>
        <time>2019-03-23T11:22:35Z</time>
      </trkpt>
      <trkpt lat="46.62209" lon="5.83068">
        <ele>689</ele>
        <time>2019-03-23T11:23:35Z</time>
      </trkpt>
      <trkpt lat="46.62215" lon="5.83059">
        <ele>689</ele>
        <time>2019-03-23T11:24:35Z</time>
      </trkpt>
      <trkpt lat="46.62221" lon="5.83045">
        <ele>688</ele>
        <time>2019-03-23T11:25:35Z</time>
      </trkpt>
      <trkpt lat="46.62224" lon="5.83034">
        <ele>687</ele>
        <time>2019-03-23T11:26:35Z</time>
      </trkpt>
      <trkpt lat="46.62231" lon="5.83022">
        <ele>687</ele>
        <time>2019-03-23T11:27:35Z</time>
      </trkpt>
      <trkpt lat="46.62238" lon="5.83014">
        <ele>686</ele>
        <time>2019-03-23T11:28:35Z</time>
      </trkpt>
      <trkpt lat="46.62256" lon="5.82975">
        <ele>683</ele>
        <time>2019-03-23T11:29:35Z</time>
      </trkpt>
      <trkpt lat="46.62261" lon="5.82964">
        <ele>681</ele>
        <time>2019-03-23T11:30:35Z</time>
      </trkpt>
      <trkpt lat="46.62269" lon="5.82957">
        <ele>680</ele>
        <time>2019-03-23T11:31:35Z</time>
      </trkpt>
      <trkpt lat="46.62278" lon="5.82951">
        <ele>680</ele>
        <time>2019-03-23T11:32:35Z</time>
      </trkpt>
      <trkpt lat="46.62295" lon="5.82935">
        <ele>678</ele>
        <time>2019-03-23T11:33:35Z</time>
      </trkpt>
      <trkpt lat="46.62305" lon="5.8293">
        <ele>677</ele>
        <time>2019-03-23T11:34:35Z</time>
      </trkpt>
      <trkpt lat="46.62314" lon="5.8293">
        <ele>678</ele>
        <time>2019-03-23T11:35:35Z</time>
      </trkpt>
      <trkpt lat="46.62322" lon="5.82925">
        <ele>677</ele>
        <time>2019-03-23T11:36:35Z</time>
      </trkpt>
      <trkpt lat="46.62329" lon="5.82912">
        <ele>676</ele>
        <time>2019-03-23T11:37:35Z</time>
      </trkpt>
      <trkpt lat="46.62329" lon="5.82899">
        <ele>674</ele>
        <time>2019-03-23T11:38:35Z</time>
      </trkpt>
      <trkpt lat="46.6233" lon="5.82885">
        <ele>673</ele>
        <time>2019-03-23T11:39:35Z</time>
      </trkpt>
      <trkpt lat="46.62339" lon="5.82877">
        <ele>672</ele>
        <time>2019-03-23T11:40:35Z</time>
      </trkpt>
      <trkpt lat="46.62356" lon="5.82883">
        <ele>671</ele>
        <time>2019-03-23T11:41:35Z</time>
      </trkpt>
      <trkpt lat="46.62375" lon="5.8289">
        <ele>670</ele>
        <time>2019-03-23T11:42:35Z</time>
      </trkpt>
      <trkpt lat="46.62392" lon="5.82899">
        <ele>669</ele>
        <time>2019-03-23T11:43:35Z</time>
      </trkpt>
      <trkpt lat="46.62429" lon="5.82916">
        <ele>668</ele>
        <time>2019-03-23T11:44:35Z</time>
      </trkpt>
      <trkpt lat="46.62437" lon="5.82922">
        <ele>668</ele>
        <time>2019-03-23T11:45:35Z</time>
      </trkpt>
      <trkpt lat="46.62445" lon="5.82929">
        <ele>668</ele>
        <time>2019-03-23T11:46:35Z</time>
      </trkpt>
      <trkpt lat="46.62454" lon="5.82934">
        <ele>668</ele>
        <time>2019-03-23T11:47:35Z</time>
      </trkpt>
      <trkpt lat="46.62463" lon="5.82939">
        <ele>668</ele>
        <time>2019-03-23T11:48:35Z</time>
      </trkpt>
      <trkpt lat="46.62474" lon="5.82945">
        <ele>668</ele>
        <time>2019-03-23T11:49:35Z</time>
      </trkpt>
      <trkpt lat="46.62492" lon="5.82945">
        <ele>667</ele>
        <time>2019-03-23T11:50:35Z</time>
      </trkpt>
      <trkpt lat="46.62525" lon="5.82933">
        <ele>665</ele>
        <time>2019-03-23T11:51:35Z</time>
      </trkpt>
      <trkpt lat="46.62534" lon="5.82926">
        <ele>664</ele>
        <time>2019-03-23T11:52:35Z</time>
      </trkpt>
      <trkpt lat="46.62551" lon="5.82914">
        <ele>662</ele>
        <time>2019-03-23T11:53:35Z</time>
      </trkpt>
      <trkpt lat="46.6256" lon="5.8291">
        <ele>662</ele>
        <time>2019-03-23T11:54:35Z</time>
      </trkpt>
      <trkpt lat="46.62577" lon="5.82899">
        <ele>660</ele>
        <time>2019-03-23T11:55:35Z</time>
      </trkpt>
      <trkpt lat="46.62588" lon="5.82894">
        <ele>659</ele>
        <time>2019-03-23T11:56:35Z</time>
      </trkpt>
      <trkpt lat="46.62595" lon="5.82888">
        <ele>659</ele>
        <time>2019-03-23T11:57:35Z</time>
      </trkpt>
      <trkpt lat="46.6261" lon="5.82866">
        <ele>656</ele>
        <time>2019-03-23T11:58:35Z</time>
      </trkpt>
      <trkpt lat="46.62614" lon="5.82854">
        <ele>656</ele>
        <time>2019-03-23T11:59:35Z</time>
      </trkpt>
      <trkpt lat="46.62621" lon="5.8285">
        <ele>655</ele>
        <time>2019-03-23T12:00:35Z</time>
      </trkpt>
      <trkpt lat="46.62632" lon="5.82841">
        <ele>654</ele>
        <time>2019-03-23T12:01:35Z</time>
      </trkpt>
      <trkpt lat="46.62638" lon="5.82832">
        <ele>653</ele>
        <time>2019-03-23T12:02:35Z</time>
      </trkpt>
    </trkseg>
  </trk>
</gpx>